<?xml version="1.0" encoding="UTF-8" standalone="no" ?>
<gpx xmlns="http://www.topografix.com/GPX/1/1" xmlns:xsi="http://www.w3.org/2001/XMLSchema-instance" xsi:schemaLocation="http://www.topografix.com/GPX/1/1 http://www.topografix.com/GPX/1/1/gpx.xsd" version="1.1" creator="VisuGPX - https://www.visugpx.com">
  <metadata>
    <name>marche dinatoire</name>
    <desc><![CDATA[marche de la saint jean]]></desc>
  </metadata>
  <trk>
    <name><![CDATA[ONmove 100 - 22/06/2013]]></name>
    <trkseg>
      <trkpt lat="49.95594" lon="1.55436">
        <ele>69.4</ele>
        <time>2013-06-22T16:02:39Z</time>
      </trkpt>
      <trkpt lat="49.95585" lon="1.55391">
        <ele>67.1</ele>
        <time>2013-06-22T16:03:03Z</time>
      </trkpt>
      <trkpt lat="49.95583" lon="1.55377">
        <ele>67</ele>
        <time>2013-06-22T16:03:12Z</time>
      </trkpt>
      <trkpt lat="49.95581" lon="1.55362">
        <ele>67</ele>
        <time>2013-06-22T16:03:21Z</time>
      </trkpt>
      <trkpt lat="49.95579" lon="1.55354">
        <ele>66.8</ele>
        <time>2013-06-22T16:03:25Z</time>
      </trkpt>
      <trkpt lat="49.95577" lon="1.55347">
        <ele>66.6</ele>
        <time>2013-06-22T16:03:30Z</time>
      </trkpt>
      <trkpt lat="49.95575" lon="1.5534">
        <ele>66.5</ele>
        <time>2013-06-22T16:03:35Z</time>
      </trkpt>
      <trkpt lat="49.95573" lon="1.55333">
        <ele>66.4</ele>
        <time>2013-06-22T16:03:41Z</time>
      </trkpt>
      <trkpt lat="49.95572" lon="1.55325">
        <ele>66.2</ele>
        <time>2013-06-22T16:03:47Z</time>
      </trkpt>
      <trkpt lat="49.9557" lon="1.55317">
        <ele>66.2</ele>
        <time>2013-06-22T16:03:51Z</time>
      </trkpt>
      <trkpt lat="49.95568" lon="1.55311">
        <ele>66.2</ele>
        <time>2013-06-22T16:03:54Z</time>
      </trkpt>
      <trkpt lat="49.95566" lon="1.55304">
        <ele>66.3</ele>
        <time>2013-06-22T16:03:58Z</time>
      </trkpt>
      <trkpt lat="49.95564" lon="1.55295">
        <ele>66.3</ele>
        <time>2013-06-22T16:04:03Z</time>
      </trkpt>
      <trkpt lat="49.95561" lon="1.55289">
        <ele>66.5</ele>
        <time>2013-06-22T16:04:07Z</time>
      </trkpt>
      <trkpt lat="49.95557" lon="1.55282">
        <ele>66.9</ele>
        <time>2013-06-22T16:04:12Z</time>
      </trkpt>
      <trkpt lat="49.95554" lon="1.55276">
        <ele>67</ele>
        <time>2013-06-22T16:04:16Z</time>
      </trkpt>
      <trkpt lat="49.9555" lon="1.55263">
        <ele>66.4</ele>
        <time>2013-06-22T16:04:24Z</time>
      </trkpt>
      <trkpt lat="49.95546" lon="1.55255">
        <ele>66.3</ele>
        <time>2013-06-22T16:04:29Z</time>
      </trkpt>
      <trkpt lat="49.95543" lon="1.5525">
        <ele>66.4</ele>
        <time>2013-06-22T16:04:33Z</time>
      </trkpt>
      <trkpt lat="49.9554" lon="1.55244">
        <ele>66.1</ele>
        <time>2013-06-22T16:04:37Z</time>
      </trkpt>
      <trkpt lat="49.95536" lon="1.55239">
        <ele>66.1</ele>
        <time>2013-06-22T16:04:41Z</time>
      </trkpt>
      <trkpt lat="49.95531" lon="1.55235">
        <ele>66.1</ele>
        <time>2013-06-22T16:04:45Z</time>
      </trkpt>
      <trkpt lat="49.95526" lon="1.55231">
        <ele>66</ele>
        <time>2013-06-22T16:04:50Z</time>
      </trkpt>
      <trkpt lat="49.95522" lon="1.55227">
        <ele>66</ele>
        <time>2013-06-22T16:04:54Z</time>
      </trkpt>
      <trkpt lat="49.95517" lon="1.55223">
        <ele>65.8</ele>
        <time>2013-06-22T16:04:57Z</time>
      </trkpt>
      <trkpt lat="49.95513" lon="1.55219">
        <ele>65.8</ele>
        <time>2013-06-22T16:05:00Z</time>
      </trkpt>
      <trkpt lat="49.95509" lon="1.55217">
        <ele>65.9</ele>
        <time>2013-06-22T16:05:03Z</time>
      </trkpt>
      <trkpt lat="49.95504" lon="1.55213">
        <ele>65.8</ele>
        <time>2013-06-22T16:05:06Z</time>
      </trkpt>
      <trkpt lat="49.95499" lon="1.55211">
        <ele>65.9</ele>
        <time>2013-06-22T16:05:10Z</time>
      </trkpt>
      <trkpt lat="49.95494" lon="1.55209">
        <ele>65.9</ele>
        <time>2013-06-22T16:05:14Z</time>
      </trkpt>
      <trkpt lat="49.95489" lon="1.55207">
        <ele>65.9</ele>
        <time>2013-06-22T16:05:18Z</time>
      </trkpt>
      <trkpt lat="49.95484" lon="1.55203">
        <ele>65.6</ele>
        <time>2013-06-22T16:05:22Z</time>
      </trkpt>
      <trkpt lat="49.95479" lon="1.55198">
        <ele>65.3</ele>
        <time>2013-06-22T16:05:27Z</time>
      </trkpt>
      <trkpt lat="49.95474" lon="1.55195">
        <ele>65</ele>
        <time>2013-06-22T16:05:31Z</time>
      </trkpt>
      <trkpt lat="49.95466" lon="1.55186">
        <ele>65.5</ele>
        <time>2013-06-22T16:05:39Z</time>
      </trkpt>
      <trkpt lat="49.95462" lon="1.55181">
        <ele>65.6</ele>
        <time>2013-06-22T16:05:43Z</time>
      </trkpt>
      <trkpt lat="49.95458" lon="1.55176">
        <ele>65.7</ele>
        <time>2013-06-22T16:05:48Z</time>
      </trkpt>
      <trkpt lat="49.95455" lon="1.5517">
        <ele>65.5</ele>
        <time>2013-06-22T16:05:52Z</time>
      </trkpt>
      <trkpt lat="49.95452" lon="1.55163">
        <ele>65.4</ele>
        <time>2013-06-22T16:05:56Z</time>
      </trkpt>
      <trkpt lat="49.9545" lon="1.55156">
        <ele>65.3</ele>
        <time>2013-06-22T16:06:00Z</time>
      </trkpt>
      <trkpt lat="49.95446" lon="1.55143">
        <ele>65.1</ele>
        <time>2013-06-22T16:06:07Z</time>
      </trkpt>
      <trkpt lat="49.95444" lon="1.55135">
        <ele>65.1</ele>
        <time>2013-06-22T16:06:11Z</time>
      </trkpt>
      <trkpt lat="49.95441" lon="1.55129">
        <ele>65.2</ele>
        <time>2013-06-22T16:06:14Z</time>
      </trkpt>
      <trkpt lat="49.95439" lon="1.55122">
        <ele>65.3</ele>
        <time>2013-06-22T16:06:18Z</time>
      </trkpt>
      <trkpt lat="49.95437" lon="1.55114">
        <ele>65.3</ele>
        <time>2013-06-22T16:06:22Z</time>
      </trkpt>
      <trkpt lat="49.95437" lon="1.55107">
        <ele>65.4</ele>
        <time>2013-06-22T16:06:25Z</time>
      </trkpt>
      <trkpt lat="49.95442" lon="1.55101">
        <ele>65.4</ele>
        <time>2013-06-22T16:06:30Z</time>
      </trkpt>
      <trkpt lat="49.95448" lon="1.55094">
        <ele>65.6</ele>
        <time>2013-06-22T16:06:32Z</time>
      </trkpt>
      <trkpt lat="49.95454" lon="1.55089">
        <ele>65.8</ele>
        <time>2013-06-22T16:06:34Z</time>
      </trkpt>
      <trkpt lat="49.9546" lon="1.55088">
        <ele>65.8</ele>
        <time>2013-06-22T16:06:36Z</time>
      </trkpt>
      <trkpt lat="49.95468" lon="1.55088">
        <ele>65.8</ele>
        <time>2013-06-22T16:06:38Z</time>
      </trkpt>
      <trkpt lat="49.95472" lon="1.55092">
        <ele>65.7</ele>
        <time>2013-06-22T16:06:40Z</time>
      </trkpt>
      <trkpt lat="49.95485" lon="1.55087">
        <ele>65.9</ele>
        <time>2013-06-22T16:06:48Z</time>
      </trkpt>
      <trkpt lat="49.95479" lon="1.55082">
        <ele>66.1</ele>
        <time>2013-06-22T16:08:27Z</time>
      </trkpt>
      <trkpt lat="49.95451" lon="1.55094">
        <ele>65.6</ele>
        <time>2013-06-22T16:08:59Z</time>
      </trkpt>
      <trkpt lat="49.95446" lon="1.55098">
        <ele>65.5</ele>
        <time>2013-06-22T16:09:05Z</time>
      </trkpt>
      <trkpt lat="49.95443" lon="1.55104">
        <ele>65.3</ele>
        <time>2013-06-22T16:09:10Z</time>
      </trkpt>
      <trkpt lat="49.95439" lon="1.55108">
        <ele>65.3</ele>
        <time>2013-06-22T16:09:15Z</time>
      </trkpt>
      <trkpt lat="49.95432" lon="1.55099">
        <ele>65.7</ele>
        <time>2013-06-22T16:09:27Z</time>
      </trkpt>
      <trkpt lat="49.95431" lon="1.55092">
        <ele>65.8</ele>
        <time>2013-06-22T16:09:31Z</time>
      </trkpt>
      <trkpt lat="49.95428" lon="1.55077">
        <ele>66.4</ele>
        <time>2013-06-22T16:09:39Z</time>
      </trkpt>
      <trkpt lat="49.95426" lon="1.55069">
        <ele>67.1</ele>
        <time>2013-06-22T16:09:43Z</time>
      </trkpt>
      <trkpt lat="49.95425" lon="1.55061">
        <ele>67.6</ele>
        <time>2013-06-22T16:09:48Z</time>
      </trkpt>
      <trkpt lat="49.95423" lon="1.55054">
        <ele>68.1</ele>
        <time>2013-06-22T16:09:53Z</time>
      </trkpt>
      <trkpt lat="49.95421" lon="1.55046">
        <ele>68.4</ele>
        <time>2013-06-22T16:09:58Z</time>
      </trkpt>
      <trkpt lat="49.95419" lon="1.5504">
        <ele>68.6</ele>
        <time>2013-06-22T16:10:02Z</time>
      </trkpt>
      <trkpt lat="49.95417" lon="1.55033">
        <ele>68.8</ele>
        <time>2013-06-22T16:10:06Z</time>
      </trkpt>
      <trkpt lat="49.95414" lon="1.55026">
        <ele>69.2</ele>
        <time>2013-06-22T16:10:11Z</time>
      </trkpt>
      <trkpt lat="49.9541" lon="1.55021">
        <ele>69.7</ele>
        <time>2013-06-22T16:10:17Z</time>
      </trkpt>
      <trkpt lat="49.95404" lon="1.55019">
        <ele>70.1</ele>
        <time>2013-06-22T16:10:22Z</time>
      </trkpt>
      <trkpt lat="49.95399" lon="1.55021">
        <ele>70.1</ele>
        <time>2013-06-22T16:10:25Z</time>
      </trkpt>
      <trkpt lat="49.95394" lon="1.5502">
        <ele>70.4</ele>
        <time>2013-06-22T16:10:30Z</time>
      </trkpt>
      <trkpt lat="49.95389" lon="1.55022">
        <ele>70.4</ele>
        <time>2013-06-22T16:10:34Z</time>
      </trkpt>
      <trkpt lat="49.95384" lon="1.55022">
        <ele>70.3</ele>
        <time>2013-06-22T16:10:39Z</time>
      </trkpt>
      <trkpt lat="49.95379" lon="1.55022">
        <ele>70.1</ele>
        <time>2013-06-22T16:10:44Z</time>
      </trkpt>
      <trkpt lat="49.95374" lon="1.55021">
        <ele>70.1</ele>
        <time>2013-06-22T16:10:49Z</time>
      </trkpt>
      <trkpt lat="49.95369" lon="1.5502">
        <ele>70.1</ele>
        <time>2013-06-22T16:11:06Z</time>
      </trkpt>
      <trkpt lat="49.95364" lon="1.55019">
        <ele>70</ele>
        <time>2013-06-22T16:11:11Z</time>
      </trkpt>
      <trkpt lat="49.95359" lon="1.55017">
        <ele>70.2</ele>
        <time>2013-06-22T16:11:15Z</time>
      </trkpt>
      <trkpt lat="49.95355" lon="1.55013">
        <ele>70.4</ele>
        <time>2013-06-22T16:11:19Z</time>
      </trkpt>
      <trkpt lat="49.9535" lon="1.55009">
        <ele>70.7</ele>
        <time>2013-06-22T16:11:23Z</time>
      </trkpt>
      <trkpt lat="49.95346" lon="1.55005">
        <ele>71</ele>
        <time>2013-06-22T16:11:27Z</time>
      </trkpt>
      <trkpt lat="49.95336" lon="1.55">
        <ele>71.1</ele>
        <time>2013-06-22T16:11:35Z</time>
      </trkpt>
      <trkpt lat="49.95332" lon="1.54997">
        <ele>71.2</ele>
        <time>2013-06-22T16:11:39Z</time>
      </trkpt>
      <trkpt lat="49.95327" lon="1.54993">
        <ele>71.5</ele>
        <time>2013-06-22T16:11:43Z</time>
      </trkpt>
      <trkpt lat="49.95323" lon="1.54989">
        <ele>71.7</ele>
        <time>2013-06-22T16:11:47Z</time>
      </trkpt>
      <trkpt lat="49.95318" lon="1.54983">
        <ele>71.9</ele>
        <time>2013-06-22T16:11:51Z</time>
      </trkpt>
      <trkpt lat="49.95311" lon="1.54975">
        <ele>72</ele>
        <time>2013-06-22T16:11:58Z</time>
      </trkpt>
      <trkpt lat="49.95307" lon="1.54971">
        <ele>72.1</ele>
        <time>2013-06-22T16:12:02Z</time>
      </trkpt>
      <trkpt lat="49.95302" lon="1.54967">
        <ele>72.3</ele>
        <time>2013-06-22T16:12:07Z</time>
      </trkpt>
      <trkpt lat="49.95298" lon="1.54962">
        <ele>72.4</ele>
        <time>2013-06-22T16:12:11Z</time>
      </trkpt>
      <trkpt lat="49.95293" lon="1.54959">
        <ele>72.5</ele>
        <time>2013-06-22T16:12:15Z</time>
      </trkpt>
      <trkpt lat="49.95284" lon="1.54951">
        <ele>72.8</ele>
        <time>2013-06-22T16:12:23Z</time>
      </trkpt>
      <trkpt lat="49.95281" lon="1.54945">
        <ele>73.1</ele>
        <time>2013-06-22T16:12:26Z</time>
      </trkpt>
      <trkpt lat="49.95277" lon="1.54941">
        <ele>73.2</ele>
        <time>2013-06-22T16:12:30Z</time>
      </trkpt>
      <trkpt lat="49.95273" lon="1.54936">
        <ele>73.4</ele>
        <time>2013-06-22T16:12:34Z</time>
      </trkpt>
      <trkpt lat="49.95269" lon="1.54932">
        <ele>73.6</ele>
        <time>2013-06-22T16:12:38Z</time>
      </trkpt>
      <trkpt lat="49.95264" lon="1.54929">
        <ele>73.6</ele>
        <time>2013-06-22T16:12:42Z</time>
      </trkpt>
      <trkpt lat="49.9526" lon="1.54925">
        <ele>73.7</ele>
        <time>2013-06-22T16:12:46Z</time>
      </trkpt>
      <trkpt lat="49.95254" lon="1.54925">
        <ele>73.6</ele>
        <time>2013-06-22T16:12:50Z</time>
      </trkpt>
      <trkpt lat="49.9525" lon="1.54921">
        <ele>73.7</ele>
        <time>2013-06-22T16:12:55Z</time>
      </trkpt>
      <trkpt lat="49.95245" lon="1.54917">
        <ele>73.7</ele>
        <time>2013-06-22T16:12:59Z</time>
      </trkpt>
      <trkpt lat="49.95241" lon="1.54914">
        <ele>73.6</ele>
        <time>2013-06-22T16:13:03Z</time>
      </trkpt>
      <trkpt lat="49.95236" lon="1.5491">
        <ele>73.5</ele>
        <time>2013-06-22T16:13:07Z</time>
      </trkpt>
      <trkpt lat="49.95231" lon="1.54907">
        <ele>73.4</ele>
        <time>2013-06-22T16:13:11Z</time>
      </trkpt>
      <trkpt lat="49.95226" lon="1.54904">
        <ele>73.2</ele>
        <time>2013-06-22T16:13:15Z</time>
      </trkpt>
      <trkpt lat="49.95222" lon="1.549">
        <ele>73.2</ele>
        <time>2013-06-22T16:13:19Z</time>
      </trkpt>
      <trkpt lat="49.95217" lon="1.54895">
        <ele>73.4</ele>
        <time>2013-06-22T16:13:23Z</time>
      </trkpt>
      <trkpt lat="49.95213" lon="1.54891">
        <ele>73.5</ele>
        <time>2013-06-22T16:13:27Z</time>
      </trkpt>
      <trkpt lat="49.95209" lon="1.54887">
        <ele>73.7</ele>
        <time>2013-06-22T16:13:31Z</time>
      </trkpt>
      <trkpt lat="49.95204" lon="1.54884">
        <ele>73.8</ele>
        <time>2013-06-22T16:13:35Z</time>
      </trkpt>
      <trkpt lat="49.95199" lon="1.54881">
        <ele>74</ele>
        <time>2013-06-22T16:13:39Z</time>
      </trkpt>
      <trkpt lat="49.95195" lon="1.54876">
        <ele>74.4</ele>
        <time>2013-06-22T16:13:43Z</time>
      </trkpt>
      <trkpt lat="49.9519" lon="1.54873">
        <ele>74.9</ele>
        <time>2013-06-22T16:13:48Z</time>
      </trkpt>
      <trkpt lat="49.95186" lon="1.54871">
        <ele>75.3</ele>
        <time>2013-06-22T16:13:52Z</time>
      </trkpt>
      <trkpt lat="49.95176" lon="1.54868">
        <ele>76.1</ele>
        <time>2013-06-22T16:14:02Z</time>
      </trkpt>
      <trkpt lat="49.95172" lon="1.54863">
        <ele>76.7</ele>
        <time>2013-06-22T16:14:06Z</time>
      </trkpt>
      <trkpt lat="49.95167" lon="1.54861">
        <ele>77</ele>
        <time>2013-06-22T16:14:10Z</time>
      </trkpt>
      <trkpt lat="49.95163" lon="1.54859">
        <ele>76.9</ele>
        <time>2013-06-22T16:14:14Z</time>
      </trkpt>
      <trkpt lat="49.95158" lon="1.54855">
        <ele>77</ele>
        <time>2013-06-22T16:14:19Z</time>
      </trkpt>
      <trkpt lat="49.95153" lon="1.54852">
        <ele>77</ele>
        <time>2013-06-22T16:14:24Z</time>
      </trkpt>
      <trkpt lat="49.95147" lon="1.54851">
        <ele>76.9</ele>
        <time>2013-06-22T16:14:29Z</time>
      </trkpt>
      <trkpt lat="49.95143" lon="1.54848">
        <ele>77</ele>
        <time>2013-06-22T16:14:33Z</time>
      </trkpt>
      <trkpt lat="49.95138" lon="1.54847">
        <ele>76.9</ele>
        <time>2013-06-22T16:14:38Z</time>
      </trkpt>
      <trkpt lat="49.95132" lon="1.54847">
        <ele>76.7</ele>
        <time>2013-06-22T16:14:42Z</time>
      </trkpt>
      <trkpt lat="49.95127" lon="1.54845">
        <ele>76.7</ele>
        <time>2013-06-22T16:14:46Z</time>
      </trkpt>
      <trkpt lat="49.95122" lon="1.54842">
        <ele>76.7</ele>
        <time>2013-06-22T16:14:50Z</time>
      </trkpt>
      <trkpt lat="49.95116" lon="1.54842">
        <ele>76.6</ele>
        <time>2013-06-22T16:14:55Z</time>
      </trkpt>
      <trkpt lat="49.95111" lon="1.5484">
        <ele>76.5</ele>
        <time>2013-06-22T16:14:59Z</time>
      </trkpt>
      <trkpt lat="49.95106" lon="1.54837">
        <ele>76.5</ele>
        <time>2013-06-22T16:15:03Z</time>
      </trkpt>
      <trkpt lat="49.95102" lon="1.54836">
        <ele>76.5</ele>
        <time>2013-06-22T16:15:07Z</time>
      </trkpt>
      <trkpt lat="49.95097" lon="1.54834">
        <ele>76.5</ele>
        <time>2013-06-22T16:15:11Z</time>
      </trkpt>
      <trkpt lat="49.95092" lon="1.54833">
        <ele>76.3</ele>
        <time>2013-06-22T16:15:14Z</time>
      </trkpt>
      <trkpt lat="49.95087" lon="1.54832">
        <ele>76.2</ele>
        <time>2013-06-22T16:15:17Z</time>
      </trkpt>
      <trkpt lat="49.95081" lon="1.54829">
        <ele>76.2</ele>
        <time>2013-06-22T16:15:22Z</time>
      </trkpt>
      <trkpt lat="49.95076" lon="1.54827">
        <ele>76.2</ele>
        <time>2013-06-22T16:15:26Z</time>
      </trkpt>
      <trkpt lat="49.95071" lon="1.54825">
        <ele>76.1</ele>
        <time>2013-06-22T16:15:31Z</time>
      </trkpt>
      <trkpt lat="49.95067" lon="1.54822">
        <ele>76.2</ele>
        <time>2013-06-22T16:15:35Z</time>
      </trkpt>
      <trkpt lat="49.95062" lon="1.5482">
        <ele>76.2</ele>
        <time>2013-06-22T16:15:40Z</time>
      </trkpt>
      <trkpt lat="49.95057" lon="1.54817">
        <ele>76.2</ele>
        <time>2013-06-22T16:15:44Z</time>
      </trkpt>
      <trkpt lat="49.95052" lon="1.54815">
        <ele>76.3</ele>
        <time>2013-06-22T16:15:48Z</time>
      </trkpt>
      <trkpt lat="49.95043" lon="1.5481">
        <ele>76.8</ele>
        <time>2013-06-22T16:15:56Z</time>
      </trkpt>
      <trkpt lat="49.95039" lon="1.54808">
        <ele>76.9</ele>
        <time>2013-06-22T16:15:59Z</time>
      </trkpt>
      <trkpt lat="49.95034" lon="1.54807">
        <ele>76.9</ele>
        <time>2013-06-22T16:16:03Z</time>
      </trkpt>
      <trkpt lat="49.95029" lon="1.54805">
        <ele>77</ele>
        <time>2013-06-22T16:16:08Z</time>
      </trkpt>
      <trkpt lat="49.95023" lon="1.54805">
        <ele>77</ele>
        <time>2013-06-22T16:16:12Z</time>
      </trkpt>
      <trkpt lat="49.95019" lon="1.54804">
        <ele>77.1</ele>
        <time>2013-06-22T16:16:16Z</time>
      </trkpt>
      <trkpt lat="49.95014" lon="1.54804">
        <ele>77.1</ele>
        <time>2013-06-22T16:16:20Z</time>
      </trkpt>
      <trkpt lat="49.95009" lon="1.54804">
        <ele>77.1</ele>
        <time>2013-06-22T16:16:24Z</time>
      </trkpt>
      <trkpt lat="49.95004" lon="1.54803">
        <ele>77.1</ele>
        <time>2013-06-22T16:16:28Z</time>
      </trkpt>
      <trkpt lat="49.94999" lon="1.54802">
        <ele>77.1</ele>
        <time>2013-06-22T16:16:32Z</time>
      </trkpt>
      <trkpt lat="49.9499" lon="1.54801">
        <ele>77.2</ele>
        <time>2013-06-22T16:16:40Z</time>
      </trkpt>
      <trkpt lat="49.94985" lon="1.54801">
        <ele>77.2</ele>
        <time>2013-06-22T16:16:44Z</time>
      </trkpt>
      <trkpt lat="49.94979" lon="1.548">
        <ele>77.2</ele>
        <time>2013-06-22T16:16:49Z</time>
      </trkpt>
      <trkpt lat="49.9497" lon="1.54799">
        <ele>77.3</ele>
        <time>2013-06-22T16:16:57Z</time>
      </trkpt>
      <trkpt lat="49.94965" lon="1.54799">
        <ele>77.3</ele>
        <time>2013-06-22T16:17:01Z</time>
      </trkpt>
      <trkpt lat="49.94961" lon="1.54798">
        <ele>77.4</ele>
        <time>2013-06-22T16:17:05Z</time>
      </trkpt>
      <trkpt lat="49.94956" lon="1.54798">
        <ele>77.5</ele>
        <time>2013-06-22T16:17:09Z</time>
      </trkpt>
      <trkpt lat="49.9495" lon="1.54797">
        <ele>77.6</ele>
        <time>2013-06-22T16:17:14Z</time>
      </trkpt>
      <trkpt lat="49.94945" lon="1.54796">
        <ele>77.7</ele>
        <time>2013-06-22T16:17:18Z</time>
      </trkpt>
      <trkpt lat="49.9494" lon="1.54794">
        <ele>77.8</ele>
        <time>2013-06-22T16:17:22Z</time>
      </trkpt>
      <trkpt lat="49.94934" lon="1.54794">
        <ele>77.8</ele>
        <time>2013-06-22T16:17:26Z</time>
      </trkpt>
      <trkpt lat="49.9493" lon="1.54793">
        <ele>77.9</ele>
        <time>2013-06-22T16:17:30Z</time>
      </trkpt>
      <trkpt lat="49.94924" lon="1.54791">
        <ele>78</ele>
        <time>2013-06-22T16:17:34Z</time>
      </trkpt>
      <trkpt lat="49.94919" lon="1.5479">
        <ele>78.1</ele>
        <time>2013-06-22T16:17:38Z</time>
      </trkpt>
      <trkpt lat="49.9491" lon="1.54787">
        <ele>78.4</ele>
        <time>2013-06-22T16:17:46Z</time>
      </trkpt>
      <trkpt lat="49.94905" lon="1.54786">
        <ele>78.6</ele>
        <time>2013-06-22T16:17:50Z</time>
      </trkpt>
      <trkpt lat="49.949" lon="1.54784">
        <ele>78.7</ele>
        <time>2013-06-22T16:17:54Z</time>
      </trkpt>
      <trkpt lat="49.94895" lon="1.54783">
        <ele>78.8</ele>
        <time>2013-06-22T16:17:58Z</time>
      </trkpt>
      <trkpt lat="49.94891" lon="1.54784">
        <ele>78.8</ele>
        <time>2013-06-22T16:18:01Z</time>
      </trkpt>
      <trkpt lat="49.94885" lon="1.54784">
        <ele>78.8</ele>
        <time>2013-06-22T16:18:05Z</time>
      </trkpt>
      <trkpt lat="49.9488" lon="1.54785">
        <ele>78.8</ele>
        <time>2013-06-22T16:18:10Z</time>
      </trkpt>
      <trkpt lat="49.94875" lon="1.54785">
        <ele>78.9</ele>
        <time>2013-06-22T16:18:13Z</time>
      </trkpt>
      <trkpt lat="49.94869" lon="1.54784">
        <ele>78.9</ele>
        <time>2013-06-22T16:18:17Z</time>
      </trkpt>
      <trkpt lat="49.94864" lon="1.54786">
        <ele>79</ele>
        <time>2013-06-22T16:18:21Z</time>
      </trkpt>
      <trkpt lat="49.94855" lon="1.54785">
        <ele>79.2</ele>
        <time>2013-06-22T16:18:28Z</time>
      </trkpt>
      <trkpt lat="49.94849" lon="1.54784">
        <ele>79.3</ele>
        <time>2013-06-22T16:18:33Z</time>
      </trkpt>
      <trkpt lat="49.94844" lon="1.54782">
        <ele>79.5</ele>
        <time>2013-06-22T16:18:38Z</time>
      </trkpt>
      <trkpt lat="49.94839" lon="1.54783">
        <ele>79.7</ele>
        <time>2013-06-22T16:18:42Z</time>
      </trkpt>
      <trkpt lat="49.94833" lon="1.54784">
        <ele>79.8</ele>
        <time>2013-06-22T16:18:47Z</time>
      </trkpt>
      <trkpt lat="49.94828" lon="1.54784">
        <ele>79.9</ele>
        <time>2013-06-22T16:18:51Z</time>
      </trkpt>
      <trkpt lat="49.94824" lon="1.54783">
        <ele>80.1</ele>
        <time>2013-06-22T16:18:55Z</time>
      </trkpt>
      <trkpt lat="49.94818" lon="1.54781">
        <ele>80.4</ele>
        <time>2013-06-22T16:18:59Z</time>
      </trkpt>
      <trkpt lat="49.94813" lon="1.54781">
        <ele>80.6</ele>
        <time>2013-06-22T16:19:03Z</time>
      </trkpt>
      <trkpt lat="49.94808" lon="1.5478">
        <ele>80.8</ele>
        <time>2013-06-22T16:19:07Z</time>
      </trkpt>
      <trkpt lat="49.94803" lon="1.54778">
        <ele>81</ele>
        <time>2013-06-22T16:19:11Z</time>
      </trkpt>
      <trkpt lat="49.94798" lon="1.54777">
        <ele>81</ele>
        <time>2013-06-22T16:19:15Z</time>
      </trkpt>
      <trkpt lat="49.94793" lon="1.54775">
        <ele>81.1</ele>
        <time>2013-06-22T16:19:20Z</time>
      </trkpt>
      <trkpt lat="49.94788" lon="1.54775">
        <ele>81.2</ele>
        <time>2013-06-22T16:19:24Z</time>
      </trkpt>
      <trkpt lat="49.94783" lon="1.54774">
        <ele>81.3</ele>
        <time>2013-06-22T16:19:28Z</time>
      </trkpt>
      <trkpt lat="49.94777" lon="1.54772">
        <ele>81.5</ele>
        <time>2013-06-22T16:19:32Z</time>
      </trkpt>
      <trkpt lat="49.94772" lon="1.5477">
        <ele>81.8</ele>
        <time>2013-06-22T16:19:36Z</time>
      </trkpt>
      <trkpt lat="49.94766" lon="1.5477">
        <ele>82</ele>
        <time>2013-06-22T16:19:40Z</time>
      </trkpt>
      <trkpt lat="49.94761" lon="1.54768">
        <ele>82.3</ele>
        <time>2013-06-22T16:19:45Z</time>
      </trkpt>
      <trkpt lat="49.94756" lon="1.54767">
        <ele>82.5</ele>
        <time>2013-06-22T16:19:49Z</time>
      </trkpt>
      <trkpt lat="49.94752" lon="1.54766">
        <ele>82.8</ele>
        <time>2013-06-22T16:19:53Z</time>
      </trkpt>
      <trkpt lat="49.94747" lon="1.54765">
        <ele>83.1</ele>
        <time>2013-06-22T16:19:57Z</time>
      </trkpt>
      <trkpt lat="49.94742" lon="1.54763">
        <ele>83.4</ele>
        <time>2013-06-22T16:20:01Z</time>
      </trkpt>
      <trkpt lat="49.94737" lon="1.54762">
        <ele>83.6</ele>
        <time>2013-06-22T16:20:05Z</time>
      </trkpt>
      <trkpt lat="49.94732" lon="1.54762">
        <ele>83.8</ele>
        <time>2013-06-22T16:20:09Z</time>
      </trkpt>
      <trkpt lat="49.94728" lon="1.54758">
        <ele>84.2</ele>
        <time>2013-06-22T16:20:13Z</time>
      </trkpt>
      <trkpt lat="49.94723" lon="1.54757">
        <ele>84.5</ele>
        <time>2013-06-22T16:20:18Z</time>
      </trkpt>
      <trkpt lat="49.94717" lon="1.54756">
        <ele>84.8</ele>
        <time>2013-06-22T16:20:24Z</time>
      </trkpt>
      <trkpt lat="49.94713" lon="1.54755">
        <ele>85</ele>
        <time>2013-06-22T16:20:28Z</time>
      </trkpt>
      <trkpt lat="49.94708" lon="1.54754">
        <ele>85.2</ele>
        <time>2013-06-22T16:20:32Z</time>
      </trkpt>
      <trkpt lat="49.94703" lon="1.54754">
        <ele>85.4</ele>
        <time>2013-06-22T16:20:36Z</time>
      </trkpt>
      <trkpt lat="49.94697" lon="1.54752">
        <ele>85.7</ele>
        <time>2013-06-22T16:20:41Z</time>
      </trkpt>
      <trkpt lat="49.94692" lon="1.5475">
        <ele>86.1</ele>
        <time>2013-06-22T16:20:45Z</time>
      </trkpt>
      <trkpt lat="49.94687" lon="1.5475">
        <ele>86.3</ele>
        <time>2013-06-22T16:20:49Z</time>
      </trkpt>
      <trkpt lat="49.94682" lon="1.5475">
        <ele>86.4</ele>
        <time>2013-06-22T16:20:53Z</time>
      </trkpt>
      <trkpt lat="49.94676" lon="1.54748">
        <ele>86.8</ele>
        <time>2013-06-22T16:20:57Z</time>
      </trkpt>
      <trkpt lat="49.94666" lon="1.54744">
        <ele>87.4</ele>
        <time>2013-06-22T16:21:05Z</time>
      </trkpt>
      <trkpt lat="49.94662" lon="1.54742">
        <ele>87.8</ele>
        <time>2013-06-22T16:21:09Z</time>
      </trkpt>
      <trkpt lat="49.94652" lon="1.54741">
        <ele>88.4</ele>
        <time>2013-06-22T16:21:15Z</time>
      </trkpt>
      <trkpt lat="49.94648" lon="1.54739">
        <ele>88.8</ele>
        <time>2013-06-22T16:21:19Z</time>
      </trkpt>
      <trkpt lat="49.94643" lon="1.54736">
        <ele>89.3</ele>
        <time>2013-06-22T16:21:23Z</time>
      </trkpt>
      <trkpt lat="49.94638" lon="1.54735">
        <ele>89.7</ele>
        <time>2013-06-22T16:21:27Z</time>
      </trkpt>
      <trkpt lat="49.94633" lon="1.54734">
        <ele>89.7</ele>
        <time>2013-06-22T16:21:31Z</time>
      </trkpt>
      <trkpt lat="49.94628" lon="1.54732">
        <ele>89.9</ele>
        <time>2013-06-22T16:21:36Z</time>
      </trkpt>
      <trkpt lat="49.94623" lon="1.54731">
        <ele>90</ele>
        <time>2013-06-22T16:21:40Z</time>
      </trkpt>
      <trkpt lat="49.94618" lon="1.54731">
        <ele>90.1</ele>
        <time>2013-06-22T16:21:44Z</time>
      </trkpt>
      <trkpt lat="49.94613" lon="1.54731">
        <ele>90.1</ele>
        <time>2013-06-22T16:21:48Z</time>
      </trkpt>
      <trkpt lat="49.94608" lon="1.5473">
        <ele>90.1</ele>
        <time>2013-06-22T16:21:52Z</time>
      </trkpt>
      <trkpt lat="49.94603" lon="1.54731">
        <ele>90.1</ele>
        <time>2013-06-22T16:21:56Z</time>
      </trkpt>
      <trkpt lat="49.94593" lon="1.5473">
        <ele>90.1</ele>
        <time>2013-06-22T16:22:05Z</time>
      </trkpt>
      <trkpt lat="49.94588" lon="1.5473">
        <ele>90.2</ele>
        <time>2013-06-22T16:22:09Z</time>
      </trkpt>
      <trkpt lat="49.94583" lon="1.5473">
        <ele>90.2</ele>
        <time>2013-06-22T16:22:13Z</time>
      </trkpt>
      <trkpt lat="49.94577" lon="1.54729">
        <ele>89.8</ele>
        <time>2013-06-22T16:22:17Z</time>
      </trkpt>
      <trkpt lat="49.94572" lon="1.54728">
        <ele>89.6</ele>
        <time>2013-06-22T16:22:21Z</time>
      </trkpt>
      <trkpt lat="49.94567" lon="1.5473">
        <ele>89</ele>
        <time>2013-06-22T16:22:25Z</time>
      </trkpt>
      <trkpt lat="49.94562" lon="1.54731">
        <ele>88.5</ele>
        <time>2013-06-22T16:22:29Z</time>
      </trkpt>
      <trkpt lat="49.94556" lon="1.54732">
        <ele>88</ele>
        <time>2013-06-22T16:22:33Z</time>
      </trkpt>
      <trkpt lat="49.94551" lon="1.54734">
        <ele>87.3</ele>
        <time>2013-06-22T16:22:37Z</time>
      </trkpt>
      <trkpt lat="49.94541" lon="1.54734">
        <ele>86.4</ele>
        <time>2013-06-22T16:22:44Z</time>
      </trkpt>
      <trkpt lat="49.94536" lon="1.54733">
        <ele>86.2</ele>
        <time>2013-06-22T16:22:48Z</time>
      </trkpt>
      <trkpt lat="49.94531" lon="1.54733">
        <ele>85.7</ele>
        <time>2013-06-22T16:22:52Z</time>
      </trkpt>
      <trkpt lat="49.94525" lon="1.54732">
        <ele>85.4</ele>
        <time>2013-06-22T16:22:57Z</time>
      </trkpt>
      <trkpt lat="49.9452" lon="1.54733">
        <ele>85.2</ele>
        <time>2013-06-22T16:23:00Z</time>
      </trkpt>
      <trkpt lat="49.94515" lon="1.54733">
        <ele>84.9</ele>
        <time>2013-06-22T16:23:04Z</time>
      </trkpt>
      <trkpt lat="49.9451" lon="1.54732">
        <ele>84.8</ele>
        <time>2013-06-22T16:23:08Z</time>
      </trkpt>
      <trkpt lat="49.94504" lon="1.54732">
        <ele>84.5</ele>
        <time>2013-06-22T16:23:12Z</time>
      </trkpt>
      <trkpt lat="49.94499" lon="1.54733">
        <ele>84.2</ele>
        <time>2013-06-22T16:23:17Z</time>
      </trkpt>
      <trkpt lat="49.94494" lon="1.54733">
        <ele>84</ele>
        <time>2013-06-22T16:23:21Z</time>
      </trkpt>
      <trkpt lat="49.94489" lon="1.54734">
        <ele>83.8</ele>
        <time>2013-06-22T16:23:26Z</time>
      </trkpt>
      <trkpt lat="49.94483" lon="1.54733">
        <ele>83.6</ele>
        <time>2013-06-22T16:23:30Z</time>
      </trkpt>
      <trkpt lat="49.94478" lon="1.54733">
        <ele>83.4</ele>
        <time>2013-06-22T16:23:34Z</time>
      </trkpt>
      <trkpt lat="49.94473" lon="1.54732">
        <ele>83.3</ele>
        <time>2013-06-22T16:23:38Z</time>
      </trkpt>
      <trkpt lat="49.94467" lon="1.54732">
        <ele>83.3</ele>
        <time>2013-06-22T16:23:42Z</time>
      </trkpt>
      <trkpt lat="49.94462" lon="1.54733">
        <ele>83.2</ele>
        <time>2013-06-22T16:23:46Z</time>
      </trkpt>
      <trkpt lat="49.94452" lon="1.54733">
        <ele>83.2</ele>
        <time>2013-06-22T16:23:54Z</time>
      </trkpt>
      <trkpt lat="49.94447" lon="1.54732">
        <ele>83.3</ele>
        <time>2013-06-22T16:23:58Z</time>
      </trkpt>
      <trkpt lat="49.94442" lon="1.54733">
        <ele>83.3</ele>
        <time>2013-06-22T16:24:02Z</time>
      </trkpt>
      <trkpt lat="49.94437" lon="1.54734">
        <ele>83.4</ele>
        <time>2013-06-22T16:24:06Z</time>
      </trkpt>
      <trkpt lat="49.94432" lon="1.54735">
        <ele>83.5</ele>
        <time>2013-06-22T16:24:10Z</time>
      </trkpt>
      <trkpt lat="49.94428" lon="1.54737">
        <ele>83.6</ele>
        <time>2013-06-22T16:24:13Z</time>
      </trkpt>
      <trkpt lat="49.94422" lon="1.54738">
        <ele>83.7</ele>
        <time>2013-06-22T16:24:17Z</time>
      </trkpt>
      <trkpt lat="49.94417" lon="1.54738">
        <ele>83.8</ele>
        <time>2013-06-22T16:24:21Z</time>
      </trkpt>
      <trkpt lat="49.94408" lon="1.54739">
        <ele>83.8</ele>
        <time>2013-06-22T16:24:29Z</time>
      </trkpt>
      <trkpt lat="49.94398" lon="1.54738">
        <ele>83.9</ele>
        <time>2013-06-22T16:24:37Z</time>
      </trkpt>
      <trkpt lat="49.94392" lon="1.54739">
        <ele>83.8</ele>
        <time>2013-06-22T16:24:42Z</time>
      </trkpt>
      <trkpt lat="49.94383" lon="1.5474">
        <ele>83.7</ele>
        <time>2013-06-22T16:24:48Z</time>
      </trkpt>
      <trkpt lat="49.94378" lon="1.5474">
        <ele>83.8</ele>
        <time>2013-06-22T16:24:52Z</time>
      </trkpt>
      <trkpt lat="49.94372" lon="1.54741">
        <ele>83.6</ele>
        <time>2013-06-22T16:24:56Z</time>
      </trkpt>
      <trkpt lat="49.94367" lon="1.54743">
        <ele>83.5</ele>
        <time>2013-06-22T16:25:00Z</time>
      </trkpt>
      <trkpt lat="49.94362" lon="1.54741">
        <ele>83.6</ele>
        <time>2013-06-22T16:25:04Z</time>
      </trkpt>
      <trkpt lat="49.94357" lon="1.54739">
        <ele>83.9</ele>
        <time>2013-06-22T16:25:08Z</time>
      </trkpt>
      <trkpt lat="49.94352" lon="1.54741">
        <ele>83.9</ele>
        <time>2013-06-22T16:25:12Z</time>
      </trkpt>
      <trkpt lat="49.94347" lon="1.54741">
        <ele>84</ele>
        <time>2013-06-22T16:25:16Z</time>
      </trkpt>
      <trkpt lat="49.94342" lon="1.54743">
        <ele>84</ele>
        <time>2013-06-22T16:25:19Z</time>
      </trkpt>
      <trkpt lat="49.94337" lon="1.54743">
        <ele>84.2</ele>
        <time>2013-06-22T16:25:23Z</time>
      </trkpt>
      <trkpt lat="49.94327" lon="1.54745">
        <ele>84.2</ele>
        <time>2013-06-22T16:25:29Z</time>
      </trkpt>
      <trkpt lat="49.94322" lon="1.54745">
        <ele>84.2</ele>
        <time>2013-06-22T16:25:34Z</time>
      </trkpt>
      <trkpt lat="49.94317" lon="1.54746">
        <ele>84.1</ele>
        <time>2013-06-22T16:25:39Z</time>
      </trkpt>
      <trkpt lat="49.94312" lon="1.54747">
        <ele>84.1</ele>
        <time>2013-06-22T16:25:43Z</time>
      </trkpt>
      <trkpt lat="49.94306" lon="1.54748">
        <ele>84.1</ele>
        <time>2013-06-22T16:25:47Z</time>
      </trkpt>
      <trkpt lat="49.94301" lon="1.54748">
        <ele>84.2</ele>
        <time>2013-06-22T16:25:51Z</time>
      </trkpt>
      <trkpt lat="49.94296" lon="1.54747">
        <ele>84.4</ele>
        <time>2013-06-22T16:25:56Z</time>
      </trkpt>
      <trkpt lat="49.9429" lon="1.54746">
        <ele>84.6</ele>
        <time>2013-06-22T16:26:00Z</time>
      </trkpt>
      <trkpt lat="49.94285" lon="1.54746">
        <ele>84.8</ele>
        <time>2013-06-22T16:26:04Z</time>
      </trkpt>
      <trkpt lat="49.94275" lon="1.54741">
        <ele>85.1</ele>
        <time>2013-06-22T16:26:13Z</time>
      </trkpt>
      <trkpt lat="49.9427" lon="1.54741">
        <ele>85.3</ele>
        <time>2013-06-22T16:26:16Z</time>
      </trkpt>
      <trkpt lat="49.94265" lon="1.54739">
        <ele>85.5</ele>
        <time>2013-06-22T16:26:20Z</time>
      </trkpt>
      <trkpt lat="49.9426" lon="1.54735">
        <ele>85.6</ele>
        <time>2013-06-22T16:26:25Z</time>
      </trkpt>
      <trkpt lat="49.94255" lon="1.54731">
        <ele>85.8</ele>
        <time>2013-06-22T16:26:29Z</time>
      </trkpt>
      <trkpt lat="49.9425" lon="1.54728">
        <ele>86</ele>
        <time>2013-06-22T16:26:32Z</time>
      </trkpt>
      <trkpt lat="49.94246" lon="1.54723">
        <ele>86.1</ele>
        <time>2013-06-22T16:26:36Z</time>
      </trkpt>
      <trkpt lat="49.94241" lon="1.5472">
        <ele>86.4</ele>
        <time>2013-06-22T16:26:40Z</time>
      </trkpt>
      <trkpt lat="49.94236" lon="1.54717">
        <ele>86.6</ele>
        <time>2013-06-22T16:26:44Z</time>
      </trkpt>
      <trkpt lat="49.94232" lon="1.54714">
        <ele>86.9</ele>
        <time>2013-06-22T16:26:48Z</time>
      </trkpt>
      <trkpt lat="49.94226" lon="1.54711">
        <ele>87.2</ele>
        <time>2013-06-22T16:26:52Z</time>
      </trkpt>
      <trkpt lat="49.94221" lon="1.54708">
        <ele>87.6</ele>
        <time>2013-06-22T16:26:56Z</time>
      </trkpt>
      <trkpt lat="49.94216" lon="1.54707">
        <ele>87.8</ele>
        <time>2013-06-22T16:27:00Z</time>
      </trkpt>
      <trkpt lat="49.94211" lon="1.54708">
        <ele>87.9</ele>
        <time>2013-06-22T16:27:04Z</time>
      </trkpt>
      <trkpt lat="49.94206" lon="1.54709">
        <ele>88.1</ele>
        <time>2013-06-22T16:27:08Z</time>
      </trkpt>
      <trkpt lat="49.94196" lon="1.54711">
        <ele>88.4</ele>
        <time>2013-06-22T16:27:18Z</time>
      </trkpt>
      <trkpt lat="49.94191" lon="1.54711">
        <ele>88.7</ele>
        <time>2013-06-22T16:27:23Z</time>
      </trkpt>
      <trkpt lat="49.94185" lon="1.54713">
        <ele>89</ele>
        <time>2013-06-22T16:27:27Z</time>
      </trkpt>
      <trkpt lat="49.9418" lon="1.54715">
        <ele>89.3</ele>
        <time>2013-06-22T16:27:32Z</time>
      </trkpt>
      <trkpt lat="49.94174" lon="1.54717">
        <ele>89.6</ele>
        <time>2013-06-22T16:27:37Z</time>
      </trkpt>
      <trkpt lat="49.94169" lon="1.54718">
        <ele>90</ele>
        <time>2013-06-22T16:27:41Z</time>
      </trkpt>
      <trkpt lat="49.94164" lon="1.5472">
        <ele>90.2</ele>
        <time>2013-06-22T16:27:46Z</time>
      </trkpt>
      <trkpt lat="49.9416" lon="1.54724">
        <ele>90.2</ele>
        <time>2013-06-22T16:27:50Z</time>
      </trkpt>
      <trkpt lat="49.94155" lon="1.54726">
        <ele>90.3</ele>
        <time>2013-06-22T16:27:53Z</time>
      </trkpt>
      <trkpt lat="49.94151" lon="1.54728">
        <ele>90.4</ele>
        <time>2013-06-22T16:27:57Z</time>
      </trkpt>
      <trkpt lat="49.94146" lon="1.54729">
        <ele>90.5</ele>
        <time>2013-06-22T16:28:01Z</time>
      </trkpt>
      <trkpt lat="49.94141" lon="1.54733">
        <ele>90.6</ele>
        <time>2013-06-22T16:28:05Z</time>
      </trkpt>
      <trkpt lat="49.94136" lon="1.54734">
        <ele>90.8</ele>
        <time>2013-06-22T16:28:09Z</time>
      </trkpt>
      <trkpt lat="49.94131" lon="1.54736">
        <ele>91.1</ele>
        <time>2013-06-22T16:28:14Z</time>
      </trkpt>
      <trkpt lat="49.94127" lon="1.54739">
        <ele>91.3</ele>
        <time>2013-06-22T16:28:18Z</time>
      </trkpt>
      <trkpt lat="49.94121" lon="1.5474">
        <ele>91.7</ele>
        <time>2013-06-22T16:28:22Z</time>
      </trkpt>
      <trkpt lat="49.94116" lon="1.54744">
        <ele>91.8</ele>
        <time>2013-06-22T16:28:27Z</time>
      </trkpt>
      <trkpt lat="49.94111" lon="1.54748">
        <ele>92.1</ele>
        <time>2013-06-22T16:28:32Z</time>
      </trkpt>
      <trkpt lat="49.94107" lon="1.54751">
        <ele>92.3</ele>
        <time>2013-06-22T16:28:36Z</time>
      </trkpt>
      <trkpt lat="49.94101" lon="1.54754">
        <ele>92.4</ele>
        <time>2013-06-22T16:28:41Z</time>
      </trkpt>
      <trkpt lat="49.94096" lon="1.54755">
        <ele>92.6</ele>
        <time>2013-06-22T16:28:45Z</time>
      </trkpt>
      <trkpt lat="49.94087" lon="1.54757">
        <ele>93</ele>
        <time>2013-06-22T16:28:53Z</time>
      </trkpt>
      <trkpt lat="49.94082" lon="1.54758">
        <ele>93.2</ele>
        <time>2013-06-22T16:28:56Z</time>
      </trkpt>
      <trkpt lat="49.94076" lon="1.5476">
        <ele>93.2</ele>
        <time>2013-06-22T16:29:01Z</time>
      </trkpt>
      <trkpt lat="49.94071" lon="1.54763">
        <ele>93.2</ele>
        <time>2013-06-22T16:29:05Z</time>
      </trkpt>
      <trkpt lat="49.94067" lon="1.54766">
        <ele>93.2</ele>
        <time>2013-06-22T16:29:09Z</time>
      </trkpt>
      <trkpt lat="49.94062" lon="1.54769">
        <ele>93.3</ele>
        <time>2013-06-22T16:29:12Z</time>
      </trkpt>
      <trkpt lat="49.94057" lon="1.5477">
        <ele>93.4</ele>
        <time>2013-06-22T16:29:16Z</time>
      </trkpt>
      <trkpt lat="49.94053" lon="1.54773">
        <ele>93.5</ele>
        <time>2013-06-22T16:29:20Z</time>
      </trkpt>
      <trkpt lat="49.94049" lon="1.54777">
        <ele>93.6</ele>
        <time>2013-06-22T16:29:24Z</time>
      </trkpt>
      <trkpt lat="49.94044" lon="1.5478">
        <ele>93.6</ele>
        <time>2013-06-22T16:29:28Z</time>
      </trkpt>
      <trkpt lat="49.9404" lon="1.54783">
        <ele>93.7</ele>
        <time>2013-06-22T16:29:32Z</time>
      </trkpt>
      <trkpt lat="49.94037" lon="1.54788">
        <ele>93.4</ele>
        <time>2013-06-22T16:29:37Z</time>
      </trkpt>
      <trkpt lat="49.94032" lon="1.54791">
        <ele>93.3</ele>
        <time>2013-06-22T16:29:42Z</time>
      </trkpt>
      <trkpt lat="49.94028" lon="1.54794">
        <ele>93.2</ele>
        <time>2013-06-22T16:29:46Z</time>
      </trkpt>
      <trkpt lat="49.94023" lon="1.54796">
        <ele>93.1</ele>
        <time>2013-06-22T16:29:49Z</time>
      </trkpt>
      <trkpt lat="49.94019" lon="1.548">
        <ele>92.9</ele>
        <time>2013-06-22T16:29:54Z</time>
      </trkpt>
      <trkpt lat="49.94014" lon="1.54804">
        <ele>92.6</ele>
        <time>2013-06-22T16:29:58Z</time>
      </trkpt>
      <trkpt lat="49.94006" lon="1.54811">
        <ele>92.8</ele>
        <time>2013-06-22T16:30:05Z</time>
      </trkpt>
      <trkpt lat="49.93998" lon="1.5482">
        <ele>93.1</ele>
        <time>2013-06-22T16:30:13Z</time>
      </trkpt>
      <trkpt lat="49.93995" lon="1.54826">
        <ele>93.2</ele>
        <time>2013-06-22T16:30:18Z</time>
      </trkpt>
      <trkpt lat="49.93991" lon="1.5483">
        <ele>93.3</ele>
        <time>2013-06-22T16:30:24Z</time>
      </trkpt>
      <trkpt lat="49.93987" lon="1.54835">
        <ele>93.5</ele>
        <time>2013-06-22T16:30:28Z</time>
      </trkpt>
      <trkpt lat="49.93983" lon="1.54839">
        <ele>93.7</ele>
        <time>2013-06-22T16:30:36Z</time>
      </trkpt>
      <trkpt lat="49.9398" lon="1.54845">
        <ele>93.8</ele>
        <time>2013-06-22T16:30:41Z</time>
      </trkpt>
      <trkpt lat="49.93976" lon="1.5485">
        <ele>93.9</ele>
        <time>2013-06-22T16:30:44Z</time>
      </trkpt>
      <trkpt lat="49.93973" lon="1.54855">
        <ele>94</ele>
        <time>2013-06-22T16:30:48Z</time>
      </trkpt>
      <trkpt lat="49.93973" lon="1.54863">
        <ele>94.1</ele>
        <time>2013-06-22T16:30:52Z</time>
      </trkpt>
      <trkpt lat="49.93972" lon="1.5487">
        <ele>94.6</ele>
        <time>2013-06-22T16:31:07Z</time>
      </trkpt>
      <trkpt lat="49.93972" lon="1.54872">
        <ele>94.7</ele>
        <time>2013-06-22T16:31:09Z</time>
      </trkpt>
      <trkpt lat="49.9397" lon="1.54872">
        <ele>94.8</ele>
        <time>2013-06-22T16:31:10Z</time>
      </trkpt>
      <trkpt lat="49.93944" lon="1.54887">
        <ele>94.9</ele>
        <time>2013-06-22T16:45:35Z</time>
      </trkpt>
      <trkpt lat="49.9394" lon="1.54891">
        <ele>95</ele>
        <time>2013-06-22T16:45:39Z</time>
      </trkpt>
      <trkpt lat="49.93936" lon="1.54895">
        <ele>95.2</ele>
        <time>2013-06-22T16:45:44Z</time>
      </trkpt>
      <trkpt lat="49.93931" lon="1.54901">
        <ele>95.6</ele>
        <time>2013-06-22T16:45:48Z</time>
      </trkpt>
      <trkpt lat="49.93927" lon="1.54906">
        <ele>95.8</ele>
        <time>2013-06-22T16:45:52Z</time>
      </trkpt>
      <trkpt lat="49.93923" lon="1.5491">
        <ele>95.9</ele>
        <time>2013-06-22T16:45:56Z</time>
      </trkpt>
      <trkpt lat="49.93918" lon="1.54915">
        <ele>95.9</ele>
        <time>2013-06-22T16:46:02Z</time>
      </trkpt>
      <trkpt lat="49.93914" lon="1.54919">
        <ele>96.1</ele>
        <time>2013-06-22T16:46:06Z</time>
      </trkpt>
      <trkpt lat="49.93909" lon="1.5492">
        <ele>96</ele>
        <time>2013-06-22T16:46:11Z</time>
      </trkpt>
      <trkpt lat="49.93906" lon="1.54926">
        <ele>96.3</ele>
        <time>2013-06-22T16:46:14Z</time>
      </trkpt>
      <trkpt lat="49.93903" lon="1.54931">
        <ele>96.5</ele>
        <time>2013-06-22T16:46:18Z</time>
      </trkpt>
      <trkpt lat="49.93899" lon="1.54935">
        <ele>96.5</ele>
        <time>2013-06-22T16:46:22Z</time>
      </trkpt>
      <trkpt lat="49.93895" lon="1.54943">
        <ele>96.6</ele>
        <time>2013-06-22T16:46:26Z</time>
      </trkpt>
      <trkpt lat="49.93892" lon="1.54948">
        <ele>96.9</ele>
        <time>2013-06-22T16:46:31Z</time>
      </trkpt>
      <trkpt lat="49.93882" lon="1.54954">
        <ele>97.3</ele>
        <time>2013-06-22T16:46:40Z</time>
      </trkpt>
      <trkpt lat="49.93879" lon="1.5496">
        <ele>97.8</ele>
        <time>2013-06-22T16:46:44Z</time>
      </trkpt>
      <trkpt lat="49.93875" lon="1.54964">
        <ele>97.9</ele>
        <time>2013-06-22T16:46:49Z</time>
      </trkpt>
      <trkpt lat="49.93871" lon="1.5497">
        <ele>98.1</ele>
        <time>2013-06-22T16:46:53Z</time>
      </trkpt>
      <trkpt lat="49.93866" lon="1.54975">
        <ele>98.3</ele>
        <time>2013-06-22T16:46:57Z</time>
      </trkpt>
      <trkpt lat="49.93862" lon="1.54977">
        <ele>98</ele>
        <time>2013-06-22T16:47:00Z</time>
      </trkpt>
      <trkpt lat="49.93857" lon="1.5498">
        <ele>98.2</ele>
        <time>2013-06-22T16:47:05Z</time>
      </trkpt>
      <trkpt lat="49.93853" lon="1.54985">
        <ele>98.7</ele>
        <time>2013-06-22T16:47:10Z</time>
      </trkpt>
      <trkpt lat="49.93849" lon="1.5499">
        <ele>99.2</ele>
        <time>2013-06-22T16:47:14Z</time>
      </trkpt>
      <trkpt lat="49.93845" lon="1.54993">
        <ele>99.2</ele>
        <time>2013-06-22T16:47:24Z</time>
      </trkpt>
      <trkpt lat="49.93841" lon="1.54997">
        <ele>99.5</ele>
        <time>2013-06-22T16:47:29Z</time>
      </trkpt>
      <trkpt lat="49.93837" lon="1.55002">
        <ele>99.7</ele>
        <time>2013-06-22T16:47:35Z</time>
      </trkpt>
      <trkpt lat="49.93834" lon="1.55006">
        <ele>100.2</ele>
        <time>2013-06-22T16:47:40Z</time>
      </trkpt>
      <trkpt lat="49.93829" lon="1.55011">
        <ele>100.5</ele>
        <time>2013-06-22T16:47:48Z</time>
      </trkpt>
      <trkpt lat="49.93826" lon="1.55016">
        <ele>100.9</ele>
        <time>2013-06-22T16:47:54Z</time>
      </trkpt>
      <trkpt lat="49.93823" lon="1.55021">
        <ele>101.4</ele>
        <time>2013-06-22T16:47:59Z</time>
      </trkpt>
      <trkpt lat="49.93813" lon="1.55027">
        <ele>100.9</ele>
        <time>2013-06-22T16:48:08Z</time>
      </trkpt>
      <trkpt lat="49.9381" lon="1.55031">
        <ele>101.4</ele>
        <time>2013-06-22T16:48:11Z</time>
      </trkpt>
      <trkpt lat="49.93805" lon="1.55035">
        <ele>101.5</ele>
        <time>2013-06-22T16:48:15Z</time>
      </trkpt>
      <trkpt lat="49.938" lon="1.55039">
        <ele>102.2</ele>
        <time>2013-06-22T16:48:19Z</time>
      </trkpt>
      <trkpt lat="49.93795" lon="1.55042">
        <ele>102.4</ele>
        <time>2013-06-22T16:48:23Z</time>
      </trkpt>
      <trkpt lat="49.9379" lon="1.55044">
        <ele>102.3</ele>
        <time>2013-06-22T16:48:28Z</time>
      </trkpt>
      <trkpt lat="49.93785" lon="1.55048">
        <ele>102.4</ele>
        <time>2013-06-22T16:48:34Z</time>
      </trkpt>
      <trkpt lat="49.9378" lon="1.55051">
        <ele>102.6</ele>
        <time>2013-06-22T16:48:38Z</time>
      </trkpt>
      <trkpt lat="49.93775" lon="1.55055">
        <ele>102.7</ele>
        <time>2013-06-22T16:48:43Z</time>
      </trkpt>
      <trkpt lat="49.9377" lon="1.55056">
        <ele>102.6</ele>
        <time>2013-06-22T16:48:47Z</time>
      </trkpt>
      <trkpt lat="49.93766" lon="1.55055">
        <ele>102.1</ele>
        <time>2013-06-22T16:48:51Z</time>
      </trkpt>
      <trkpt lat="49.93756" lon="1.55058">
        <ele>101.8</ele>
        <time>2013-06-22T16:48:59Z</time>
      </trkpt>
      <trkpt lat="49.93751" lon="1.55059">
        <ele>101.7</ele>
        <time>2013-06-22T16:49:02Z</time>
      </trkpt>
      <trkpt lat="49.93746" lon="1.55061">
        <ele>101.9</ele>
        <time>2013-06-22T16:49:06Z</time>
      </trkpt>
      <trkpt lat="49.93741" lon="1.55063">
        <ele>102</ele>
        <time>2013-06-22T16:49:10Z</time>
      </trkpt>
      <trkpt lat="49.93736" lon="1.55065">
        <ele>102.2</ele>
        <time>2013-06-22T16:49:15Z</time>
      </trkpt>
      <trkpt lat="49.9373" lon="1.55068">
        <ele>102.6</ele>
        <time>2013-06-22T16:49:20Z</time>
      </trkpt>
      <trkpt lat="49.93725" lon="1.55068">
        <ele>102.3</ele>
        <time>2013-06-22T16:49:25Z</time>
      </trkpt>
      <trkpt lat="49.93721" lon="1.55067">
        <ele>102.1</ele>
        <time>2013-06-22T16:49:29Z</time>
      </trkpt>
      <trkpt lat="49.93715" lon="1.55067">
        <ele>101.9</ele>
        <time>2013-06-22T16:49:34Z</time>
      </trkpt>
      <trkpt lat="49.9371" lon="1.55066">
        <ele>101.7</ele>
        <time>2013-06-22T16:49:38Z</time>
      </trkpt>
      <trkpt lat="49.93701" lon="1.55066">
        <ele>101.6</ele>
        <time>2013-06-22T16:49:46Z</time>
      </trkpt>
      <trkpt lat="49.93696" lon="1.55067">
        <ele>101.6</ele>
        <time>2013-06-22T16:49:50Z</time>
      </trkpt>
      <trkpt lat="49.93691" lon="1.55067">
        <ele>101.6</ele>
        <time>2013-06-22T16:49:54Z</time>
      </trkpt>
      <trkpt lat="49.93686" lon="1.55066">
        <ele>101.5</ele>
        <time>2013-06-22T16:49:59Z</time>
      </trkpt>
      <trkpt lat="49.93681" lon="1.55065">
        <ele>101.3</ele>
        <time>2013-06-22T16:50:03Z</time>
      </trkpt>
      <trkpt lat="49.93676" lon="1.55064">
        <ele>101.2</ele>
        <time>2013-06-22T16:50:07Z</time>
      </trkpt>
      <trkpt lat="49.93671" lon="1.55063">
        <ele>101</ele>
        <time>2013-06-22T16:50:11Z</time>
      </trkpt>
      <trkpt lat="49.93662" lon="1.55058">
        <ele>100.4</ele>
        <time>2013-06-22T16:50:19Z</time>
      </trkpt>
      <trkpt lat="49.93657" lon="1.55056">
        <ele>100</ele>
        <time>2013-06-22T16:50:24Z</time>
      </trkpt>
      <trkpt lat="49.93653" lon="1.55053">
        <ele>99.9</ele>
        <time>2013-06-22T16:50:28Z</time>
      </trkpt>
      <trkpt lat="49.93648" lon="1.5505">
        <ele>99.7</ele>
        <time>2013-06-22T16:50:32Z</time>
      </trkpt>
      <trkpt lat="49.93643" lon="1.55046">
        <ele>99.6</ele>
        <time>2013-06-22T16:50:36Z</time>
      </trkpt>
      <trkpt lat="49.93639" lon="1.55042">
        <ele>99.5</ele>
        <time>2013-06-22T16:50:40Z</time>
      </trkpt>
      <trkpt lat="49.93635" lon="1.55036">
        <ele>99.5</ele>
        <time>2013-06-22T16:50:44Z</time>
      </trkpt>
      <trkpt lat="49.9363" lon="1.5503">
        <ele>99.7</ele>
        <time>2013-06-22T16:50:48Z</time>
      </trkpt>
      <trkpt lat="49.93626" lon="1.55026">
        <ele>100</ele>
        <time>2013-06-22T16:50:52Z</time>
      </trkpt>
      <trkpt lat="49.93622" lon="1.55021">
        <ele>100.3</ele>
        <time>2013-06-22T16:50:56Z</time>
      </trkpt>
      <trkpt lat="49.93618" lon="1.55017">
        <ele>100.6</ele>
        <time>2013-06-22T16:51:00Z</time>
      </trkpt>
      <trkpt lat="49.93614" lon="1.55013">
        <ele>100.9</ele>
        <time>2013-06-22T16:51:04Z</time>
      </trkpt>
      <trkpt lat="49.9361" lon="1.55008">
        <ele>101.1</ele>
        <time>2013-06-22T16:51:09Z</time>
      </trkpt>
      <trkpt lat="49.93603" lon="1.54998">
        <ele>101.3</ele>
        <time>2013-06-22T16:51:18Z</time>
      </trkpt>
      <trkpt lat="49.93599" lon="1.54992">
        <ele>101.6</ele>
        <time>2013-06-22T16:51:24Z</time>
      </trkpt>
      <trkpt lat="49.93595" lon="1.5499">
        <ele>101.7</ele>
        <time>2013-06-22T16:51:27Z</time>
      </trkpt>
      <trkpt lat="49.93588" lon="1.5498">
        <ele>102</ele>
        <time>2013-06-22T16:51:35Z</time>
      </trkpt>
      <trkpt lat="49.93584" lon="1.54975">
        <ele>102</ele>
        <time>2013-06-22T16:51:38Z</time>
      </trkpt>
      <trkpt lat="49.93582" lon="1.54969">
        <ele>102.2</ele>
        <time>2013-06-22T16:51:41Z</time>
      </trkpt>
      <trkpt lat="49.93579" lon="1.54963">
        <ele>102.5</ele>
        <time>2013-06-22T16:51:46Z</time>
      </trkpt>
      <trkpt lat="49.93575" lon="1.54956">
        <ele>102.7</ele>
        <time>2013-06-22T16:51:51Z</time>
      </trkpt>
      <trkpt lat="49.93572" lon="1.54949">
        <ele>102.9</ele>
        <time>2013-06-22T16:51:56Z</time>
      </trkpt>
      <trkpt lat="49.93568" lon="1.54943">
        <ele>103.1</ele>
        <time>2013-06-22T16:52:01Z</time>
      </trkpt>
      <trkpt lat="49.93565" lon="1.54937">
        <ele>103.4</ele>
        <time>2013-06-22T16:52:05Z</time>
      </trkpt>
      <trkpt lat="49.93562" lon="1.54932">
        <ele>103.6</ele>
        <time>2013-06-22T16:52:10Z</time>
      </trkpt>
      <trkpt lat="49.93557" lon="1.54928">
        <ele>103.6</ele>
        <time>2013-06-22T16:52:15Z</time>
      </trkpt>
      <trkpt lat="49.93552" lon="1.54923">
        <ele>103.8</ele>
        <time>2013-06-22T16:52:20Z</time>
      </trkpt>
      <trkpt lat="49.93549" lon="1.54917">
        <ele>104</ele>
        <time>2013-06-22T16:52:24Z</time>
      </trkpt>
      <trkpt lat="49.93544" lon="1.54914">
        <ele>104.2</ele>
        <time>2013-06-22T16:52:28Z</time>
      </trkpt>
      <trkpt lat="49.93539" lon="1.54909">
        <ele>104.4</ele>
        <time>2013-06-22T16:52:33Z</time>
      </trkpt>
      <trkpt lat="49.93535" lon="1.54904">
        <ele>104.6</ele>
        <time>2013-06-22T16:52:37Z</time>
      </trkpt>
      <trkpt lat="49.93531" lon="1.54899">
        <ele>104.7</ele>
        <time>2013-06-22T16:52:42Z</time>
      </trkpt>
      <trkpt lat="49.93527" lon="1.54894">
        <ele>104.9</ele>
        <time>2013-06-22T16:52:46Z</time>
      </trkpt>
      <trkpt lat="49.93522" lon="1.5489">
        <ele>105.2</ele>
        <time>2013-06-22T16:52:50Z</time>
      </trkpt>
      <trkpt lat="49.93518" lon="1.54885">
        <ele>105.6</ele>
        <time>2013-06-22T16:52:54Z</time>
      </trkpt>
      <trkpt lat="49.93509" lon="1.54879">
        <ele>106.3</ele>
        <time>2013-06-22T16:53:03Z</time>
      </trkpt>
      <trkpt lat="49.93505" lon="1.54875">
        <ele>106.5</ele>
        <time>2013-06-22T16:53:07Z</time>
      </trkpt>
      <trkpt lat="49.93501" lon="1.54871">
        <ele>106.6</ele>
        <time>2013-06-22T16:53:11Z</time>
      </trkpt>
      <trkpt lat="49.93496" lon="1.54867">
        <ele>107</ele>
        <time>2013-06-22T16:53:15Z</time>
      </trkpt>
      <trkpt lat="49.93492" lon="1.54863">
        <ele>107.2</ele>
        <time>2013-06-22T16:53:19Z</time>
      </trkpt>
      <trkpt lat="49.93488" lon="1.54859">
        <ele>107.6</ele>
        <time>2013-06-22T16:53:23Z</time>
      </trkpt>
      <trkpt lat="49.93484" lon="1.54855">
        <ele>108</ele>
        <time>2013-06-22T16:53:27Z</time>
      </trkpt>
      <trkpt lat="49.9348" lon="1.54851">
        <ele>108.3</ele>
        <time>2013-06-22T16:53:31Z</time>
      </trkpt>
      <trkpt lat="49.93473" lon="1.54842">
        <ele>108.7</ele>
        <time>2013-06-22T16:53:39Z</time>
      </trkpt>
      <trkpt lat="49.93468" lon="1.54839">
        <ele>108.8</ele>
        <time>2013-06-22T16:53:44Z</time>
      </trkpt>
      <trkpt lat="49.93459" lon="1.54833">
        <ele>109.1</ele>
        <time>2013-06-22T16:53:53Z</time>
      </trkpt>
      <trkpt lat="49.93454" lon="1.5483">
        <ele>109.4</ele>
        <time>2013-06-22T16:53:57Z</time>
      </trkpt>
      <trkpt lat="49.9345" lon="1.54827">
        <ele>109.7</ele>
        <time>2013-06-22T16:54:01Z</time>
      </trkpt>
      <trkpt lat="49.93446" lon="1.54823">
        <ele>110.2</ele>
        <time>2013-06-22T16:54:05Z</time>
      </trkpt>
      <trkpt lat="49.9344" lon="1.5482">
        <ele>110.3</ele>
        <time>2013-06-22T16:54:09Z</time>
      </trkpt>
      <trkpt lat="49.93435" lon="1.54819">
        <ele>110.3</ele>
        <time>2013-06-22T16:54:13Z</time>
      </trkpt>
      <trkpt lat="49.9343" lon="1.54817">
        <ele>110.3</ele>
        <time>2013-06-22T16:54:18Z</time>
      </trkpt>
      <trkpt lat="49.93421" lon="1.54814">
        <ele>110.2</ele>
        <time>2013-06-22T16:54:25Z</time>
      </trkpt>
      <trkpt lat="49.93416" lon="1.54812">
        <ele>110</ele>
        <time>2013-06-22T16:54:29Z</time>
      </trkpt>
      <trkpt lat="49.93412" lon="1.54809">
        <ele>110</ele>
        <time>2013-06-22T16:54:33Z</time>
      </trkpt>
      <trkpt lat="49.93407" lon="1.54807">
        <ele>110</ele>
        <time>2013-06-22T16:54:37Z</time>
      </trkpt>
      <trkpt lat="49.93403" lon="1.54804">
        <ele>110.1</ele>
        <time>2013-06-22T16:54:41Z</time>
      </trkpt>
      <trkpt lat="49.93398" lon="1.548">
        <ele>110.4</ele>
        <time>2013-06-22T16:54:47Z</time>
      </trkpt>
      <trkpt lat="49.93393" lon="1.548">
        <ele>110.5</ele>
        <time>2013-06-22T16:54:51Z</time>
      </trkpt>
      <trkpt lat="49.93387" lon="1.548">
        <ele>110.5</ele>
        <time>2013-06-22T16:54:55Z</time>
      </trkpt>
      <trkpt lat="49.93382" lon="1.54798">
        <ele>110.9</ele>
        <time>2013-06-22T16:54:59Z</time>
      </trkpt>
      <trkpt lat="49.93377" lon="1.54795">
        <ele>111.3</ele>
        <time>2013-06-22T16:55:03Z</time>
      </trkpt>
      <trkpt lat="49.93372" lon="1.54795">
        <ele>111.5</ele>
        <time>2013-06-22T16:55:06Z</time>
      </trkpt>
      <trkpt lat="49.93367" lon="1.54793">
        <ele>111.8</ele>
        <time>2013-06-22T16:55:11Z</time>
      </trkpt>
      <trkpt lat="49.93361" lon="1.54793">
        <ele>112</ele>
        <time>2013-06-22T16:55:15Z</time>
      </trkpt>
      <trkpt lat="49.93357" lon="1.54791">
        <ele>112.3</ele>
        <time>2013-06-22T16:55:20Z</time>
      </trkpt>
      <trkpt lat="49.93352" lon="1.54789">
        <ele>112.6</ele>
        <time>2013-06-22T16:55:25Z</time>
      </trkpt>
      <trkpt lat="49.93348" lon="1.54788">
        <ele>112.8</ele>
        <time>2013-06-22T16:55:29Z</time>
      </trkpt>
      <trkpt lat="49.93343" lon="1.54786">
        <ele>113</ele>
        <time>2013-06-22T16:55:33Z</time>
      </trkpt>
      <trkpt lat="49.93338" lon="1.54783">
        <ele>113.1</ele>
        <time>2013-06-22T16:55:37Z</time>
      </trkpt>
      <trkpt lat="49.93328" lon="1.54777">
        <ele>113.2</ele>
        <time>2013-06-22T16:55:45Z</time>
      </trkpt>
      <trkpt lat="49.93323" lon="1.54774">
        <ele>113.5</ele>
        <time>2013-06-22T16:55:51Z</time>
      </trkpt>
      <trkpt lat="49.93319" lon="1.5477">
        <ele>113.8</ele>
        <time>2013-06-22T16:55:55Z</time>
      </trkpt>
      <trkpt lat="49.93314" lon="1.54767">
        <ele>114.1</ele>
        <time>2013-06-22T16:55:59Z</time>
      </trkpt>
      <trkpt lat="49.93308" lon="1.54765">
        <ele>114.4</ele>
        <time>2013-06-22T16:56:03Z</time>
      </trkpt>
      <trkpt lat="49.93303" lon="1.54763">
        <ele>114.6</ele>
        <time>2013-06-22T16:56:07Z</time>
      </trkpt>
      <trkpt lat="49.93298" lon="1.54765">
        <ele>114.8</ele>
        <time>2013-06-22T16:56:12Z</time>
      </trkpt>
      <trkpt lat="49.93294" lon="1.54761">
        <ele>114.9</ele>
        <time>2013-06-22T16:56:17Z</time>
      </trkpt>
      <trkpt lat="49.93284" lon="1.54756">
        <ele>115.1</ele>
        <time>2013-06-22T16:56:26Z</time>
      </trkpt>
      <trkpt lat="49.93279" lon="1.54755">
        <ele>115.2</ele>
        <time>2013-06-22T16:56:32Z</time>
      </trkpt>
      <trkpt lat="49.9327" lon="1.54753">
        <ele>115.2</ele>
        <time>2013-06-22T16:56:39Z</time>
      </trkpt>
      <trkpt lat="49.93264" lon="1.54753">
        <ele>115.2</ele>
        <time>2013-06-22T16:56:44Z</time>
      </trkpt>
      <trkpt lat="49.93259" lon="1.54752">
        <ele>115.2</ele>
        <time>2013-06-22T16:56:49Z</time>
      </trkpt>
      <trkpt lat="49.9325" lon="1.54751">
        <ele>115.1</ele>
        <time>2013-06-22T16:56:56Z</time>
      </trkpt>
      <trkpt lat="49.93244" lon="1.5475">
        <ele>115.3</ele>
        <time>2013-06-22T16:57:02Z</time>
      </trkpt>
      <trkpt lat="49.93239" lon="1.5475">
        <ele>115.4</ele>
        <time>2013-06-22T16:57:07Z</time>
      </trkpt>
      <trkpt lat="49.93234" lon="1.5475">
        <ele>115.6</ele>
        <time>2013-06-22T16:57:12Z</time>
      </trkpt>
      <trkpt lat="49.93229" lon="1.5475">
        <ele>115.8</ele>
        <time>2013-06-22T16:57:16Z</time>
      </trkpt>
      <trkpt lat="49.93223" lon="1.54752">
        <ele>116.2</ele>
        <time>2013-06-22T16:57:20Z</time>
      </trkpt>
      <trkpt lat="49.93217" lon="1.54752">
        <ele>116.7</ele>
        <time>2013-06-22T16:57:23Z</time>
      </trkpt>
      <trkpt lat="49.93212" lon="1.54754">
        <ele>117.2</ele>
        <time>2013-06-22T16:57:27Z</time>
      </trkpt>
      <trkpt lat="49.93207" lon="1.54754">
        <ele>117.7</ele>
        <time>2013-06-22T16:57:32Z</time>
      </trkpt>
      <trkpt lat="49.93198" lon="1.54752">
        <ele>118.1</ele>
        <time>2013-06-22T16:57:42Z</time>
      </trkpt>
      <trkpt lat="49.93194" lon="1.54751">
        <ele>118.2</ele>
        <time>2013-06-22T16:57:47Z</time>
      </trkpt>
      <trkpt lat="49.93189" lon="1.5475">
        <ele>118.4</ele>
        <time>2013-06-22T16:57:51Z</time>
      </trkpt>
      <trkpt lat="49.93184" lon="1.54748">
        <ele>118.6</ele>
        <time>2013-06-22T16:57:55Z</time>
      </trkpt>
      <trkpt lat="49.93175" lon="1.54748">
        <ele>119.2</ele>
        <time>2013-06-22T16:58:03Z</time>
      </trkpt>
      <trkpt lat="49.9317" lon="1.54745">
        <ele>119.5</ele>
        <time>2013-06-22T16:58:08Z</time>
      </trkpt>
      <trkpt lat="49.93161" lon="1.54745">
        <ele>119.9</ele>
        <time>2013-06-22T16:58:15Z</time>
      </trkpt>
      <trkpt lat="49.93156" lon="1.54745">
        <ele>120.1</ele>
        <time>2013-06-22T16:58:19Z</time>
      </trkpt>
      <trkpt lat="49.93151" lon="1.54744">
        <ele>120.3</ele>
        <time>2013-06-22T16:58:25Z</time>
      </trkpt>
      <trkpt lat="49.93146" lon="1.54744">
        <ele>120.5</ele>
        <time>2013-06-22T16:58:29Z</time>
      </trkpt>
      <trkpt lat="49.93137" lon="1.54744">
        <ele>120.9</ele>
        <time>2013-06-22T16:58:37Z</time>
      </trkpt>
      <trkpt lat="49.93132" lon="1.54745">
        <ele>121.3</ele>
        <time>2013-06-22T16:58:41Z</time>
      </trkpt>
      <trkpt lat="49.93127" lon="1.54747">
        <ele>121.7</ele>
        <time>2013-06-22T16:58:46Z</time>
      </trkpt>
      <trkpt lat="49.93121" lon="1.54748">
        <ele>122.1</ele>
        <time>2013-06-22T16:58:51Z</time>
      </trkpt>
      <trkpt lat="49.93116" lon="1.54748">
        <ele>122.5</ele>
        <time>2013-06-22T16:58:55Z</time>
      </trkpt>
      <trkpt lat="49.93111" lon="1.54748">
        <ele>122.9</ele>
        <time>2013-06-22T16:58:59Z</time>
      </trkpt>
      <trkpt lat="49.93107" lon="1.54749">
        <ele>123.1</ele>
        <time>2013-06-22T16:59:02Z</time>
      </trkpt>
      <trkpt lat="49.93102" lon="1.54749">
        <ele>123.3</ele>
        <time>2013-06-22T16:59:06Z</time>
      </trkpt>
      <trkpt lat="49.93097" lon="1.54751">
        <ele>123.6</ele>
        <time>2013-06-22T16:59:10Z</time>
      </trkpt>
      <trkpt lat="49.93091" lon="1.5475">
        <ele>123.7</ele>
        <time>2013-06-22T16:59:14Z</time>
      </trkpt>
      <trkpt lat="49.93086" lon="1.54749">
        <ele>123.9</ele>
        <time>2013-06-22T16:59:18Z</time>
      </trkpt>
      <trkpt lat="49.93077" lon="1.5475">
        <ele>124.5</ele>
        <time>2013-06-22T16:59:25Z</time>
      </trkpt>
      <trkpt lat="49.93068" lon="1.5475">
        <ele>125.2</ele>
        <time>2013-06-22T16:59:33Z</time>
      </trkpt>
      <trkpt lat="49.93062" lon="1.54749">
        <ele>125.4</ele>
        <time>2013-06-22T16:59:38Z</time>
      </trkpt>
      <trkpt lat="49.93057" lon="1.5475">
        <ele>125.9</ele>
        <time>2013-06-22T16:59:43Z</time>
      </trkpt>
      <trkpt lat="49.93052" lon="1.54751">
        <ele>126.4</ele>
        <time>2013-06-22T16:59:47Z</time>
      </trkpt>
      <trkpt lat="49.93042" lon="1.54751">
        <ele>127.1</ele>
        <time>2013-06-22T16:59:54Z</time>
      </trkpt>
      <trkpt lat="49.93037" lon="1.54751">
        <ele>127.4</ele>
        <time>2013-06-22T16:59:58Z</time>
      </trkpt>
      <trkpt lat="49.93032" lon="1.54752">
        <ele>127.9</ele>
        <time>2013-06-22T17:00:02Z</time>
      </trkpt>
      <trkpt lat="49.93023" lon="1.54752">
        <ele>128.6</ele>
        <time>2013-06-22T17:00:09Z</time>
      </trkpt>
      <trkpt lat="49.93017" lon="1.54752">
        <ele>129</ele>
        <time>2013-06-22T17:00:14Z</time>
      </trkpt>
      <trkpt lat="49.93012" lon="1.54753">
        <ele>129.4</ele>
        <time>2013-06-22T17:00:18Z</time>
      </trkpt>
      <trkpt lat="49.93002" lon="1.54754">
        <ele>130.3</ele>
        <time>2013-06-22T17:00:25Z</time>
      </trkpt>
      <trkpt lat="49.92997" lon="1.54754">
        <ele>130.6</ele>
        <time>2013-06-22T17:00:29Z</time>
      </trkpt>
      <trkpt lat="49.92992" lon="1.54753">
        <ele>130.6</ele>
        <time>2013-06-22T17:00:33Z</time>
      </trkpt>
      <trkpt lat="49.92987" lon="1.54753">
        <ele>130.7</ele>
        <time>2013-06-22T17:00:37Z</time>
      </trkpt>
      <trkpt lat="49.92982" lon="1.54752">
        <ele>130.8</ele>
        <time>2013-06-22T17:00:41Z</time>
      </trkpt>
      <trkpt lat="49.92972" lon="1.54749">
        <ele>130.9</ele>
        <time>2013-06-22T17:00:48Z</time>
      </trkpt>
      <trkpt lat="49.92967" lon="1.54749">
        <ele>131.2</ele>
        <time>2013-06-22T17:00:52Z</time>
      </trkpt>
      <trkpt lat="49.92962" lon="1.54747">
        <ele>131.4</ele>
        <time>2013-06-22T17:00:56Z</time>
      </trkpt>
      <trkpt lat="49.92954" lon="1.54741">
        <ele>131.4</ele>
        <time>2013-06-22T17:01:05Z</time>
      </trkpt>
      <trkpt lat="49.92949" lon="1.5474">
        <ele>131.5</ele>
        <time>2013-06-22T17:01:09Z</time>
      </trkpt>
      <trkpt lat="49.92943" lon="1.54738">
        <ele>131.7</ele>
        <time>2013-06-22T17:01:14Z</time>
      </trkpt>
      <trkpt lat="49.92938" lon="1.54737">
        <ele>131.9</ele>
        <time>2013-06-22T17:01:17Z</time>
      </trkpt>
      <trkpt lat="49.92933" lon="1.54736">
        <ele>132.1</ele>
        <time>2013-06-22T17:01:20Z</time>
      </trkpt>
      <trkpt lat="49.92927" lon="1.54733">
        <ele>132</ele>
        <time>2013-06-22T17:01:23Z</time>
      </trkpt>
      <trkpt lat="49.92923" lon="1.5473">
        <ele>131.9</ele>
        <time>2013-06-22T17:01:27Z</time>
      </trkpt>
      <trkpt lat="49.92914" lon="1.54726">
        <ele>131.7</ele>
        <time>2013-06-22T17:01:34Z</time>
      </trkpt>
      <trkpt lat="49.92909" lon="1.54724">
        <ele>131.8</ele>
        <time>2013-06-22T17:01:40Z</time>
      </trkpt>
      <trkpt lat="49.92903" lon="1.54723">
        <ele>132.1</ele>
        <time>2013-06-22T17:01:45Z</time>
      </trkpt>
      <trkpt lat="49.92898" lon="1.54721">
        <ele>132.2</ele>
        <time>2013-06-22T17:01:51Z</time>
      </trkpt>
      <trkpt lat="49.92894" lon="1.5472">
        <ele>132.4</ele>
        <time>2013-06-22T17:01:56Z</time>
      </trkpt>
      <trkpt lat="49.9289" lon="1.54715">
        <ele>132.2</ele>
        <time>2013-06-22T17:02:01Z</time>
      </trkpt>
      <trkpt lat="49.92885" lon="1.54713">
        <ele>132.2</ele>
        <time>2013-06-22T17:02:06Z</time>
      </trkpt>
      <trkpt lat="49.92881" lon="1.54711">
        <ele>132.3</ele>
        <time>2013-06-22T17:02:09Z</time>
      </trkpt>
      <trkpt lat="49.92876" lon="1.54707">
        <ele>132.4</ele>
        <time>2013-06-22T17:02:14Z</time>
      </trkpt>
      <trkpt lat="49.9287" lon="1.54705">
        <ele>132.5</ele>
        <time>2013-06-22T17:02:18Z</time>
      </trkpt>
      <trkpt lat="49.92865" lon="1.54703">
        <ele>132.6</ele>
        <time>2013-06-22T17:02:23Z</time>
      </trkpt>
      <trkpt lat="49.92856" lon="1.547">
        <ele>133</ele>
        <time>2013-06-22T17:02:30Z</time>
      </trkpt>
      <trkpt lat="49.92852" lon="1.54697">
        <ele>133</ele>
        <time>2013-06-22T17:02:33Z</time>
      </trkpt>
      <trkpt lat="49.92847" lon="1.54694">
        <ele>132.9</ele>
        <time>2013-06-22T17:02:37Z</time>
      </trkpt>
      <trkpt lat="49.92843" lon="1.5469">
        <ele>132.8</ele>
        <time>2013-06-22T17:02:41Z</time>
      </trkpt>
      <trkpt lat="49.92838" lon="1.54688">
        <ele>133</ele>
        <time>2013-06-22T17:02:45Z</time>
      </trkpt>
      <trkpt lat="49.92834" lon="1.54685">
        <ele>133</ele>
        <time>2013-06-22T17:02:50Z</time>
      </trkpt>
      <trkpt lat="49.92829" lon="1.54682">
        <ele>132.9</ele>
        <time>2013-06-22T17:02:53Z</time>
      </trkpt>
      <trkpt lat="49.92825" lon="1.54677">
        <ele>132.7</ele>
        <time>2013-06-22T17:02:57Z</time>
      </trkpt>
      <trkpt lat="49.92817" lon="1.54668">
        <ele>132.3</ele>
        <time>2013-06-22T17:03:04Z</time>
      </trkpt>
      <trkpt lat="49.92813" lon="1.54664">
        <ele>132.4</ele>
        <time>2013-06-22T17:03:08Z</time>
      </trkpt>
      <trkpt lat="49.92808" lon="1.54659">
        <ele>132.5</ele>
        <time>2013-06-22T17:03:13Z</time>
      </trkpt>
      <trkpt lat="49.92804" lon="1.54656">
        <ele>132.7</ele>
        <time>2013-06-22T17:03:17Z</time>
      </trkpt>
      <trkpt lat="49.92796" lon="1.5465">
        <ele>132.9</ele>
        <time>2013-06-22T17:03:24Z</time>
      </trkpt>
      <trkpt lat="49.9279" lon="1.54647">
        <ele>133</ele>
        <time>2013-06-22T17:03:28Z</time>
      </trkpt>
      <trkpt lat="49.92785" lon="1.54646">
        <ele>133.2</ele>
        <time>2013-06-22T17:03:32Z</time>
      </trkpt>
      <trkpt lat="49.92781" lon="1.54642">
        <ele>133.1</ele>
        <time>2013-06-22T17:03:36Z</time>
      </trkpt>
      <trkpt lat="49.92776" lon="1.54641">
        <ele>133.3</ele>
        <time>2013-06-22T17:03:40Z</time>
      </trkpt>
      <trkpt lat="49.9277" lon="1.54641">
        <ele>133.7</ele>
        <time>2013-06-22T17:03:44Z</time>
      </trkpt>
      <trkpt lat="49.92765" lon="1.54639">
        <ele>133.9</ele>
        <time>2013-06-22T17:03:47Z</time>
      </trkpt>
      <trkpt lat="49.9276" lon="1.54637">
        <ele>134.3</ele>
        <time>2013-06-22T17:03:51Z</time>
      </trkpt>
      <trkpt lat="49.92756" lon="1.54634">
        <ele>134.6</ele>
        <time>2013-06-22T17:03:59Z</time>
      </trkpt>
      <trkpt lat="49.92751" lon="1.54633">
        <ele>134.9</ele>
        <time>2013-06-22T17:04:03Z</time>
      </trkpt>
      <trkpt lat="49.92747" lon="1.54629">
        <ele>135.2</ele>
        <time>2013-06-22T17:04:08Z</time>
      </trkpt>
      <trkpt lat="49.92742" lon="1.54625">
        <ele>135.4</ele>
        <time>2013-06-22T17:04:12Z</time>
      </trkpt>
      <trkpt lat="49.92735" lon="1.54618">
        <ele>135.7</ele>
        <time>2013-06-22T17:04:22Z</time>
      </trkpt>
      <trkpt lat="49.92731" lon="1.54611">
        <ele>135.7</ele>
        <time>2013-06-22T17:04:27Z</time>
      </trkpt>
      <trkpt lat="49.92728" lon="1.54606">
        <ele>136.2</ele>
        <time>2013-06-22T17:04:30Z</time>
      </trkpt>
      <trkpt lat="49.92724" lon="1.54603">
        <ele>136.5</ele>
        <time>2013-06-22T17:04:35Z</time>
      </trkpt>
      <trkpt lat="49.9272" lon="1.54598">
        <ele>137</ele>
        <time>2013-06-22T17:04:40Z</time>
      </trkpt>
      <trkpt lat="49.92717" lon="1.54592">
        <ele>137.4</ele>
        <time>2013-06-22T17:04:45Z</time>
      </trkpt>
      <trkpt lat="49.92712" lon="1.54587">
        <ele>137.8</ele>
        <time>2013-06-22T17:04:49Z</time>
      </trkpt>
      <trkpt lat="49.92705" lon="1.54581">
        <ele>138.2</ele>
        <time>2013-06-22T17:04:59Z</time>
      </trkpt>
      <trkpt lat="49.92701" lon="1.54576">
        <ele>138.6</ele>
        <time>2013-06-22T17:05:02Z</time>
      </trkpt>
      <trkpt lat="49.92696" lon="1.5457">
        <ele>139</ele>
        <time>2013-06-22T17:05:06Z</time>
      </trkpt>
      <trkpt lat="49.92693" lon="1.54564">
        <ele>139.5</ele>
        <time>2013-06-22T17:05:09Z</time>
      </trkpt>
      <trkpt lat="49.9269" lon="1.54557">
        <ele>140.1</ele>
        <time>2013-06-22T17:05:14Z</time>
      </trkpt>
      <trkpt lat="49.92689" lon="1.54549">
        <ele>140.6</ele>
        <time>2013-06-22T17:05:19Z</time>
      </trkpt>
      <trkpt lat="49.92686" lon="1.54544">
        <ele>141</ele>
        <time>2013-06-22T17:05:25Z</time>
      </trkpt>
      <trkpt lat="49.9268" lon="1.5454">
        <ele>141.3</ele>
        <time>2013-06-22T17:05:29Z</time>
      </trkpt>
      <trkpt lat="49.92677" lon="1.54535">
        <ele>141.6</ele>
        <time>2013-06-22T17:05:33Z</time>
      </trkpt>
      <trkpt lat="49.92675" lon="1.54528">
        <ele>142</ele>
        <time>2013-06-22T17:05:37Z</time>
      </trkpt>
      <trkpt lat="49.92672" lon="1.54522">
        <ele>142.3</ele>
        <time>2013-06-22T17:05:42Z</time>
      </trkpt>
      <trkpt lat="49.92669" lon="1.54514">
        <ele>142.5</ele>
        <time>2013-06-22T17:05:47Z</time>
      </trkpt>
      <trkpt lat="49.92668" lon="1.54507">
        <ele>142.8</ele>
        <time>2013-06-22T17:05:50Z</time>
      </trkpt>
      <trkpt lat="49.92667" lon="1.54499">
        <ele>143.1</ele>
        <time>2013-06-22T17:05:53Z</time>
      </trkpt>
      <trkpt lat="49.92666" lon="1.54491">
        <ele>143.7</ele>
        <time>2013-06-22T17:05:57Z</time>
      </trkpt>
      <trkpt lat="49.92663" lon="1.54484">
        <ele>144.3</ele>
        <time>2013-06-22T17:06:01Z</time>
      </trkpt>
      <trkpt lat="49.92661" lon="1.54477">
        <ele>144.9</ele>
        <time>2013-06-22T17:06:06Z</time>
      </trkpt>
      <trkpt lat="49.92658" lon="1.54469">
        <ele>145.4</ele>
        <time>2013-06-22T17:06:11Z</time>
      </trkpt>
      <trkpt lat="49.92654" lon="1.54462">
        <ele>145.6</ele>
        <time>2013-06-22T17:06:15Z</time>
      </trkpt>
      <trkpt lat="49.92652" lon="1.54456">
        <ele>145.8</ele>
        <time>2013-06-22T17:06:19Z</time>
      </trkpt>
      <trkpt lat="49.92651" lon="1.54449">
        <ele>145.9</ele>
        <time>2013-06-22T17:06:24Z</time>
      </trkpt>
      <trkpt lat="49.9265" lon="1.5444">
        <ele>146.2</ele>
        <time>2013-06-22T17:06:29Z</time>
      </trkpt>
      <trkpt lat="49.92648" lon="1.54433">
        <ele>146.6</ele>
        <time>2013-06-22T17:06:33Z</time>
      </trkpt>
      <trkpt lat="49.92645" lon="1.5442">
        <ele>147.1</ele>
        <time>2013-06-22T17:06:41Z</time>
      </trkpt>
      <trkpt lat="49.92642" lon="1.54414">
        <ele>147.2</ele>
        <time>2013-06-22T17:06:44Z</time>
      </trkpt>
      <trkpt lat="49.92638" lon="1.54401">
        <ele>147.6</ele>
        <time>2013-06-22T17:06:52Z</time>
      </trkpt>
      <trkpt lat="49.92636" lon="1.54393">
        <ele>147.9</ele>
        <time>2013-06-22T17:06:57Z</time>
      </trkpt>
      <trkpt lat="49.92634" lon="1.54386">
        <ele>148.4</ele>
        <time>2013-06-22T17:07:02Z</time>
      </trkpt>
      <trkpt lat="49.92633" lon="1.54378">
        <ele>148.9</ele>
        <time>2013-06-22T17:07:07Z</time>
      </trkpt>
      <trkpt lat="49.92631" lon="1.54371">
        <ele>149.2</ele>
        <time>2013-06-22T17:07:12Z</time>
      </trkpt>
      <trkpt lat="49.92629" lon="1.54363">
        <ele>149.6</ele>
        <time>2013-06-22T17:07:17Z</time>
      </trkpt>
      <trkpt lat="49.92627" lon="1.54356">
        <ele>149.8</ele>
        <time>2013-06-22T17:07:21Z</time>
      </trkpt>
      <trkpt lat="49.92626" lon="1.54348">
        <ele>150</ele>
        <time>2013-06-22T17:07:26Z</time>
      </trkpt>
      <trkpt lat="49.92623" lon="1.5434">
        <ele>150.2</ele>
        <time>2013-06-22T17:07:30Z</time>
      </trkpt>
      <trkpt lat="49.92619" lon="1.54326">
        <ele>150.9</ele>
        <time>2013-06-22T17:07:39Z</time>
      </trkpt>
      <trkpt lat="49.92617" lon="1.54319">
        <ele>151.4</ele>
        <time>2013-06-22T17:07:44Z</time>
      </trkpt>
      <trkpt lat="49.92614" lon="1.54312">
        <ele>151.8</ele>
        <time>2013-06-22T17:07:49Z</time>
      </trkpt>
      <trkpt lat="49.92613" lon="1.54305">
        <ele>152.1</ele>
        <time>2013-06-22T17:07:54Z</time>
      </trkpt>
      <trkpt lat="49.9261" lon="1.54298">
        <ele>152.3</ele>
        <time>2013-06-22T17:07:59Z</time>
      </trkpt>
      <trkpt lat="49.92608" lon="1.54291">
        <ele>152.5</ele>
        <time>2013-06-22T17:08:03Z</time>
      </trkpt>
      <trkpt lat="49.92607" lon="1.54284">
        <ele>152.7</ele>
        <time>2013-06-22T17:08:07Z</time>
      </trkpt>
      <trkpt lat="49.92605" lon="1.54277">
        <ele>152.9</ele>
        <time>2013-06-22T17:08:11Z</time>
      </trkpt>
      <trkpt lat="49.92602" lon="1.54271">
        <ele>153.1</ele>
        <time>2013-06-22T17:08:16Z</time>
      </trkpt>
      <trkpt lat="49.926" lon="1.54264">
        <ele>153.4</ele>
        <time>2013-06-22T17:08:21Z</time>
      </trkpt>
      <trkpt lat="49.92596" lon="1.54258">
        <ele>153.5</ele>
        <time>2013-06-22T17:08:26Z</time>
      </trkpt>
      <trkpt lat="49.92593" lon="1.5425">
        <ele>153.7</ele>
        <time>2013-06-22T17:08:31Z</time>
      </trkpt>
      <trkpt lat="49.92591" lon="1.54242">
        <ele>154.2</ele>
        <time>2013-06-22T17:08:36Z</time>
      </trkpt>
      <trkpt lat="49.92588" lon="1.54235">
        <ele>154.4</ele>
        <time>2013-06-22T17:08:40Z</time>
      </trkpt>
      <trkpt lat="49.92585" lon="1.54229">
        <ele>154.6</ele>
        <time>2013-06-22T17:08:44Z</time>
      </trkpt>
      <trkpt lat="49.92582" lon="1.54223">
        <ele>155</ele>
        <time>2013-06-22T17:08:50Z</time>
      </trkpt>
      <trkpt lat="49.92579" lon="1.54216">
        <ele>155.4</ele>
        <time>2013-06-22T17:08:55Z</time>
      </trkpt>
      <trkpt lat="49.92576" lon="1.54209">
        <ele>155.8</ele>
        <time>2013-06-22T17:08:59Z</time>
      </trkpt>
      <trkpt lat="49.92574" lon="1.54202">
        <ele>156.2</ele>
        <time>2013-06-22T17:09:04Z</time>
      </trkpt>
      <trkpt lat="49.9257" lon="1.54189">
        <ele>157</ele>
        <time>2013-06-22T17:09:13Z</time>
      </trkpt>
      <trkpt lat="49.92566" lon="1.54183">
        <ele>157.3</ele>
        <time>2013-06-22T17:09:17Z</time>
      </trkpt>
      <trkpt lat="49.9256" lon="1.54171">
        <ele>158</ele>
        <time>2013-06-22T17:09:26Z</time>
      </trkpt>
      <trkpt lat="49.92557" lon="1.54164">
        <ele>158.2</ele>
        <time>2013-06-22T17:09:31Z</time>
      </trkpt>
      <trkpt lat="49.92554" lon="1.54158">
        <ele>158.3</ele>
        <time>2013-06-22T17:09:35Z</time>
      </trkpt>
      <trkpt lat="49.9255" lon="1.54151">
        <ele>158.5</ele>
        <time>2013-06-22T17:09:40Z</time>
      </trkpt>
      <trkpt lat="49.92549" lon="1.54143">
        <ele>158.7</ele>
        <time>2013-06-22T17:09:45Z</time>
      </trkpt>
      <trkpt lat="49.92544" lon="1.5413">
        <ele>159.3</ele>
        <time>2013-06-22T17:09:54Z</time>
      </trkpt>
      <trkpt lat="49.9254" lon="1.54126">
        <ele>159.3</ele>
        <time>2013-06-22T17:09:58Z</time>
      </trkpt>
      <trkpt lat="49.92537" lon="1.5412">
        <ele>159.5</ele>
        <time>2013-06-22T17:10:03Z</time>
      </trkpt>
      <trkpt lat="49.92535" lon="1.54114">
        <ele>159.6</ele>
        <time>2013-06-22T17:10:07Z</time>
      </trkpt>
      <trkpt lat="49.92531" lon="1.54107">
        <ele>159.5</ele>
        <time>2013-06-22T17:10:12Z</time>
      </trkpt>
      <trkpt lat="49.92529" lon="1.541">
        <ele>159.5</ele>
        <time>2013-06-22T17:10:16Z</time>
      </trkpt>
      <trkpt lat="49.92527" lon="1.54093">
        <ele>159.7</ele>
        <time>2013-06-22T17:10:21Z</time>
      </trkpt>
      <trkpt lat="49.92524" lon="1.54086">
        <ele>159.9</ele>
        <time>2013-06-22T17:10:26Z</time>
      </trkpt>
      <trkpt lat="49.92522" lon="1.5408">
        <ele>160.3</ele>
        <time>2013-06-22T17:10:30Z</time>
      </trkpt>
      <trkpt lat="49.92519" lon="1.54074">
        <ele>160.7</ele>
        <time>2013-06-22T17:10:34Z</time>
      </trkpt>
      <trkpt lat="49.92516" lon="1.54067">
        <ele>161</ele>
        <time>2013-06-22T17:10:38Z</time>
      </trkpt>
      <trkpt lat="49.92513" lon="1.54062">
        <ele>161.1</ele>
        <time>2013-06-22T17:10:42Z</time>
      </trkpt>
      <trkpt lat="49.92511" lon="1.54055">
        <ele>161.2</ele>
        <time>2013-06-22T17:10:48Z</time>
      </trkpt>
      <trkpt lat="49.92508" lon="1.54047">
        <ele>161.4</ele>
        <time>2013-06-22T17:10:52Z</time>
      </trkpt>
      <trkpt lat="49.92505" lon="1.5404">
        <ele>161.6</ele>
        <time>2013-06-22T17:10:57Z</time>
      </trkpt>
      <trkpt lat="49.92502" lon="1.54033">
        <ele>161.8</ele>
        <time>2013-06-22T17:11:01Z</time>
      </trkpt>
      <trkpt lat="49.925" lon="1.54026">
        <ele>162.2</ele>
        <time>2013-06-22T17:11:06Z</time>
      </trkpt>
      <trkpt lat="49.92494" lon="1.54016">
        <ele>162.9</ele>
        <time>2013-06-22T17:11:13Z</time>
      </trkpt>
      <trkpt lat="49.92489" lon="1.54012">
        <ele>163.1</ele>
        <time>2013-06-22T17:11:16Z</time>
      </trkpt>
      <trkpt lat="49.92485" lon="1.54007">
        <ele>163.2</ele>
        <time>2013-06-22T17:11:20Z</time>
      </trkpt>
      <trkpt lat="49.92482" lon="1.54002">
        <ele>163.3</ele>
        <time>2013-06-22T17:11:24Z</time>
      </trkpt>
      <trkpt lat="49.92479" lon="1.53995">
        <ele>163.3</ele>
        <time>2013-06-22T17:11:29Z</time>
      </trkpt>
      <trkpt lat="49.92477" lon="1.53988">
        <ele>163.3</ele>
        <time>2013-06-22T17:11:34Z</time>
      </trkpt>
      <trkpt lat="49.92474" lon="1.53979">
        <ele>163.2</ele>
        <time>2013-06-22T17:11:39Z</time>
      </trkpt>
      <trkpt lat="49.92473" lon="1.53972">
        <ele>163.1</ele>
        <time>2013-06-22T17:11:43Z</time>
      </trkpt>
      <trkpt lat="49.92472" lon="1.53965">
        <ele>163.3</ele>
        <time>2013-06-22T17:11:48Z</time>
      </trkpt>
      <trkpt lat="49.92471" lon="1.53957">
        <ele>163.6</ele>
        <time>2013-06-22T17:11:55Z</time>
      </trkpt>
      <trkpt lat="49.9247" lon="1.53949">
        <ele>163.8</ele>
        <time>2013-06-22T17:12:00Z</time>
      </trkpt>
      <trkpt lat="49.92469" lon="1.53941">
        <ele>164.3</ele>
        <time>2013-06-22T17:12:05Z</time>
      </trkpt>
      <trkpt lat="49.92466" lon="1.53926">
        <ele>165.5</ele>
        <time>2013-06-22T17:12:14Z</time>
      </trkpt>
      <trkpt lat="49.92465" lon="1.53918">
        <ele>166.1</ele>
        <time>2013-06-22T17:12:19Z</time>
      </trkpt>
      <trkpt lat="49.92463" lon="1.53912">
        <ele>166.4</ele>
        <time>2013-06-22T17:12:24Z</time>
      </trkpt>
      <trkpt lat="49.92464" lon="1.53911">
        <ele>166.6</ele>
        <time>2013-06-22T17:12:44Z</time>
      </trkpt>
      <trkpt lat="49.92462" lon="1.53904">
        <ele>166.8</ele>
        <time>2013-06-22T17:12:54Z</time>
      </trkpt>
      <trkpt lat="49.9246" lon="1.53896">
        <ele>167.2</ele>
        <time>2013-06-22T17:12:59Z</time>
      </trkpt>
      <trkpt lat="49.92459" lon="1.53887">
        <ele>167.7</ele>
        <time>2013-06-22T17:13:04Z</time>
      </trkpt>
      <trkpt lat="49.92458" lon="1.5388">
        <ele>168.3</ele>
        <time>2013-06-22T17:13:08Z</time>
      </trkpt>
      <trkpt lat="49.92456" lon="1.53872">
        <ele>168.7</ele>
        <time>2013-06-22T17:13:13Z</time>
      </trkpt>
      <trkpt lat="49.92454" lon="1.53864">
        <ele>169.1</ele>
        <time>2013-06-22T17:13:18Z</time>
      </trkpt>
      <trkpt lat="49.92452" lon="1.53857">
        <ele>169.4</ele>
        <time>2013-06-22T17:13:23Z</time>
      </trkpt>
      <trkpt lat="49.9245" lon="1.5385">
        <ele>169.7</ele>
        <time>2013-06-22T17:13:28Z</time>
      </trkpt>
      <trkpt lat="49.92445" lon="1.53837">
        <ele>169.9</ele>
        <time>2013-06-22T17:13:39Z</time>
      </trkpt>
      <trkpt lat="49.92443" lon="1.5383">
        <ele>170.3</ele>
        <time>2013-06-22T17:13:45Z</time>
      </trkpt>
      <trkpt lat="49.92441" lon="1.53823">
        <ele>170.7</ele>
        <time>2013-06-22T17:13:50Z</time>
      </trkpt>
      <trkpt lat="49.92441" lon="1.53815">
        <ele>171.2</ele>
        <time>2013-06-22T17:13:56Z</time>
      </trkpt>
      <trkpt lat="49.92439" lon="1.53807">
        <ele>171.7</ele>
        <time>2013-06-22T17:14:01Z</time>
      </trkpt>
      <trkpt lat="49.92437" lon="1.53799">
        <ele>172.4</ele>
        <time>2013-06-22T17:14:06Z</time>
      </trkpt>
      <trkpt lat="49.92434" lon="1.53794">
        <ele>172.7</ele>
        <time>2013-06-22T17:14:11Z</time>
      </trkpt>
      <trkpt lat="49.92432" lon="1.53786">
        <ele>173.4</ele>
        <time>2013-06-22T17:14:22Z</time>
      </trkpt>
      <trkpt lat="49.9243" lon="1.53779">
        <ele>173.8</ele>
        <time>2013-06-22T17:14:28Z</time>
      </trkpt>
      <trkpt lat="49.92427" lon="1.53772">
        <ele>174.3</ele>
        <time>2013-06-22T17:14:32Z</time>
      </trkpt>
      <trkpt lat="49.92423" lon="1.53758">
        <ele>175</ele>
        <time>2013-06-22T17:14:41Z</time>
      </trkpt>
      <trkpt lat="49.92421" lon="1.53751">
        <ele>175.4</ele>
        <time>2013-06-22T17:14:46Z</time>
      </trkpt>
      <trkpt lat="49.92418" lon="1.53744">
        <ele>175.6</ele>
        <time>2013-06-22T17:14:51Z</time>
      </trkpt>
      <trkpt lat="49.92414" lon="1.53737">
        <ele>176</ele>
        <time>2013-06-22T17:14:57Z</time>
      </trkpt>
      <trkpt lat="49.92411" lon="1.53731">
        <ele>176.5</ele>
        <time>2013-06-22T17:15:03Z</time>
      </trkpt>
      <trkpt lat="49.92409" lon="1.53717">
        <ele>177.3</ele>
        <time>2013-06-22T17:15:13Z</time>
      </trkpt>
      <trkpt lat="49.92408" lon="1.53709">
        <ele>177.8</ele>
        <time>2013-06-22T17:15:18Z</time>
      </trkpt>
      <trkpt lat="49.92406" lon="1.53702">
        <ele>178.2</ele>
        <time>2013-06-22T17:15:22Z</time>
      </trkpt>
      <trkpt lat="49.92402" lon="1.53696">
        <ele>178.4</ele>
        <time>2013-06-22T17:15:27Z</time>
      </trkpt>
      <trkpt lat="49.924" lon="1.53689">
        <ele>178.7</ele>
        <time>2013-06-22T17:15:32Z</time>
      </trkpt>
      <trkpt lat="49.92397" lon="1.53683">
        <ele>179</ele>
        <time>2013-06-22T17:15:36Z</time>
      </trkpt>
      <trkpt lat="49.92396" lon="1.53675">
        <ele>179.3</ele>
        <time>2013-06-22T17:15:41Z</time>
      </trkpt>
      <trkpt lat="49.92394" lon="1.53669">
        <ele>179.4</ele>
        <time>2013-06-22T17:15:46Z</time>
      </trkpt>
      <trkpt lat="49.92393" lon="1.53662">
        <ele>179.8</ele>
        <time>2013-06-22T17:15:51Z</time>
      </trkpt>
      <trkpt lat="49.92391" lon="1.53656">
        <ele>180</ele>
        <time>2013-06-22T17:15:55Z</time>
      </trkpt>
      <trkpt lat="49.92389" lon="1.53648">
        <ele>180.3</ele>
        <time>2013-06-22T17:16:00Z</time>
      </trkpt>
      <trkpt lat="49.92387" lon="1.5364">
        <ele>180.9</ele>
        <time>2013-06-22T17:16:05Z</time>
      </trkpt>
      <trkpt lat="49.92387" lon="1.53633">
        <ele>181.2</ele>
        <time>2013-06-22T17:16:09Z</time>
      </trkpt>
      <trkpt lat="49.92385" lon="1.53625">
        <ele>181.4</ele>
        <time>2013-06-22T17:16:14Z</time>
      </trkpt>
      <trkpt lat="49.92384" lon="1.53618">
        <ele>181.6</ele>
        <time>2013-06-22T17:16:18Z</time>
      </trkpt>
      <trkpt lat="49.92382" lon="1.5361">
        <ele>181.8</ele>
        <time>2013-06-22T17:16:24Z</time>
      </trkpt>
      <trkpt lat="49.9238" lon="1.53603">
        <ele>182.1</ele>
        <time>2013-06-22T17:16:29Z</time>
      </trkpt>
      <trkpt lat="49.92378" lon="1.53596">
        <ele>182.5</ele>
        <time>2013-06-22T17:16:33Z</time>
      </trkpt>
      <trkpt lat="49.92377" lon="1.53588">
        <ele>182.9</ele>
        <time>2013-06-22T17:16:38Z</time>
      </trkpt>
      <trkpt lat="49.92376" lon="1.53581">
        <ele>183.2</ele>
        <time>2013-06-22T17:16:43Z</time>
      </trkpt>
      <trkpt lat="49.92373" lon="1.53573">
        <ele>183.4</ele>
        <time>2013-06-22T17:16:49Z</time>
      </trkpt>
      <trkpt lat="49.92369" lon="1.5356">
        <ele>183.7</ele>
        <time>2013-06-22T17:16:59Z</time>
      </trkpt>
      <trkpt lat="49.92368" lon="1.53552">
        <ele>184</ele>
        <time>2013-06-22T17:17:04Z</time>
      </trkpt>
      <trkpt lat="49.92367" lon="1.53544">
        <ele>184.4</ele>
        <time>2013-06-22T17:17:09Z</time>
      </trkpt>
      <trkpt lat="49.92365" lon="1.53537">
        <ele>184.8</ele>
        <time>2013-06-22T17:17:13Z</time>
      </trkpt>
      <trkpt lat="49.92364" lon="1.53529">
        <ele>185.2</ele>
        <time>2013-06-22T17:17:17Z</time>
      </trkpt>
      <trkpt lat="49.92362" lon="1.53522">
        <ele>185.3</ele>
        <time>2013-06-22T17:17:21Z</time>
      </trkpt>
      <trkpt lat="49.92361" lon="1.53514">
        <ele>185.5</ele>
        <time>2013-06-22T17:17:27Z</time>
      </trkpt>
      <trkpt lat="49.92359" lon="1.53507">
        <ele>185.7</ele>
        <time>2013-06-22T17:17:33Z</time>
      </trkpt>
      <trkpt lat="49.92357" lon="1.53499">
        <ele>185.9</ele>
        <time>2013-06-22T17:17:38Z</time>
      </trkpt>
      <trkpt lat="49.92356" lon="1.53491">
        <ele>186.4</ele>
        <time>2013-06-22T17:17:43Z</time>
      </trkpt>
      <trkpt lat="49.92354" lon="1.53484">
        <ele>186.8</ele>
        <time>2013-06-22T17:17:48Z</time>
      </trkpt>
      <trkpt lat="49.9235" lon="1.53471">
        <ele>187.3</ele>
        <time>2013-06-22T17:17:57Z</time>
      </trkpt>
      <trkpt lat="49.92349" lon="1.53464">
        <ele>187.7</ele>
        <time>2013-06-22T17:18:02Z</time>
      </trkpt>
      <trkpt lat="49.92346" lon="1.53458">
        <ele>188</ele>
        <time>2013-06-22T17:18:07Z</time>
      </trkpt>
      <trkpt lat="49.92344" lon="1.53451">
        <ele>188.3</ele>
        <time>2013-06-22T17:18:12Z</time>
      </trkpt>
      <trkpt lat="49.92342" lon="1.53442">
        <ele>188.8</ele>
        <time>2013-06-22T17:18:17Z</time>
      </trkpt>
      <trkpt lat="49.92342" lon="1.53433">
        <ele>189.4</ele>
        <time>2013-06-22T17:18:21Z</time>
      </trkpt>
      <trkpt lat="49.92341" lon="1.53425">
        <ele>190</ele>
        <time>2013-06-22T17:18:26Z</time>
      </trkpt>
      <trkpt lat="49.9234" lon="1.53417">
        <ele>190.5</ele>
        <time>2013-06-22T17:18:30Z</time>
      </trkpt>
      <trkpt lat="49.9234" lon="1.5341">
        <ele>191</ele>
        <time>2013-06-22T17:18:34Z</time>
      </trkpt>
      <trkpt lat="49.92339" lon="1.53402">
        <ele>191.5</ele>
        <time>2013-06-22T17:18:38Z</time>
      </trkpt>
      <trkpt lat="49.92341" lon="1.53387">
        <ele>192.6</ele>
        <time>2013-06-22T17:18:48Z</time>
      </trkpt>
      <trkpt lat="49.9234" lon="1.53379">
        <ele>192.8</ele>
        <time>2013-06-22T17:18:53Z</time>
      </trkpt>
      <trkpt lat="49.92338" lon="1.53371">
        <ele>193</ele>
        <time>2013-06-22T17:18:57Z</time>
      </trkpt>
      <trkpt lat="49.92337" lon="1.53363">
        <ele>193.2</ele>
        <time>2013-06-22T17:19:01Z</time>
      </trkpt>
      <trkpt lat="49.92338" lon="1.53355">
        <ele>193.7</ele>
        <time>2013-06-22T17:19:06Z</time>
      </trkpt>
      <trkpt lat="49.92337" lon="1.53348">
        <ele>194.2</ele>
        <time>2013-06-22T17:19:11Z</time>
      </trkpt>
      <trkpt lat="49.92337" lon="1.5334">
        <ele>194.7</ele>
        <time>2013-06-22T17:19:16Z</time>
      </trkpt>
      <trkpt lat="49.92337" lon="1.53333">
        <ele>195.1</ele>
        <time>2013-06-22T17:19:22Z</time>
      </trkpt>
      <trkpt lat="49.92335" lon="1.53325">
        <ele>195.4</ele>
        <time>2013-06-22T17:19:28Z</time>
      </trkpt>
      <trkpt lat="49.92332" lon="1.53317">
        <ele>195.6</ele>
        <time>2013-06-22T17:19:32Z</time>
      </trkpt>
      <trkpt lat="49.92329" lon="1.5331">
        <ele>195.8</ele>
        <time>2013-06-22T17:19:38Z</time>
      </trkpt>
      <trkpt lat="49.92326" lon="1.53303">
        <ele>196.1</ele>
        <time>2013-06-22T17:19:43Z</time>
      </trkpt>
      <trkpt lat="49.92324" lon="1.53296">
        <ele>196.3</ele>
        <time>2013-06-22T17:19:48Z</time>
      </trkpt>
      <trkpt lat="49.92322" lon="1.53289">
        <ele>196.6</ele>
        <time>2013-06-22T17:19:52Z</time>
      </trkpt>
      <trkpt lat="49.92319" lon="1.53282">
        <ele>196.8</ele>
        <time>2013-06-22T17:19:56Z</time>
      </trkpt>
      <trkpt lat="49.92317" lon="1.53275">
        <ele>197.1</ele>
        <time>2013-06-22T17:20:01Z</time>
      </trkpt>
      <trkpt lat="49.92314" lon="1.5326">
        <ele>197.7</ele>
        <time>2013-06-22T17:20:09Z</time>
      </trkpt>
      <trkpt lat="49.92313" lon="1.53251">
        <ele>198</ele>
        <time>2013-06-22T17:20:13Z</time>
      </trkpt>
      <trkpt lat="49.92311" lon="1.53244">
        <ele>198.2</ele>
        <time>2013-06-22T17:20:18Z</time>
      </trkpt>
      <trkpt lat="49.9231" lon="1.53236">
        <ele>198.5</ele>
        <time>2013-06-22T17:20:22Z</time>
      </trkpt>
      <trkpt lat="49.92307" lon="1.53229">
        <ele>198.7</ele>
        <time>2013-06-22T17:20:26Z</time>
      </trkpt>
      <trkpt lat="49.92306" lon="1.53222">
        <ele>199</ele>
        <time>2013-06-22T17:20:30Z</time>
      </trkpt>
      <trkpt lat="49.92304" lon="1.53214">
        <ele>199</ele>
        <time>2013-06-22T17:20:34Z</time>
      </trkpt>
      <trkpt lat="49.92303" lon="1.53205">
        <ele>199</ele>
        <time>2013-06-22T17:20:39Z</time>
      </trkpt>
      <trkpt lat="49.92304" lon="1.53197">
        <ele>199.1</ele>
        <time>2013-06-22T17:20:43Z</time>
      </trkpt>
      <trkpt lat="49.92305" lon="1.5319">
        <ele>199.2</ele>
        <time>2013-06-22T17:20:46Z</time>
      </trkpt>
      <trkpt lat="49.92305" lon="1.53181">
        <ele>199.5</ele>
        <time>2013-06-22T17:20:50Z</time>
      </trkpt>
      <trkpt lat="49.92306" lon="1.53173">
        <ele>199.8</ele>
        <time>2013-06-22T17:20:54Z</time>
      </trkpt>
      <trkpt lat="49.92307" lon="1.53164">
        <ele>200.1</ele>
        <time>2013-06-22T17:20:58Z</time>
      </trkpt>
      <trkpt lat="49.92309" lon="1.53156">
        <ele>200.4</ele>
        <time>2013-06-22T17:21:03Z</time>
      </trkpt>
      <trkpt lat="49.92311" lon="1.53148">
        <ele>200.7</ele>
        <time>2013-06-22T17:21:07Z</time>
      </trkpt>
      <trkpt lat="49.92311" lon="1.5314">
        <ele>201</ele>
        <time>2013-06-22T17:21:12Z</time>
      </trkpt>
      <trkpt lat="49.92311" lon="1.53131">
        <ele>201.2</ele>
        <time>2013-06-22T17:21:17Z</time>
      </trkpt>
      <trkpt lat="49.92311" lon="1.53123">
        <ele>201.5</ele>
        <time>2013-06-22T17:21:22Z</time>
      </trkpt>
      <trkpt lat="49.92313" lon="1.53117">
        <ele>201.6</ele>
        <time>2013-06-22T17:21:26Z</time>
      </trkpt>
      <trkpt lat="49.92316" lon="1.53112">
        <ele>201.6</ele>
        <time>2013-06-22T17:21:31Z</time>
      </trkpt>
      <trkpt lat="49.92321" lon="1.53111">
        <ele>201.4</ele>
        <time>2013-06-22T17:21:36Z</time>
      </trkpt>
      <trkpt lat="49.92324" lon="1.53103">
        <ele>201.5</ele>
        <time>2013-06-22T17:21:40Z</time>
      </trkpt>
      <trkpt lat="49.92326" lon="1.53096">
        <ele>201.7</ele>
        <time>2013-06-22T17:21:45Z</time>
      </trkpt>
      <trkpt lat="49.9233" lon="1.53091">
        <ele>201.8</ele>
        <time>2013-06-22T17:21:50Z</time>
      </trkpt>
      <trkpt lat="49.92333" lon="1.53085">
        <ele>201.9</ele>
        <time>2013-06-22T17:21:55Z</time>
      </trkpt>
      <trkpt lat="49.92336" lon="1.53078">
        <ele>201.9</ele>
        <time>2013-06-22T17:22:00Z</time>
      </trkpt>
      <trkpt lat="49.92339" lon="1.53071">
        <ele>201.9</ele>
        <time>2013-06-22T17:22:05Z</time>
      </trkpt>
      <trkpt lat="49.92342" lon="1.53065">
        <ele>201.9</ele>
        <time>2013-06-22T17:22:09Z</time>
      </trkpt>
      <trkpt lat="49.92348" lon="1.53053">
        <ele>202</ele>
        <time>2013-06-22T17:22:18Z</time>
      </trkpt>
      <trkpt lat="49.92351" lon="1.53047">
        <ele>202.1</ele>
        <time>2013-06-22T17:22:22Z</time>
      </trkpt>
      <trkpt lat="49.92354" lon="1.53041">
        <ele>202.1</ele>
        <time>2013-06-22T17:22:26Z</time>
      </trkpt>
      <trkpt lat="49.92358" lon="1.53037">
        <ele>202.1</ele>
        <time>2013-06-22T17:22:31Z</time>
      </trkpt>
      <trkpt lat="49.92361" lon="1.53031">
        <ele>202</ele>
        <time>2013-06-22T17:22:35Z</time>
      </trkpt>
      <trkpt lat="49.92365" lon="1.53026">
        <ele>202.1</ele>
        <time>2013-06-22T17:22:41Z</time>
      </trkpt>
      <trkpt lat="49.92369" lon="1.5302">
        <ele>202.2</ele>
        <time>2013-06-22T17:22:46Z</time>
      </trkpt>
      <trkpt lat="49.92375" lon="1.5301">
        <ele>202.3</ele>
        <time>2013-06-22T17:22:54Z</time>
      </trkpt>
      <trkpt lat="49.92379" lon="1.53004">
        <ele>202.3</ele>
        <time>2013-06-22T17:22:59Z</time>
      </trkpt>
      <trkpt lat="49.92382" lon="1.52998">
        <ele>202.3</ele>
        <time>2013-06-22T17:23:03Z</time>
      </trkpt>
      <trkpt lat="49.92385" lon="1.52992">
        <ele>202.4</ele>
        <time>2013-06-22T17:23:07Z</time>
      </trkpt>
      <trkpt lat="49.92388" lon="1.52986">
        <ele>202.5</ele>
        <time>2013-06-22T17:23:12Z</time>
      </trkpt>
      <trkpt lat="49.92392" lon="1.52981">
        <ele>202.6</ele>
        <time>2013-06-22T17:23:17Z</time>
      </trkpt>
      <trkpt lat="49.92395" lon="1.52974">
        <ele>202.7</ele>
        <time>2013-06-22T17:23:22Z</time>
      </trkpt>
      <trkpt lat="49.92398" lon="1.52968">
        <ele>202.7</ele>
        <time>2013-06-22T17:23:26Z</time>
      </trkpt>
      <trkpt lat="49.92403" lon="1.52955">
        <ele>202.5</ele>
        <time>2013-06-22T17:23:35Z</time>
      </trkpt>
      <trkpt lat="49.92407" lon="1.52949">
        <ele>202.4</ele>
        <time>2013-06-22T17:23:39Z</time>
      </trkpt>
      <trkpt lat="49.9241" lon="1.52942">
        <ele>202.3</ele>
        <time>2013-06-22T17:23:44Z</time>
      </trkpt>
      <trkpt lat="49.92417" lon="1.5293">
        <ele>202.5</ele>
        <time>2013-06-22T17:23:53Z</time>
      </trkpt>
      <trkpt lat="49.9242" lon="1.52924">
        <ele>202.6</ele>
        <time>2013-06-22T17:23:57Z</time>
      </trkpt>
      <trkpt lat="49.92423" lon="1.52918">
        <ele>202.7</ele>
        <time>2013-06-22T17:24:02Z</time>
      </trkpt>
      <trkpt lat="49.92426" lon="1.52912">
        <ele>202.7</ele>
        <time>2013-06-22T17:24:06Z</time>
      </trkpt>
      <trkpt lat="49.9243" lon="1.52905">
        <ele>202.5</ele>
        <time>2013-06-22T17:24:11Z</time>
      </trkpt>
      <trkpt lat="49.92433" lon="1.52899">
        <ele>202.4</ele>
        <time>2013-06-22T17:24:15Z</time>
      </trkpt>
      <trkpt lat="49.92436" lon="1.52894">
        <ele>202.3</ele>
        <time>2013-06-22T17:24:19Z</time>
      </trkpt>
      <trkpt lat="49.9244" lon="1.52889">
        <ele>202.2</ele>
        <time>2013-06-22T17:24:23Z</time>
      </trkpt>
      <trkpt lat="49.92443" lon="1.52883">
        <ele>202.3</ele>
        <time>2013-06-22T17:24:27Z</time>
      </trkpt>
      <trkpt lat="49.92446" lon="1.52876">
        <ele>202.4</ele>
        <time>2013-06-22T17:24:32Z</time>
      </trkpt>
      <trkpt lat="49.92453" lon="1.52865">
        <ele>202.6</ele>
        <time>2013-06-22T17:24:41Z</time>
      </trkpt>
      <trkpt lat="49.92459" lon="1.52854">
        <ele>202.5</ele>
        <time>2013-06-22T17:24:50Z</time>
      </trkpt>
      <trkpt lat="49.92462" lon="1.52847">
        <ele>202.4</ele>
        <time>2013-06-22T17:24:54Z</time>
      </trkpt>
      <trkpt lat="49.92465" lon="1.52842">
        <ele>202.3</ele>
        <time>2013-06-22T17:24:58Z</time>
      </trkpt>
      <trkpt lat="49.92468" lon="1.52836">
        <ele>202.1</ele>
        <time>2013-06-22T17:25:02Z</time>
      </trkpt>
      <trkpt lat="49.92472" lon="1.52829">
        <ele>202</ele>
        <time>2013-06-22T17:25:07Z</time>
      </trkpt>
      <trkpt lat="49.92476" lon="1.52824">
        <ele>202</ele>
        <time>2013-06-22T17:25:11Z</time>
      </trkpt>
      <trkpt lat="49.92479" lon="1.52819">
        <ele>202</ele>
        <time>2013-06-22T17:25:15Z</time>
      </trkpt>
      <trkpt lat="49.92482" lon="1.52813">
        <ele>202</ele>
        <time>2013-06-22T17:25:19Z</time>
      </trkpt>
      <trkpt lat="49.92484" lon="1.52806">
        <ele>202</ele>
        <time>2013-06-22T17:25:23Z</time>
      </trkpt>
      <trkpt lat="49.92486" lon="1.528">
        <ele>202.1</ele>
        <time>2013-06-22T17:25:27Z</time>
      </trkpt>
      <trkpt lat="49.9249" lon="1.52794">
        <ele>202.1</ele>
        <time>2013-06-22T17:25:32Z</time>
      </trkpt>
      <trkpt lat="49.92494" lon="1.52789">
        <ele>202.1</ele>
        <time>2013-06-22T17:25:36Z</time>
      </trkpt>
      <trkpt lat="49.92496" lon="1.52781">
        <ele>202.1</ele>
        <time>2013-06-22T17:25:39Z</time>
      </trkpt>
      <trkpt lat="49.92499" lon="1.52774">
        <ele>202</ele>
        <time>2013-06-22T17:25:43Z</time>
      </trkpt>
      <trkpt lat="49.92502" lon="1.52768">
        <ele>202</ele>
        <time>2013-06-22T17:25:47Z</time>
      </trkpt>
      <trkpt lat="49.92504" lon="1.52761">
        <ele>201.9</ele>
        <time>2013-06-22T17:25:50Z</time>
      </trkpt>
      <trkpt lat="49.92508" lon="1.52753">
        <ele>202</ele>
        <time>2013-06-22T17:25:55Z</time>
      </trkpt>
      <trkpt lat="49.92514" lon="1.52741">
        <ele>202</ele>
        <time>2013-06-22T17:26:04Z</time>
      </trkpt>
      <trkpt lat="49.92517" lon="1.52735">
        <ele>202</ele>
        <time>2013-06-22T17:26:08Z</time>
      </trkpt>
      <trkpt lat="49.92521" lon="1.5273">
        <ele>202</ele>
        <time>2013-06-22T17:26:12Z</time>
      </trkpt>
      <trkpt lat="49.92523" lon="1.52723">
        <ele>202</ele>
        <time>2013-06-22T17:26:16Z</time>
      </trkpt>
      <trkpt lat="49.92525" lon="1.52716">
        <ele>202</ele>
        <time>2013-06-22T17:26:20Z</time>
      </trkpt>
      <trkpt lat="49.92528" lon="1.52709">
        <ele>202</ele>
        <time>2013-06-22T17:26:25Z</time>
      </trkpt>
      <trkpt lat="49.92531" lon="1.52703">
        <ele>201.9</ele>
        <time>2013-06-22T17:26:29Z</time>
      </trkpt>
      <trkpt lat="49.92536" lon="1.52691">
        <ele>201.7</ele>
        <time>2013-06-22T17:26:36Z</time>
      </trkpt>
      <trkpt lat="49.92538" lon="1.52684">
        <ele>201.6</ele>
        <time>2013-06-22T17:26:40Z</time>
      </trkpt>
      <trkpt lat="49.92542" lon="1.52678">
        <ele>201.5</ele>
        <time>2013-06-22T17:26:44Z</time>
      </trkpt>
      <trkpt lat="49.92544" lon="1.52671">
        <ele>201.4</ele>
        <time>2013-06-22T17:26:49Z</time>
      </trkpt>
      <trkpt lat="49.92548" lon="1.52667">
        <ele>201.3</ele>
        <time>2013-06-22T17:26:53Z</time>
      </trkpt>
      <trkpt lat="49.92552" lon="1.52661">
        <ele>201.1</ele>
        <time>2013-06-22T17:26:58Z</time>
      </trkpt>
      <trkpt lat="49.92559" lon="1.52651">
        <ele>201</ele>
        <time>2013-06-22T17:27:07Z</time>
      </trkpt>
      <trkpt lat="49.92561" lon="1.52645">
        <ele>201</ele>
        <time>2013-06-22T17:27:11Z</time>
      </trkpt>
      <trkpt lat="49.92564" lon="1.52639">
        <ele>201</ele>
        <time>2013-06-22T17:27:15Z</time>
      </trkpt>
      <trkpt lat="49.92567" lon="1.52632">
        <ele>201.2</ele>
        <time>2013-06-22T17:27:19Z</time>
      </trkpt>
      <trkpt lat="49.92569" lon="1.52625">
        <ele>201.3</ele>
        <time>2013-06-22T17:27:22Z</time>
      </trkpt>
      <trkpt lat="49.92572" lon="1.5262">
        <ele>201.3</ele>
        <time>2013-06-22T17:27:26Z</time>
      </trkpt>
      <trkpt lat="49.92576" lon="1.52613">
        <ele>201.3</ele>
        <time>2013-06-22T17:27:31Z</time>
      </trkpt>
      <trkpt lat="49.92579" lon="1.52607">
        <ele>201.3</ele>
        <time>2013-06-22T17:27:35Z</time>
      </trkpt>
      <trkpt lat="49.92582" lon="1.52602">
        <ele>201.4</ele>
        <time>2013-06-22T17:27:39Z</time>
      </trkpt>
      <trkpt lat="49.92585" lon="1.52595">
        <ele>201.5</ele>
        <time>2013-06-22T17:27:43Z</time>
      </trkpt>
      <trkpt lat="49.9259" lon="1.52582">
        <ele>201.8</ele>
        <time>2013-06-22T17:27:52Z</time>
      </trkpt>
      <trkpt lat="49.92593" lon="1.52574">
        <ele>201.7</ele>
        <time>2013-06-22T17:27:57Z</time>
      </trkpt>
      <trkpt lat="49.92594" lon="1.52567">
        <ele>201.6</ele>
        <time>2013-06-22T17:28:01Z</time>
      </trkpt>
      <trkpt lat="49.92595" lon="1.52558">
        <ele>201.6</ele>
        <time>2013-06-22T17:28:05Z</time>
      </trkpt>
      <trkpt lat="49.92594" lon="1.52551">
        <ele>201.6</ele>
        <time>2013-06-22T17:28:09Z</time>
      </trkpt>
      <trkpt lat="49.92591" lon="1.52545">
        <ele>201.7</ele>
        <time>2013-06-22T17:28:17Z</time>
      </trkpt>
      <trkpt lat="49.92586" lon="1.52543">
        <ele>201.9</ele>
        <time>2013-06-22T17:28:23Z</time>
      </trkpt>
      <trkpt lat="49.92581" lon="1.5254">
        <ele>202</ele>
        <time>2013-06-22T17:28:28Z</time>
      </trkpt>
      <trkpt lat="49.92576" lon="1.52537">
        <ele>202</ele>
        <time>2013-06-22T17:28:32Z</time>
      </trkpt>
      <trkpt lat="49.92572" lon="1.52535">
        <ele>202</ele>
        <time>2013-06-22T17:28:36Z</time>
      </trkpt>
      <trkpt lat="49.92568" lon="1.52531">
        <ele>202</ele>
        <time>2013-06-22T17:28:40Z</time>
      </trkpt>
      <trkpt lat="49.92562" lon="1.52528">
        <ele>202</ele>
        <time>2013-06-22T17:28:45Z</time>
      </trkpt>
      <trkpt lat="49.92557" lon="1.52525">
        <ele>202</ele>
        <time>2013-06-22T17:28:50Z</time>
      </trkpt>
      <trkpt lat="49.92552" lon="1.5252">
        <ele>202</ele>
        <time>2013-06-22T17:28:55Z</time>
      </trkpt>
      <trkpt lat="49.92548" lon="1.52516">
        <ele>202</ele>
        <time>2013-06-22T17:29:00Z</time>
      </trkpt>
      <trkpt lat="49.92543" lon="1.52513">
        <ele>202</ele>
        <time>2013-06-22T17:29:05Z</time>
      </trkpt>
      <trkpt lat="49.92537" lon="1.5251">
        <ele>202</ele>
        <time>2013-06-22T17:29:09Z</time>
      </trkpt>
      <trkpt lat="49.92534" lon="1.52506">
        <ele>202</ele>
        <time>2013-06-22T17:29:14Z</time>
      </trkpt>
      <trkpt lat="49.92529" lon="1.525">
        <ele>202</ele>
        <time>2013-06-22T17:29:19Z</time>
      </trkpt>
      <trkpt lat="49.92525" lon="1.52494">
        <ele>202.1</ele>
        <time>2013-06-22T17:29:24Z</time>
      </trkpt>
      <trkpt lat="49.92521" lon="1.52489">
        <ele>202.2</ele>
        <time>2013-06-22T17:29:29Z</time>
      </trkpt>
      <trkpt lat="49.92517" lon="1.52484">
        <ele>202.4</ele>
        <time>2013-06-22T17:29:33Z</time>
      </trkpt>
      <trkpt lat="49.92513" lon="1.52481">
        <ele>202.5</ele>
        <time>2013-06-22T17:29:37Z</time>
      </trkpt>
      <trkpt lat="49.92509" lon="1.52477">
        <ele>202.7</ele>
        <time>2013-06-22T17:29:41Z</time>
      </trkpt>
      <trkpt lat="49.92505" lon="1.52473">
        <ele>202.8</ele>
        <time>2013-06-22T17:29:45Z</time>
      </trkpt>
      <trkpt lat="49.92501" lon="1.52469">
        <ele>203</ele>
        <time>2013-06-22T17:29:49Z</time>
      </trkpt>
      <trkpt lat="49.92497" lon="1.52465">
        <ele>203</ele>
        <time>2013-06-22T17:29:53Z</time>
      </trkpt>
      <trkpt lat="49.92493" lon="1.52461">
        <ele>203</ele>
        <time>2013-06-22T17:29:57Z</time>
      </trkpt>
      <trkpt lat="49.92485" lon="1.52451">
        <ele>203</ele>
        <time>2013-06-22T17:30:06Z</time>
      </trkpt>
      <trkpt lat="49.92481" lon="1.52447">
        <ele>203</ele>
        <time>2013-06-22T17:30:10Z</time>
      </trkpt>
      <trkpt lat="49.92477" lon="1.52442">
        <ele>202.9</ele>
        <time>2013-06-22T17:30:14Z</time>
      </trkpt>
      <trkpt lat="49.92473" lon="1.52438">
        <ele>202.8</ele>
        <time>2013-06-22T17:30:19Z</time>
      </trkpt>
      <trkpt lat="49.92468" lon="1.52433">
        <ele>202.7</ele>
        <time>2013-06-22T17:30:24Z</time>
      </trkpt>
      <trkpt lat="49.92464" lon="1.52429">
        <ele>202.6</ele>
        <time>2013-06-22T17:30:28Z</time>
      </trkpt>
      <trkpt lat="49.9246" lon="1.52424">
        <ele>202.6</ele>
        <time>2013-06-22T17:30:32Z</time>
      </trkpt>
      <trkpt lat="49.92455" lon="1.52421">
        <ele>202.7</ele>
        <time>2013-06-22T17:30:36Z</time>
      </trkpt>
      <trkpt lat="49.92451" lon="1.52417">
        <ele>202.8</ele>
        <time>2013-06-22T17:30:40Z</time>
      </trkpt>
      <trkpt lat="49.92447" lon="1.52413">
        <ele>202.8</ele>
        <time>2013-06-22T17:30:45Z</time>
      </trkpt>
      <trkpt lat="49.92442" lon="1.52409">
        <ele>202.7</ele>
        <time>2013-06-22T17:30:49Z</time>
      </trkpt>
      <trkpt lat="49.92439" lon="1.52404">
        <ele>202.5</ele>
        <time>2013-06-22T17:30:53Z</time>
      </trkpt>
      <trkpt lat="49.92434" lon="1.524">
        <ele>202.4</ele>
        <time>2013-06-22T17:30:57Z</time>
      </trkpt>
      <trkpt lat="49.92431" lon="1.52395">
        <ele>202.2</ele>
        <time>2013-06-22T17:31:01Z</time>
      </trkpt>
      <trkpt lat="49.92422" lon="1.52388">
        <ele>202</ele>
        <time>2013-06-22T17:31:09Z</time>
      </trkpt>
      <trkpt lat="49.92417" lon="1.52384">
        <ele>202</ele>
        <time>2013-06-22T17:31:14Z</time>
      </trkpt>
      <trkpt lat="49.92409" lon="1.52375">
        <ele>202.1</ele>
        <time>2013-06-22T17:31:22Z</time>
      </trkpt>
      <trkpt lat="49.92405" lon="1.52371">
        <ele>202.1</ele>
        <time>2013-06-22T17:31:26Z</time>
      </trkpt>
      <trkpt lat="49.92401" lon="1.52367">
        <ele>202.1</ele>
        <time>2013-06-22T17:31:30Z</time>
      </trkpt>
      <trkpt lat="49.92396" lon="1.52363">
        <ele>202</ele>
        <time>2013-06-22T17:31:34Z</time>
      </trkpt>
      <trkpt lat="49.92392" lon="1.52358">
        <ele>202</ele>
        <time>2013-06-22T17:31:38Z</time>
      </trkpt>
      <trkpt lat="49.92389" lon="1.52354">
        <ele>202</ele>
        <time>2013-06-22T17:31:42Z</time>
      </trkpt>
      <trkpt lat="49.92384" lon="1.52351">
        <ele>202</ele>
        <time>2013-06-22T17:31:46Z</time>
      </trkpt>
      <trkpt lat="49.9238" lon="1.52347">
        <ele>202</ele>
        <time>2013-06-22T17:31:50Z</time>
      </trkpt>
      <trkpt lat="49.92375" lon="1.52344">
        <ele>202</ele>
        <time>2013-06-22T17:31:54Z</time>
      </trkpt>
      <trkpt lat="49.92372" lon="1.52339">
        <ele>202</ele>
        <time>2013-06-22T17:31:58Z</time>
      </trkpt>
      <trkpt lat="49.92368" lon="1.52335">
        <ele>202</ele>
        <time>2013-06-22T17:32:02Z</time>
      </trkpt>
      <trkpt lat="49.92363" lon="1.52331">
        <ele>201.9</ele>
        <time>2013-06-22T17:32:06Z</time>
      </trkpt>
      <trkpt lat="49.92359" lon="1.52327">
        <ele>201.8</ele>
        <time>2013-06-22T17:32:10Z</time>
      </trkpt>
      <trkpt lat="49.92355" lon="1.52323">
        <ele>201.6</ele>
        <time>2013-06-22T17:32:14Z</time>
      </trkpt>
      <trkpt lat="49.92351" lon="1.52319">
        <ele>201.5</ele>
        <time>2013-06-22T17:32:18Z</time>
      </trkpt>
      <trkpt lat="49.92347" lon="1.52314">
        <ele>201.3</ele>
        <time>2013-06-22T17:32:22Z</time>
      </trkpt>
      <trkpt lat="49.92342" lon="1.5231">
        <ele>201.1</ele>
        <time>2013-06-22T17:32:26Z</time>
      </trkpt>
      <trkpt lat="49.92338" lon="1.52305">
        <ele>201</ele>
        <time>2013-06-22T17:32:30Z</time>
      </trkpt>
      <trkpt lat="49.92334" lon="1.52302">
        <ele>201</ele>
        <time>2013-06-22T17:32:34Z</time>
      </trkpt>
      <trkpt lat="49.92326" lon="1.52295">
        <ele>201.2</ele>
        <time>2013-06-22T17:32:41Z</time>
      </trkpt>
      <trkpt lat="49.92322" lon="1.52291">
        <ele>201.2</ele>
        <time>2013-06-22T17:32:45Z</time>
      </trkpt>
      <trkpt lat="49.92318" lon="1.52287">
        <ele>201.2</ele>
        <time>2013-06-22T17:32:49Z</time>
      </trkpt>
      <trkpt lat="49.92313" lon="1.52284">
        <ele>201.2</ele>
        <time>2013-06-22T17:32:53Z</time>
      </trkpt>
      <trkpt lat="49.92309" lon="1.52279">
        <ele>201</ele>
        <time>2013-06-22T17:32:57Z</time>
      </trkpt>
      <trkpt lat="49.92305" lon="1.52274">
        <ele>200.9</ele>
        <time>2013-06-22T17:33:01Z</time>
      </trkpt>
      <trkpt lat="49.923" lon="1.52269">
        <ele>200.7</ele>
        <time>2013-06-22T17:33:05Z</time>
      </trkpt>
      <trkpt lat="49.92295" lon="1.52265">
        <ele>200.5</ele>
        <time>2013-06-22T17:33:09Z</time>
      </trkpt>
      <trkpt lat="49.92291" lon="1.52262">
        <ele>200.4</ele>
        <time>2013-06-22T17:33:13Z</time>
      </trkpt>
      <trkpt lat="49.92283" lon="1.52254">
        <ele>200.1</ele>
        <time>2013-06-22T17:33:21Z</time>
      </trkpt>
      <trkpt lat="49.92278" lon="1.5225">
        <ele>200</ele>
        <time>2013-06-22T17:33:25Z</time>
      </trkpt>
      <trkpt lat="49.92273" lon="1.52247">
        <ele>200.2</ele>
        <time>2013-06-22T17:33:29Z</time>
      </trkpt>
      <trkpt lat="49.92269" lon="1.52244">
        <ele>200.2</ele>
        <time>2013-06-22T17:33:33Z</time>
      </trkpt>
      <trkpt lat="49.92265" lon="1.5224">
        <ele>200.3</ele>
        <time>2013-06-22T17:33:37Z</time>
      </trkpt>
      <trkpt lat="49.9226" lon="1.52238">
        <ele>200.4</ele>
        <time>2013-06-22T17:33:40Z</time>
      </trkpt>
      <trkpt lat="49.92256" lon="1.52233">
        <ele>200.3</ele>
        <time>2013-06-22T17:33:44Z</time>
      </trkpt>
      <trkpt lat="49.92252" lon="1.52229">
        <ele>200.2</ele>
        <time>2013-06-22T17:33:48Z</time>
      </trkpt>
      <trkpt lat="49.92248" lon="1.52225">
        <ele>200.1</ele>
        <time>2013-06-22T17:33:52Z</time>
      </trkpt>
      <trkpt lat="49.92243" lon="1.52221">
        <ele>200</ele>
        <time>2013-06-22T17:33:56Z</time>
      </trkpt>
      <trkpt lat="49.92238" lon="1.52217">
        <ele>199.9</ele>
        <time>2013-06-22T17:34:00Z</time>
      </trkpt>
      <trkpt lat="49.92233" lon="1.52215">
        <ele>199.9</ele>
        <time>2013-06-22T17:34:04Z</time>
      </trkpt>
      <trkpt lat="49.9223" lon="1.52209">
        <ele>199.9</ele>
        <time>2013-06-22T17:34:09Z</time>
      </trkpt>
      <trkpt lat="49.92226" lon="1.52205">
        <ele>199.9</ele>
        <time>2013-06-22T17:34:13Z</time>
      </trkpt>
      <trkpt lat="49.92222" lon="1.52199">
        <ele>200</ele>
        <time>2013-06-22T17:34:17Z</time>
      </trkpt>
      <trkpt lat="49.92218" lon="1.52195">
        <ele>200</ele>
        <time>2013-06-22T17:34:21Z</time>
      </trkpt>
      <trkpt lat="49.92213" lon="1.5219">
        <ele>199.9</ele>
        <time>2013-06-22T17:34:26Z</time>
      </trkpt>
      <trkpt lat="49.92209" lon="1.52186">
        <ele>199.8</ele>
        <time>2013-06-22T17:34:29Z</time>
      </trkpt>
      <trkpt lat="49.92205" lon="1.52183">
        <ele>199.9</ele>
        <time>2013-06-22T17:34:34Z</time>
      </trkpt>
      <trkpt lat="49.92199" lon="1.52179">
        <ele>199.9</ele>
        <time>2013-06-22T17:34:38Z</time>
      </trkpt>
      <trkpt lat="49.92195" lon="1.52173">
        <ele>200</ele>
        <time>2013-06-22T17:34:42Z</time>
      </trkpt>
      <trkpt lat="49.92192" lon="1.52166">
        <ele>200</ele>
        <time>2013-06-22T17:34:47Z</time>
      </trkpt>
      <trkpt lat="49.92188" lon="1.52162">
        <ele>199.8</ele>
        <time>2013-06-22T17:34:51Z</time>
      </trkpt>
      <trkpt lat="49.92183" lon="1.5216">
        <ele>199.8</ele>
        <time>2013-06-22T17:34:55Z</time>
      </trkpt>
      <trkpt lat="49.92179" lon="1.52156">
        <ele>199.6</ele>
        <time>2013-06-22T17:34:58Z</time>
      </trkpt>
      <trkpt lat="49.92175" lon="1.52151">
        <ele>199.4</ele>
        <time>2013-06-22T17:35:01Z</time>
      </trkpt>
      <trkpt lat="49.9217" lon="1.52147">
        <ele>199.3</ele>
        <time>2013-06-22T17:35:04Z</time>
      </trkpt>
      <trkpt lat="49.92166" lon="1.52142">
        <ele>199.1</ele>
        <time>2013-06-22T17:35:07Z</time>
      </trkpt>
      <trkpt lat="49.9216" lon="1.52138">
        <ele>199</ele>
        <time>2013-06-22T17:35:11Z</time>
      </trkpt>
      <trkpt lat="49.92154" lon="1.52136">
        <ele>198.9</ele>
        <time>2013-06-22T17:35:14Z</time>
      </trkpt>
      <trkpt lat="49.9215" lon="1.52132">
        <ele>198.9</ele>
        <time>2013-06-22T17:35:18Z</time>
      </trkpt>
      <trkpt lat="49.92146" lon="1.52127">
        <ele>198.9</ele>
        <time>2013-06-22T17:35:21Z</time>
      </trkpt>
      <trkpt lat="49.92142" lon="1.52122">
        <ele>198.9</ele>
        <time>2013-06-22T17:35:25Z</time>
      </trkpt>
      <trkpt lat="49.92138" lon="1.52117">
        <ele>199</ele>
        <time>2013-06-22T17:35:30Z</time>
      </trkpt>
      <trkpt lat="49.9213" lon="1.52109">
        <ele>198.9</ele>
        <time>2013-06-22T17:35:41Z</time>
      </trkpt>
      <trkpt lat="49.92125" lon="1.52108">
        <ele>198.9</ele>
        <time>2013-06-22T17:35:44Z</time>
      </trkpt>
      <trkpt lat="49.92121" lon="1.52104">
        <ele>198.8</ele>
        <time>2013-06-22T17:35:47Z</time>
      </trkpt>
      <trkpt lat="49.92117" lon="1.521">
        <ele>198.6</ele>
        <time>2013-06-22T17:35:50Z</time>
      </trkpt>
      <trkpt lat="49.92113" lon="1.52094">
        <ele>198.4</ele>
        <time>2013-06-22T17:35:53Z</time>
      </trkpt>
      <trkpt lat="49.92109" lon="1.52089">
        <ele>198.2</ele>
        <time>2013-06-22T17:35:57Z</time>
      </trkpt>
      <trkpt lat="49.92104" lon="1.52084">
        <ele>198</ele>
        <time>2013-06-22T17:36:01Z</time>
      </trkpt>
      <trkpt lat="49.92099" lon="1.52079">
        <ele>197.9</ele>
        <time>2013-06-22T17:36:04Z</time>
      </trkpt>
      <trkpt lat="49.92094" lon="1.52076">
        <ele>197.7</ele>
        <time>2013-06-22T17:36:07Z</time>
      </trkpt>
      <trkpt lat="49.92085" lon="1.52069">
        <ele>197.5</ele>
        <time>2013-06-22T17:36:13Z</time>
      </trkpt>
      <trkpt lat="49.9208" lon="1.52067">
        <ele>197.5</ele>
        <time>2013-06-22T17:36:16Z</time>
      </trkpt>
      <trkpt lat="49.92076" lon="1.52065">
        <ele>197.6</ele>
        <time>2013-06-22T17:36:21Z</time>
      </trkpt>
      <trkpt lat="49.92071" lon="1.52061">
        <ele>197.6</ele>
        <time>2013-06-22T17:36:26Z</time>
      </trkpt>
      <trkpt lat="49.92069" lon="1.52053">
        <ele>197.4</ele>
        <time>2013-06-22T17:36:31Z</time>
      </trkpt>
      <trkpt lat="49.92064" lon="1.52048">
        <ele>197.4</ele>
        <time>2013-06-22T17:36:37Z</time>
      </trkpt>
      <trkpt lat="49.92054" lon="1.5205">
        <ele>197.8</ele>
        <time>2013-06-22T17:36:44Z</time>
      </trkpt>
      <trkpt lat="49.9205" lon="1.52053">
        <ele>198.1</ele>
        <time>2013-06-22T17:36:47Z</time>
      </trkpt>
      <trkpt lat="49.92046" lon="1.52053">
        <ele>198.3</ele>
        <time>2013-06-22T17:36:53Z</time>
      </trkpt>
      <trkpt lat="49.92042" lon="1.52059">
        <ele>198.6</ele>
        <time>2013-06-22T17:37:00Z</time>
      </trkpt>
      <trkpt lat="49.92043" lon="1.52067">
        <ele>198.9</ele>
        <time>2013-06-22T17:37:04Z</time>
      </trkpt>
      <trkpt lat="49.92039" lon="1.52072">
        <ele>199.2</ele>
        <time>2013-06-22T17:37:08Z</time>
      </trkpt>
      <trkpt lat="49.92038" lon="1.52079">
        <ele>199.5</ele>
        <time>2013-06-22T17:37:18Z</time>
      </trkpt>
      <trkpt lat="49.91993" lon="1.52107">
        <ele>200.4</ele>
        <time>2013-06-22T18:18:29Z</time>
      </trkpt>
      <trkpt lat="49.91989" lon="1.52111">
        <ele>200.2</ele>
        <time>2013-06-22T18:18:37Z</time>
      </trkpt>
      <trkpt lat="49.91991" lon="1.52118">
        <ele>200.4</ele>
        <time>2013-06-22T18:18:43Z</time>
      </trkpt>
      <trkpt lat="49.91986" lon="1.52117">
        <ele>200</ele>
        <time>2013-06-22T18:18:53Z</time>
      </trkpt>
      <trkpt lat="49.91976" lon="1.52117">
        <ele>199.3</ele>
        <time>2013-06-22T18:19:01Z</time>
      </trkpt>
      <trkpt lat="49.92008" lon="1.52076">
        <ele>200.4</ele>
        <time>2013-06-22T18:20:13Z</time>
      </trkpt>
      <trkpt lat="49.92012" lon="1.52072">
        <ele>200.1</ele>
        <time>2013-06-22T18:20:18Z</time>
      </trkpt>
      <trkpt lat="49.92016" lon="1.52076">
        <ele>200.2</ele>
        <time>2013-06-22T18:20:21Z</time>
      </trkpt>
      <trkpt lat="49.92019" lon="1.52082">
        <ele>200.3</ele>
        <time>2013-06-22T18:20:34Z</time>
      </trkpt>
      <trkpt lat="49.92043" lon="1.52038">
        <ele>197.8</ele>
        <time>2013-06-22T18:23:40Z</time>
      </trkpt>
      <trkpt lat="49.92048" lon="1.52036">
        <ele>197.6</ele>
        <time>2013-06-22T18:23:47Z</time>
      </trkpt>
      <trkpt lat="49.92054" lon="1.52034">
        <ele>197.3</ele>
        <time>2013-06-22T18:23:51Z</time>
      </trkpt>
      <trkpt lat="49.92059" lon="1.52038">
        <ele>197.3</ele>
        <time>2013-06-22T18:23:58Z</time>
      </trkpt>
      <trkpt lat="49.92064" lon="1.5204">
        <ele>197.1</ele>
        <time>2013-06-22T18:24:03Z</time>
      </trkpt>
      <trkpt lat="49.92069" lon="1.52044">
        <ele>197.1</ele>
        <time>2013-06-22T18:24:08Z</time>
      </trkpt>
      <trkpt lat="49.92073" lon="1.52048">
        <ele>197.1</ele>
        <time>2013-06-22T18:24:14Z</time>
      </trkpt>
      <trkpt lat="49.92077" lon="1.52052">
        <ele>197.1</ele>
        <time>2013-06-22T18:24:18Z</time>
      </trkpt>
      <trkpt lat="49.92082" lon="1.52058">
        <ele>197.1</ele>
        <time>2013-06-22T18:24:23Z</time>
      </trkpt>
      <trkpt lat="49.92088" lon="1.52068">
        <ele>197.5</ele>
        <time>2013-06-22T18:24:33Z</time>
      </trkpt>
      <trkpt lat="49.92092" lon="1.52071">
        <ele>197.6</ele>
        <time>2013-06-22T18:24:40Z</time>
      </trkpt>
      <trkpt lat="49.92097" lon="1.52072">
        <ele>197.6</ele>
        <time>2013-06-22T18:24:48Z</time>
      </trkpt>
      <trkpt lat="49.92104" lon="1.52084">
        <ele>198</ele>
        <time>2013-06-22T18:25:01Z</time>
      </trkpt>
      <trkpt lat="49.92108" lon="1.52088">
        <ele>198.2</ele>
        <time>2013-06-22T18:25:04Z</time>
      </trkpt>
      <trkpt lat="49.92117" lon="1.52094">
        <ele>198.4</ele>
        <time>2013-06-22T18:25:11Z</time>
      </trkpt>
      <trkpt lat="49.92121" lon="1.52097">
        <ele>198.5</ele>
        <time>2013-06-22T18:25:14Z</time>
      </trkpt>
      <trkpt lat="49.92124" lon="1.52104">
        <ele>198.7</ele>
        <time>2013-06-22T18:25:19Z</time>
      </trkpt>
      <trkpt lat="49.92123" lon="1.52111">
        <ele>199</ele>
        <time>2013-06-22T18:25:24Z</time>
      </trkpt>
      <trkpt lat="49.92127" lon="1.52117">
        <ele>199.1</ele>
        <time>2013-06-22T18:25:29Z</time>
      </trkpt>
      <trkpt lat="49.92133" lon="1.52121">
        <ele>199.1</ele>
        <time>2013-06-22T18:25:31Z</time>
      </trkpt>
      <trkpt lat="49.92138" lon="1.52125">
        <ele>199</ele>
        <time>2013-06-22T18:25:33Z</time>
      </trkpt>
      <trkpt lat="49.92142" lon="1.5213">
        <ele>199</ele>
        <time>2013-06-22T18:25:36Z</time>
      </trkpt>
      <trkpt lat="49.92146" lon="1.52131">
        <ele>198.9</ele>
        <time>2013-06-22T18:25:39Z</time>
      </trkpt>
      <trkpt lat="49.92152" lon="1.52134">
        <ele>198.9</ele>
        <time>2013-06-22T18:25:42Z</time>
      </trkpt>
      <trkpt lat="49.92158" lon="1.52137">
        <ele>198.9</ele>
        <time>2013-06-22T18:25:44Z</time>
      </trkpt>
      <trkpt lat="49.92163" lon="1.52138">
        <ele>199</ele>
        <time>2013-06-22T18:25:46Z</time>
      </trkpt>
      <trkpt lat="49.92172" lon="1.52142">
        <ele>199.1</ele>
        <time>2013-06-22T18:25:51Z</time>
      </trkpt>
      <trkpt lat="49.92179" lon="1.52144">
        <ele>199.2</ele>
        <time>2013-06-22T18:25:54Z</time>
      </trkpt>
      <trkpt lat="49.92184" lon="1.52147">
        <ele>199.3</ele>
        <time>2013-06-22T18:25:56Z</time>
      </trkpt>
      <trkpt lat="49.92187" lon="1.52154">
        <ele>199.6</ele>
        <time>2013-06-22T18:26:01Z</time>
      </trkpt>
      <trkpt lat="49.92189" lon="1.52161">
        <ele>199.8</ele>
        <time>2013-06-22T18:26:07Z</time>
      </trkpt>
      <trkpt lat="49.92194" lon="1.52165">
        <ele>199.9</ele>
        <time>2013-06-22T18:26:13Z</time>
      </trkpt>
      <trkpt lat="49.922" lon="1.5217">
        <ele>199.8</ele>
        <time>2013-06-22T18:26:17Z</time>
      </trkpt>
      <trkpt lat="49.92207" lon="1.52172">
        <ele>199.6</ele>
        <time>2013-06-22T18:26:19Z</time>
      </trkpt>
      <trkpt lat="49.92215" lon="1.52177">
        <ele>199.5</ele>
        <time>2013-06-22T18:26:21Z</time>
      </trkpt>
      <trkpt lat="49.9222" lon="1.52179">
        <ele>199.5</ele>
        <time>2013-06-22T18:26:22Z</time>
      </trkpt>
      <trkpt lat="49.92227" lon="1.52182">
        <ele>199.5</ele>
        <time>2013-06-22T18:26:24Z</time>
      </trkpt>
      <trkpt lat="49.9223" lon="1.52189">
        <ele>199.6</ele>
        <time>2013-06-22T18:26:28Z</time>
      </trkpt>
      <trkpt lat="49.92228" lon="1.52196">
        <ele>199.8</ele>
        <time>2013-06-22T18:26:40Z</time>
      </trkpt>
      <trkpt lat="49.92232" lon="1.52201">
        <ele>199.7</ele>
        <time>2013-06-22T18:26:44Z</time>
      </trkpt>
      <trkpt lat="49.92236" lon="1.52205">
        <ele>199.7</ele>
        <time>2013-06-22T18:26:50Z</time>
      </trkpt>
      <trkpt lat="49.92241" lon="1.5221">
        <ele>199.7</ele>
        <time>2013-06-22T18:26:54Z</time>
      </trkpt>
      <trkpt lat="49.92245" lon="1.52213">
        <ele>199.7</ele>
        <time>2013-06-22T18:26:56Z</time>
      </trkpt>
      <trkpt lat="49.92248" lon="1.52219">
        <ele>199.9</ele>
        <time>2013-06-22T18:27:01Z</time>
      </trkpt>
      <trkpt lat="49.92252" lon="1.52223">
        <ele>200</ele>
        <time>2013-06-22T18:27:04Z</time>
      </trkpt>
      <trkpt lat="49.92259" lon="1.52224">
        <ele>200</ele>
        <time>2013-06-22T18:27:06Z</time>
      </trkpt>
      <trkpt lat="49.92264" lon="1.52224">
        <ele>200</ele>
        <time>2013-06-22T18:27:09Z</time>
      </trkpt>
      <trkpt lat="49.92269" lon="1.52229">
        <ele>200.1</ele>
        <time>2013-06-22T18:27:13Z</time>
      </trkpt>
      <trkpt lat="49.92274" lon="1.52232">
        <ele>200</ele>
        <time>2013-06-22T18:27:15Z</time>
      </trkpt>
      <trkpt lat="49.9228" lon="1.52236">
        <ele>200</ele>
        <time>2013-06-22T18:27:17Z</time>
      </trkpt>
      <trkpt lat="49.92285" lon="1.52239">
        <ele>199.9</ele>
        <time>2013-06-22T18:27:20Z</time>
      </trkpt>
      <trkpt lat="49.92282" lon="1.52244">
        <ele>200</ele>
        <time>2013-06-22T18:27:26Z</time>
      </trkpt>
      <trkpt lat="49.92288" lon="1.52254">
        <ele>200.1</ele>
        <time>2013-06-22T18:27:38Z</time>
      </trkpt>
      <trkpt lat="49.92292" lon="1.52258">
        <ele>200.3</ele>
        <time>2013-06-22T18:27:42Z</time>
      </trkpt>
      <trkpt lat="49.92295" lon="1.52265">
        <ele>200.5</ele>
        <time>2013-06-22T18:27:49Z</time>
      </trkpt>
      <trkpt lat="49.92301" lon="1.52269">
        <ele>200.7</ele>
        <time>2013-06-22T18:27:52Z</time>
      </trkpt>
      <trkpt lat="49.92306" lon="1.52272">
        <ele>200.8</ele>
        <time>2013-06-22T18:27:55Z</time>
      </trkpt>
      <trkpt lat="49.92311" lon="1.52276">
        <ele>200.9</ele>
        <time>2013-06-22T18:28:00Z</time>
      </trkpt>
      <trkpt lat="49.92315" lon="1.52278">
        <ele>201</ele>
        <time>2013-06-22T18:28:03Z</time>
      </trkpt>
      <trkpt lat="49.9232" lon="1.52282">
        <ele>201.1</ele>
        <time>2013-06-22T18:28:06Z</time>
      </trkpt>
      <trkpt lat="49.92324" lon="1.52287">
        <ele>201.1</ele>
        <time>2013-06-22T18:28:10Z</time>
      </trkpt>
      <trkpt lat="49.92324" lon="1.52294">
        <ele>201.2</ele>
        <time>2013-06-22T18:28:19Z</time>
      </trkpt>
      <trkpt lat="49.9233" lon="1.52299">
        <ele>201.1</ele>
        <time>2013-06-22T18:28:25Z</time>
      </trkpt>
      <trkpt lat="49.92335" lon="1.52302">
        <ele>201</ele>
        <time>2013-06-22T18:28:28Z</time>
      </trkpt>
      <trkpt lat="49.92341" lon="1.52304">
        <ele>201</ele>
        <time>2013-06-22T18:28:31Z</time>
      </trkpt>
      <trkpt lat="49.92345" lon="1.5231">
        <ele>201.1</ele>
        <time>2013-06-22T18:28:36Z</time>
      </trkpt>
      <trkpt lat="49.92349" lon="1.52316">
        <ele>201.4</ele>
        <time>2013-06-22T18:28:41Z</time>
      </trkpt>
      <trkpt lat="49.92353" lon="1.52319">
        <ele>201.5</ele>
        <time>2013-06-22T18:28:44Z</time>
      </trkpt>
      <trkpt lat="49.92358" lon="1.52323">
        <ele>201.6</ele>
        <time>2013-06-22T18:28:47Z</time>
      </trkpt>
      <trkpt lat="49.92363" lon="1.52327">
        <ele>201.8</ele>
        <time>2013-06-22T18:28:51Z</time>
      </trkpt>
      <trkpt lat="49.9237" lon="1.52329">
        <ele>201.9</ele>
        <time>2013-06-22T18:28:53Z</time>
      </trkpt>
      <trkpt lat="49.92374" lon="1.52334">
        <ele>202</ele>
        <time>2013-06-22T18:28:57Z</time>
      </trkpt>
      <trkpt lat="49.92378" lon="1.52339">
        <ele>202</ele>
        <time>2013-06-22T18:29:04Z</time>
      </trkpt>
      <trkpt lat="49.92384" lon="1.52344">
        <ele>202</ele>
        <time>2013-06-22T18:29:10Z</time>
      </trkpt>
      <trkpt lat="49.92388" lon="1.52346">
        <ele>202</ele>
        <time>2013-06-22T18:29:12Z</time>
      </trkpt>
      <trkpt lat="49.92392" lon="1.52351">
        <ele>202</ele>
        <time>2013-06-22T18:29:15Z</time>
      </trkpt>
      <trkpt lat="49.92396" lon="1.52355">
        <ele>201.9</ele>
        <time>2013-06-22T18:29:18Z</time>
      </trkpt>
      <trkpt lat="49.924" lon="1.52358">
        <ele>202</ele>
        <time>2013-06-22T18:29:21Z</time>
      </trkpt>
      <trkpt lat="49.92404" lon="1.52364">
        <ele>202</ele>
        <time>2013-06-22T18:29:28Z</time>
      </trkpt>
      <trkpt lat="49.92408" lon="1.52369">
        <ele>202.1</ele>
        <time>2013-06-22T18:29:33Z</time>
      </trkpt>
      <trkpt lat="49.92414" lon="1.52372">
        <ele>202</ele>
        <time>2013-06-22T18:29:36Z</time>
      </trkpt>
      <trkpt lat="49.92419" lon="1.52376">
        <ele>202</ele>
        <time>2013-06-22T18:29:40Z</time>
      </trkpt>
      <trkpt lat="49.92423" lon="1.52381">
        <ele>202</ele>
        <time>2013-06-22T18:29:44Z</time>
      </trkpt>
      <trkpt lat="49.92425" lon="1.52388">
        <ele>202</ele>
        <time>2013-06-22T18:29:51Z</time>
      </trkpt>
      <trkpt lat="49.9243" lon="1.52392">
        <ele>202.1</ele>
        <time>2013-06-22T18:29:54Z</time>
      </trkpt>
      <trkpt lat="49.92433" lon="1.52397">
        <ele>202.3</ele>
        <time>2013-06-22T18:29:58Z</time>
      </trkpt>
      <trkpt lat="49.92438" lon="1.524">
        <ele>202.4</ele>
        <time>2013-06-22T18:30:02Z</time>
      </trkpt>
      <trkpt lat="49.92447" lon="1.52406">
        <ele>202.6</ele>
        <time>2013-06-22T18:30:07Z</time>
      </trkpt>
      <trkpt lat="49.92452" lon="1.52408">
        <ele>202.5</ele>
        <time>2013-06-22T18:30:09Z</time>
      </trkpt>
      <trkpt lat="49.92457" lon="1.52411">
        <ele>202.4</ele>
        <time>2013-06-22T18:30:12Z</time>
      </trkpt>
      <trkpt lat="49.92461" lon="1.52416">
        <ele>202.4</ele>
        <time>2013-06-22T18:30:17Z</time>
      </trkpt>
      <trkpt lat="49.92465" lon="1.52421">
        <ele>202.4</ele>
        <time>2013-06-22T18:30:21Z</time>
      </trkpt>
      <trkpt lat="49.92472" lon="1.52431">
        <ele>202.5</ele>
        <time>2013-06-22T18:30:31Z</time>
      </trkpt>
      <trkpt lat="49.92479" lon="1.52436">
        <ele>202.7</ele>
        <time>2013-06-22T18:30:33Z</time>
      </trkpt>
      <trkpt lat="49.92485" lon="1.52439">
        <ele>202.8</ele>
        <time>2013-06-22T18:30:35Z</time>
      </trkpt>
      <trkpt lat="49.92489" lon="1.52444">
        <ele>203</ele>
        <time>2013-06-22T18:30:39Z</time>
      </trkpt>
      <trkpt lat="49.92493" lon="1.52447">
        <ele>203</ele>
        <time>2013-06-22T18:30:42Z</time>
      </trkpt>
      <trkpt lat="49.92496" lon="1.52454">
        <ele>203</ele>
        <time>2013-06-22T18:30:55Z</time>
      </trkpt>
      <trkpt lat="49.925" lon="1.52458">
        <ele>203</ele>
        <time>2013-06-22T18:30:59Z</time>
      </trkpt>
      <trkpt lat="49.92503" lon="1.52463">
        <ele>202.9</ele>
        <time>2013-06-22T18:31:05Z</time>
      </trkpt>
      <trkpt lat="49.92508" lon="1.52465">
        <ele>202.7</ele>
        <time>2013-06-22T18:31:09Z</time>
      </trkpt>
      <trkpt lat="49.92512" lon="1.52468">
        <ele>202.6</ele>
        <time>2013-06-22T18:31:13Z</time>
      </trkpt>
      <trkpt lat="49.92515" lon="1.52474">
        <ele>202.5</ele>
        <time>2013-06-22T18:31:20Z</time>
      </trkpt>
      <trkpt lat="49.92518" lon="1.52479">
        <ele>202.4</ele>
        <time>2013-06-22T18:31:25Z</time>
      </trkpt>
      <trkpt lat="49.92524" lon="1.52484">
        <ele>202.2</ele>
        <time>2013-06-22T18:31:28Z</time>
      </trkpt>
      <trkpt lat="49.92528" lon="1.52488">
        <ele>202</ele>
        <time>2013-06-22T18:31:30Z</time>
      </trkpt>
      <trkpt lat="49.92534" lon="1.52493">
        <ele>202</ele>
        <time>2013-06-22T18:31:33Z</time>
      </trkpt>
      <trkpt lat="49.92539" lon="1.52496">
        <ele>202</ele>
        <time>2013-06-22T18:31:36Z</time>
      </trkpt>
      <trkpt lat="49.92544" lon="1.52499">
        <ele>202</ele>
        <time>2013-06-22T18:31:39Z</time>
      </trkpt>
      <trkpt lat="49.9255" lon="1.52502">
        <ele>202</ele>
        <time>2013-06-22T18:31:41Z</time>
      </trkpt>
      <trkpt lat="49.92556" lon="1.52505">
        <ele>202</ele>
        <time>2013-06-22T18:31:44Z</time>
      </trkpt>
      <trkpt lat="49.9256" lon="1.5251">
        <ele>202</ele>
        <time>2013-06-22T18:31:48Z</time>
      </trkpt>
      <trkpt lat="49.92564" lon="1.52514">
        <ele>202</ele>
        <time>2013-06-22T18:31:52Z</time>
      </trkpt>
      <trkpt lat="49.92569" lon="1.52517">
        <ele>202</ele>
        <time>2013-06-22T18:31:57Z</time>
      </trkpt>
      <trkpt lat="49.92571" lon="1.52524">
        <ele>202</ele>
        <time>2013-06-22T18:32:02Z</time>
      </trkpt>
      <trkpt lat="49.92572" lon="1.52532">
        <ele>202</ele>
        <time>2013-06-22T18:32:12Z</time>
      </trkpt>
      <trkpt lat="49.9258" lon="1.52539">
        <ele>202</ele>
        <time>2013-06-22T18:32:19Z</time>
      </trkpt>
      <trkpt lat="49.92583" lon="1.52544">
        <ele>202</ele>
        <time>2013-06-22T18:32:22Z</time>
      </trkpt>
      <trkpt lat="49.92588" lon="1.52549">
        <ele>201.8</ele>
        <time>2013-06-22T18:32:31Z</time>
      </trkpt>
      <trkpt lat="49.92592" lon="1.52555">
        <ele>201.7</ele>
        <time>2013-06-22T18:32:35Z</time>
      </trkpt>
      <trkpt lat="49.92596" lon="1.52559">
        <ele>201.5</ele>
        <time>2013-06-22T18:32:38Z</time>
      </trkpt>
      <trkpt lat="49.92601" lon="1.52564">
        <ele>201.4</ele>
        <time>2013-06-22T18:32:41Z</time>
      </trkpt>
      <trkpt lat="49.92605" lon="1.52568">
        <ele>201.2</ele>
        <time>2013-06-22T18:32:43Z</time>
      </trkpt>
      <trkpt lat="49.92608" lon="1.52576">
        <ele>201.1</ele>
        <time>2013-06-22T18:32:49Z</time>
      </trkpt>
      <trkpt lat="49.92612" lon="1.5258">
        <ele>201</ele>
        <time>2013-06-22T18:32:57Z</time>
      </trkpt>
      <trkpt lat="49.92617" lon="1.52581">
        <ele>201</ele>
        <time>2013-06-22T18:33:00Z</time>
      </trkpt>
      <trkpt lat="49.92623" lon="1.52582">
        <ele>201</ele>
        <time>2013-06-22T18:33:04Z</time>
      </trkpt>
      <trkpt lat="49.92632" lon="1.52586">
        <ele>201</ele>
        <time>2013-06-22T18:33:10Z</time>
      </trkpt>
      <trkpt lat="49.92638" lon="1.52588">
        <ele>201</ele>
        <time>2013-06-22T18:33:12Z</time>
      </trkpt>
      <trkpt lat="49.92643" lon="1.5259">
        <ele>200.9</ele>
        <time>2013-06-22T18:33:14Z</time>
      </trkpt>
      <trkpt lat="49.92645" lon="1.52597">
        <ele>200.8</ele>
        <time>2013-06-22T18:33:22Z</time>
      </trkpt>
      <trkpt lat="49.9265" lon="1.52602">
        <ele>200.6</ele>
        <time>2013-06-22T18:33:26Z</time>
      </trkpt>
      <trkpt lat="49.92658" lon="1.52608">
        <ele>200.3</ele>
        <time>2013-06-22T18:33:33Z</time>
      </trkpt>
      <trkpt lat="49.92664" lon="1.52612">
        <ele>200.1</ele>
        <time>2013-06-22T18:33:36Z</time>
      </trkpt>
      <trkpt lat="49.92673" lon="1.52614">
        <ele>200</ele>
        <time>2013-06-22T18:33:40Z</time>
      </trkpt>
      <trkpt lat="49.92678" lon="1.52616">
        <ele>200</ele>
        <time>2013-06-22T18:33:46Z</time>
      </trkpt>
      <trkpt lat="49.92682" lon="1.5262">
        <ele>200</ele>
        <time>2013-06-22T18:33:49Z</time>
      </trkpt>
      <trkpt lat="49.92687" lon="1.52622">
        <ele>200</ele>
        <time>2013-06-22T18:33:51Z</time>
      </trkpt>
      <trkpt lat="49.92692" lon="1.52623">
        <ele>200</ele>
        <time>2013-06-22T18:33:53Z</time>
      </trkpt>
      <trkpt lat="49.92698" lon="1.52625">
        <ele>199.9</ele>
        <time>2013-06-22T18:33:55Z</time>
      </trkpt>
      <trkpt lat="49.92702" lon="1.52631">
        <ele>199.7</ele>
        <time>2013-06-22T18:34:06Z</time>
      </trkpt>
      <trkpt lat="49.92706" lon="1.52636">
        <ele>199.6</ele>
        <time>2013-06-22T18:34:10Z</time>
      </trkpt>
      <trkpt lat="49.92713" lon="1.52648">
        <ele>199.2</ele>
        <time>2013-06-22T18:34:22Z</time>
      </trkpt>
      <trkpt lat="49.92718" lon="1.52653">
        <ele>199.1</ele>
        <time>2013-06-22T18:34:25Z</time>
      </trkpt>
      <trkpt lat="49.92719" lon="1.52661">
        <ele>199</ele>
        <time>2013-06-22T18:34:31Z</time>
      </trkpt>
      <trkpt lat="49.92725" lon="1.52663">
        <ele>198.9</ele>
        <time>2013-06-22T18:34:33Z</time>
      </trkpt>
      <trkpt lat="49.92729" lon="1.52667">
        <ele>198.7</ele>
        <time>2013-06-22T18:34:36Z</time>
      </trkpt>
      <trkpt lat="49.92734" lon="1.5267">
        <ele>198.5</ele>
        <time>2013-06-22T18:34:38Z</time>
      </trkpt>
      <trkpt lat="49.92738" lon="1.52677">
        <ele>198.3</ele>
        <time>2013-06-22T18:34:45Z</time>
      </trkpt>
      <trkpt lat="49.92738" lon="1.52684">
        <ele>198.2</ele>
        <time>2013-06-22T18:34:50Z</time>
      </trkpt>
      <trkpt lat="49.92744" lon="1.52692">
        <ele>198</ele>
        <time>2013-06-22T18:35:00Z</time>
      </trkpt>
      <trkpt lat="49.9275" lon="1.52697">
        <ele>197.9</ele>
        <time>2013-06-22T18:35:03Z</time>
      </trkpt>
      <trkpt lat="49.92754" lon="1.52702">
        <ele>197.6</ele>
        <time>2013-06-22T18:35:10Z</time>
      </trkpt>
      <trkpt lat="49.92758" lon="1.52708">
        <ele>197.4</ele>
        <time>2013-06-22T18:35:15Z</time>
      </trkpt>
      <trkpt lat="49.92762" lon="1.52713">
        <ele>197.2</ele>
        <time>2013-06-22T18:35:22Z</time>
      </trkpt>
      <trkpt lat="49.92766" lon="1.52717">
        <ele>197.1</ele>
        <time>2013-06-22T18:35:27Z</time>
      </trkpt>
      <trkpt lat="49.92771" lon="1.52721">
        <ele>197</ele>
        <time>2013-06-22T18:35:30Z</time>
      </trkpt>
      <trkpt lat="49.92777" lon="1.52723">
        <ele>197</ele>
        <time>2013-06-22T18:35:33Z</time>
      </trkpt>
      <trkpt lat="49.92781" lon="1.52727">
        <ele>197</ele>
        <time>2013-06-22T18:35:35Z</time>
      </trkpt>
      <trkpt lat="49.92788" lon="1.52739">
        <ele>196.8</ele>
        <time>2013-06-22T18:35:48Z</time>
      </trkpt>
      <trkpt lat="49.92792" lon="1.52743">
        <ele>196.6</ele>
        <time>2013-06-22T18:35:50Z</time>
      </trkpt>
      <trkpt lat="49.92798" lon="1.52746">
        <ele>196.4</ele>
        <time>2013-06-22T18:35:53Z</time>
      </trkpt>
      <trkpt lat="49.92803" lon="1.52751">
        <ele>196.1</ele>
        <time>2013-06-22T18:36:00Z</time>
      </trkpt>
      <trkpt lat="49.92808" lon="1.52754">
        <ele>196</ele>
        <time>2013-06-22T18:36:03Z</time>
      </trkpt>
      <trkpt lat="49.92809" lon="1.52762">
        <ele>196</ele>
        <time>2013-06-22T18:36:09Z</time>
      </trkpt>
      <trkpt lat="49.92818" lon="1.52772">
        <ele>196</ele>
        <time>2013-06-22T18:36:18Z</time>
      </trkpt>
      <trkpt lat="49.92823" lon="1.52774">
        <ele>196</ele>
        <time>2013-06-22T18:36:20Z</time>
      </trkpt>
      <trkpt lat="49.92828" lon="1.52775">
        <ele>196</ele>
        <time>2013-06-22T18:36:22Z</time>
      </trkpt>
      <trkpt lat="49.92837" lon="1.52777">
        <ele>196</ele>
        <time>2013-06-22T18:36:24Z</time>
      </trkpt>
      <trkpt lat="49.92841" lon="1.5278">
        <ele>196</ele>
        <time>2013-06-22T18:36:29Z</time>
      </trkpt>
      <trkpt lat="49.92846" lon="1.52785">
        <ele>195.9</ele>
        <time>2013-06-22T18:36:35Z</time>
      </trkpt>
      <trkpt lat="49.92847" lon="1.52793">
        <ele>195.7</ele>
        <time>2013-06-22T18:36:40Z</time>
      </trkpt>
      <trkpt lat="49.9285" lon="1.52799">
        <ele>195.5</ele>
        <time>2013-06-22T18:36:46Z</time>
      </trkpt>
      <trkpt lat="49.92854" lon="1.52806">
        <ele>195.3</ele>
        <time>2013-06-22T18:36:50Z</time>
      </trkpt>
      <trkpt lat="49.92859" lon="1.52811">
        <ele>195.1</ele>
        <time>2013-06-22T18:36:54Z</time>
      </trkpt>
      <trkpt lat="49.92863" lon="1.52816">
        <ele>195</ele>
        <time>2013-06-22T18:36:58Z</time>
      </trkpt>
      <trkpt lat="49.92867" lon="1.52817">
        <ele>194.9</ele>
        <time>2013-06-22T18:37:00Z</time>
      </trkpt>
      <trkpt lat="49.92875" lon="1.52819">
        <ele>194.8</ele>
        <time>2013-06-22T18:37:02Z</time>
      </trkpt>
      <trkpt lat="49.92879" lon="1.52823">
        <ele>194.6</ele>
        <time>2013-06-22T18:37:07Z</time>
      </trkpt>
      <trkpt lat="49.92885" lon="1.52825">
        <ele>194.4</ele>
        <time>2013-06-22T18:37:12Z</time>
      </trkpt>
      <trkpt lat="49.92885" lon="1.52832">
        <ele>194.2</ele>
        <time>2013-06-22T18:37:18Z</time>
      </trkpt>
      <trkpt lat="49.92891" lon="1.52836">
        <ele>193.8</ele>
        <time>2013-06-22T18:37:22Z</time>
      </trkpt>
      <trkpt lat="49.92896" lon="1.52839">
        <ele>193.6</ele>
        <time>2013-06-22T18:37:26Z</time>
      </trkpt>
      <trkpt lat="49.929" lon="1.52845">
        <ele>193.3</ele>
        <time>2013-06-22T18:37:34Z</time>
      </trkpt>
      <trkpt lat="49.92905" lon="1.52847">
        <ele>193.2</ele>
        <time>2013-06-22T18:37:37Z</time>
      </trkpt>
      <trkpt lat="49.92911" lon="1.52847">
        <ele>193.1</ele>
        <time>2013-06-22T18:37:40Z</time>
      </trkpt>
      <trkpt lat="49.92919" lon="1.52849">
        <ele>193</ele>
        <time>2013-06-22T18:37:42Z</time>
      </trkpt>
      <trkpt lat="49.92924" lon="1.52857">
        <ele>192.8</ele>
        <time>2013-06-22T18:37:52Z</time>
      </trkpt>
      <trkpt lat="49.92931" lon="1.5286">
        <ele>192.5</ele>
        <time>2013-06-22T18:37:54Z</time>
      </trkpt>
      <trkpt lat="49.92936" lon="1.52865">
        <ele>192.3</ele>
        <time>2013-06-22T18:37:57Z</time>
      </trkpt>
      <trkpt lat="49.92936" lon="1.52873">
        <ele>192.2</ele>
        <time>2013-06-22T18:38:06Z</time>
      </trkpt>
      <trkpt lat="49.92935" lon="1.52881">
        <ele>192.1</ele>
        <time>2013-06-22T18:38:12Z</time>
      </trkpt>
      <trkpt lat="49.92939" lon="1.52886">
        <ele>192</ele>
        <time>2013-06-22T18:38:17Z</time>
      </trkpt>
      <trkpt lat="49.92944" lon="1.5289">
        <ele>192</ele>
        <time>2013-06-22T18:38:20Z</time>
      </trkpt>
      <trkpt lat="49.92946" lon="1.52896">
        <ele>191.7</ele>
        <time>2013-06-22T18:38:26Z</time>
      </trkpt>
      <trkpt lat="49.92952" lon="1.52898">
        <ele>191.5</ele>
        <time>2013-06-22T18:38:29Z</time>
      </trkpt>
      <trkpt lat="49.92958" lon="1.52899">
        <ele>191.3</ele>
        <time>2013-06-22T18:38:31Z</time>
      </trkpt>
      <trkpt lat="49.92963" lon="1.52902">
        <ele>191.2</ele>
        <time>2013-06-22T18:38:34Z</time>
      </trkpt>
      <trkpt lat="49.92968" lon="1.52903">
        <ele>191.1</ele>
        <time>2013-06-22T18:38:36Z</time>
      </trkpt>
      <trkpt lat="49.92971" lon="1.52909">
        <ele>191</ele>
        <time>2013-06-22T18:38:42Z</time>
      </trkpt>
      <trkpt lat="49.92976" lon="1.52913">
        <ele>190.9</ele>
        <time>2013-06-22T18:38:48Z</time>
      </trkpt>
      <trkpt lat="49.92979" lon="1.52917">
        <ele>190.7</ele>
        <time>2013-06-22T18:38:52Z</time>
      </trkpt>
      <trkpt lat="49.92984" lon="1.52923">
        <ele>190.4</ele>
        <time>2013-06-22T18:38:58Z</time>
      </trkpt>
      <trkpt lat="49.92989" lon="1.52927">
        <ele>190.2</ele>
        <time>2013-06-22T18:39:01Z</time>
      </trkpt>
      <trkpt lat="49.92993" lon="1.52932">
        <ele>190.1</ele>
        <time>2013-06-22T18:39:07Z</time>
      </trkpt>
      <trkpt lat="49.92995" lon="1.52938">
        <ele>190</ele>
        <time>2013-06-22T18:39:12Z</time>
      </trkpt>
      <trkpt lat="49.92999" lon="1.52943">
        <ele>190</ele>
        <time>2013-06-22T18:39:16Z</time>
      </trkpt>
      <trkpt lat="49.93002" lon="1.5295">
        <ele>189.8</ele>
        <time>2013-06-22T18:39:23Z</time>
      </trkpt>
      <trkpt lat="49.93006" lon="1.52954">
        <ele>189.5</ele>
        <time>2013-06-22T18:39:27Z</time>
      </trkpt>
      <trkpt lat="49.93013" lon="1.52956">
        <ele>189.3</ele>
        <time>2013-06-22T18:39:30Z</time>
      </trkpt>
      <trkpt lat="49.93018" lon="1.52959">
        <ele>189.2</ele>
        <time>2013-06-22T18:39:33Z</time>
      </trkpt>
      <trkpt lat="49.93025" lon="1.5296">
        <ele>189</ele>
        <time>2013-06-22T18:39:35Z</time>
      </trkpt>
      <trkpt lat="49.93032" lon="1.52961">
        <ele>188.9</ele>
        <time>2013-06-22T18:39:37Z</time>
      </trkpt>
      <trkpt lat="49.93037" lon="1.52961">
        <ele>188.7</ele>
        <time>2013-06-22T18:39:44Z</time>
      </trkpt>
      <trkpt lat="49.93043" lon="1.5296">
        <ele>188.5</ele>
        <time>2013-06-22T18:39:46Z</time>
      </trkpt>
      <trkpt lat="49.93043" lon="1.52952">
        <ele>188.4</ele>
        <time>2013-06-22T18:39:52Z</time>
      </trkpt>
      <trkpt lat="49.93048" lon="1.52948">
        <ele>188.3</ele>
        <time>2013-06-22T18:39:56Z</time>
      </trkpt>
      <trkpt lat="49.93053" lon="1.52944">
        <ele>188.1</ele>
        <time>2013-06-22T18:39:59Z</time>
      </trkpt>
      <trkpt lat="49.93061" lon="1.52942">
        <ele>187.8</ele>
        <time>2013-06-22T18:40:04Z</time>
      </trkpt>
      <trkpt lat="49.93065" lon="1.52941">
        <ele>187.7</ele>
        <time>2013-06-22T18:40:08Z</time>
      </trkpt>
      <trkpt lat="49.93071" lon="1.5294">
        <ele>187.5</ele>
        <time>2013-06-22T18:40:11Z</time>
      </trkpt>
      <trkpt lat="49.93071" lon="1.52937">
        <ele>187.6</ele>
        <time>2013-06-22T18:40:20Z</time>
      </trkpt>
      <trkpt lat="49.93077" lon="1.52936">
        <ele>187.5</ele>
        <time>2013-06-22T18:40:24Z</time>
      </trkpt>
      <trkpt lat="49.93082" lon="1.52933">
        <ele>187.5</ele>
        <time>2013-06-22T18:40:29Z</time>
      </trkpt>
      <trkpt lat="49.93086" lon="1.52927">
        <ele>187.6</ele>
        <time>2013-06-22T18:40:34Z</time>
      </trkpt>
      <trkpt lat="49.93096" lon="1.52922">
        <ele>187.5</ele>
        <time>2013-06-22T18:40:41Z</time>
      </trkpt>
      <trkpt lat="49.93101" lon="1.52921">
        <ele>187.3</ele>
        <time>2013-06-22T18:40:44Z</time>
      </trkpt>
      <trkpt lat="49.93106" lon="1.52918">
        <ele>187.2</ele>
        <time>2013-06-22T18:40:49Z</time>
      </trkpt>
      <trkpt lat="49.93116" lon="1.52913">
        <ele>187.3</ele>
        <time>2013-06-22T18:40:57Z</time>
      </trkpt>
      <trkpt lat="49.93122" lon="1.52912">
        <ele>187.5</ele>
        <time>2013-06-22T18:41:00Z</time>
      </trkpt>
      <trkpt lat="49.93128" lon="1.52911">
        <ele>187.7</ele>
        <time>2013-06-22T18:41:02Z</time>
      </trkpt>
      <trkpt lat="49.93134" lon="1.5291">
        <ele>187.9</ele>
        <time>2013-06-22T18:41:04Z</time>
      </trkpt>
      <trkpt lat="49.93142" lon="1.52911">
        <ele>188</ele>
        <time>2013-06-22T18:41:06Z</time>
      </trkpt>
      <trkpt lat="49.93146" lon="1.52912">
        <ele>188</ele>
        <time>2013-06-22T18:41:09Z</time>
      </trkpt>
      <trkpt lat="49.93144" lon="1.52905">
        <ele>188.1</ele>
        <time>2013-06-22T18:41:16Z</time>
      </trkpt>
      <trkpt lat="49.9315" lon="1.52905">
        <ele>188.2</ele>
        <time>2013-06-22T18:41:21Z</time>
      </trkpt>
      <trkpt lat="49.93154" lon="1.52902">
        <ele>188.3</ele>
        <time>2013-06-22T18:41:24Z</time>
      </trkpt>
      <trkpt lat="49.9316" lon="1.52901">
        <ele>188.4</ele>
        <time>2013-06-22T18:41:28Z</time>
      </trkpt>
      <trkpt lat="49.93165" lon="1.52901">
        <ele>188.5</ele>
        <time>2013-06-22T18:41:31Z</time>
      </trkpt>
      <trkpt lat="49.93169" lon="1.52898">
        <ele>188.7</ele>
        <time>2013-06-22T18:41:36Z</time>
      </trkpt>
      <trkpt lat="49.93174" lon="1.52896">
        <ele>188.8</ele>
        <time>2013-06-22T18:41:47Z</time>
      </trkpt>
      <trkpt lat="49.93178" lon="1.52892">
        <ele>188.9</ele>
        <time>2013-06-22T18:41:53Z</time>
      </trkpt>
      <trkpt lat="49.93186" lon="1.52886">
        <ele>189.1</ele>
        <time>2013-06-22T18:42:09Z</time>
      </trkpt>
      <trkpt lat="49.93191" lon="1.52883">
        <ele>189.2</ele>
        <time>2013-06-22T18:42:19Z</time>
      </trkpt>
      <trkpt lat="49.93195" lon="1.52878">
        <ele>189.4</ele>
        <time>2013-06-22T18:42:26Z</time>
      </trkpt>
      <trkpt lat="49.93204" lon="1.52875">
        <ele>189.3</ele>
        <time>2013-06-22T18:42:34Z</time>
      </trkpt>
      <trkpt lat="49.93209" lon="1.52873">
        <ele>189.3</ele>
        <time>2013-06-22T18:42:38Z</time>
      </trkpt>
      <trkpt lat="49.93219" lon="1.52871">
        <ele>189.1</ele>
        <time>2013-06-22T18:42:43Z</time>
      </trkpt>
      <trkpt lat="49.93225" lon="1.52871">
        <ele>189</ele>
        <time>2013-06-22T18:42:46Z</time>
      </trkpt>
      <trkpt lat="49.9323" lon="1.5287">
        <ele>188.9</ele>
        <time>2013-06-22T18:42:51Z</time>
      </trkpt>
      <trkpt lat="49.93234" lon="1.52866">
        <ele>188.9</ele>
        <time>2013-06-22T18:42:56Z</time>
      </trkpt>
      <trkpt lat="49.93239" lon="1.52865">
        <ele>188.9</ele>
        <time>2013-06-22T18:42:58Z</time>
      </trkpt>
      <trkpt lat="49.93244" lon="1.52863">
        <ele>189</ele>
        <time>2013-06-22T18:43:02Z</time>
      </trkpt>
      <trkpt lat="49.93246" lon="1.52855">
        <ele>189</ele>
        <time>2013-06-22T18:43:07Z</time>
      </trkpt>
      <trkpt lat="49.93251" lon="1.52851">
        <ele>189</ele>
        <time>2013-06-22T18:43:12Z</time>
      </trkpt>
      <trkpt lat="49.93257" lon="1.52847">
        <ele>188.8</ele>
        <time>2013-06-22T18:43:16Z</time>
      </trkpt>
      <trkpt lat="49.93262" lon="1.52846">
        <ele>188.6</ele>
        <time>2013-06-22T18:43:20Z</time>
      </trkpt>
      <trkpt lat="49.93266" lon="1.5284">
        <ele>188.4</ele>
        <time>2013-06-22T18:43:25Z</time>
      </trkpt>
      <trkpt lat="49.93276" lon="1.52841">
        <ele>188.1</ele>
        <time>2013-06-22T18:43:34Z</time>
      </trkpt>
      <trkpt lat="49.93281" lon="1.52837">
        <ele>187.9</ele>
        <time>2013-06-22T18:43:38Z</time>
      </trkpt>
      <trkpt lat="49.93286" lon="1.52835">
        <ele>187.7</ele>
        <time>2013-06-22T18:43:42Z</time>
      </trkpt>
      <trkpt lat="49.93291" lon="1.52833">
        <ele>187.5</ele>
        <time>2013-06-22T18:43:47Z</time>
      </trkpt>
      <trkpt lat="49.93295" lon="1.5283">
        <ele>187.3</ele>
        <time>2013-06-22T18:43:50Z</time>
      </trkpt>
      <trkpt lat="49.93304" lon="1.52826">
        <ele>187</ele>
        <time>2013-06-22T18:43:58Z</time>
      </trkpt>
      <trkpt lat="49.93309" lon="1.52825">
        <ele>187</ele>
        <time>2013-06-22T18:44:02Z</time>
      </trkpt>
      <trkpt lat="49.93314" lon="1.52822">
        <ele>186.9</ele>
        <time>2013-06-22T18:44:05Z</time>
      </trkpt>
      <trkpt lat="49.93319" lon="1.5282">
        <ele>186.8</ele>
        <time>2013-06-22T18:44:09Z</time>
      </trkpt>
      <trkpt lat="49.93323" lon="1.52816">
        <ele>186.6</ele>
        <time>2013-06-22T18:44:13Z</time>
      </trkpt>
      <trkpt lat="49.93329" lon="1.52813">
        <ele>186.4</ele>
        <time>2013-06-22T18:44:18Z</time>
      </trkpt>
      <trkpt lat="49.93334" lon="1.52812">
        <ele>186.2</ele>
        <time>2013-06-22T18:44:21Z</time>
      </trkpt>
      <trkpt lat="49.93338" lon="1.52807">
        <ele>186</ele>
        <time>2013-06-22T18:44:29Z</time>
      </trkpt>
      <trkpt lat="49.93344" lon="1.52804">
        <ele>185.9</ele>
        <time>2013-06-22T18:44:33Z</time>
      </trkpt>
      <trkpt lat="49.93349" lon="1.52802">
        <ele>185.9</ele>
        <time>2013-06-22T18:44:37Z</time>
      </trkpt>
      <trkpt lat="49.93354" lon="1.52798">
        <ele>185.7</ele>
        <time>2013-06-22T18:44:41Z</time>
      </trkpt>
      <trkpt lat="49.93359" lon="1.52796">
        <ele>185.6</ele>
        <time>2013-06-22T18:44:45Z</time>
      </trkpt>
      <trkpt lat="49.93368" lon="1.52792">
        <ele>185.4</ele>
        <time>2013-06-22T18:44:51Z</time>
      </trkpt>
      <trkpt lat="49.93374" lon="1.52789">
        <ele>185.2</ele>
        <time>2013-06-22T18:44:55Z</time>
      </trkpt>
      <trkpt lat="49.93379" lon="1.52788">
        <ele>185.1</ele>
        <time>2013-06-22T18:44:59Z</time>
      </trkpt>
      <trkpt lat="49.93389" lon="1.52784">
        <ele>185</ele>
        <time>2013-06-22T18:45:07Z</time>
      </trkpt>
      <trkpt lat="49.93393" lon="1.52782">
        <ele>185</ele>
        <time>2013-06-22T18:45:10Z</time>
      </trkpt>
      <trkpt lat="49.93399" lon="1.52781">
        <ele>185</ele>
        <time>2013-06-22T18:45:14Z</time>
      </trkpt>
      <trkpt lat="49.93404" lon="1.52779">
        <ele>185</ele>
        <time>2013-06-22T18:45:18Z</time>
      </trkpt>
      <trkpt lat="49.93413" lon="1.52778">
        <ele>185</ele>
        <time>2013-06-22T18:45:28Z</time>
      </trkpt>
      <trkpt lat="49.93418" lon="1.52778">
        <ele>185</ele>
        <time>2013-06-22T18:45:31Z</time>
      </trkpt>
      <trkpt lat="49.93423" lon="1.52777">
        <ele>184.7</ele>
        <time>2013-06-22T18:45:35Z</time>
      </trkpt>
      <trkpt lat="49.93427" lon="1.52774">
        <ele>184.4</ele>
        <time>2013-06-22T18:45:39Z</time>
      </trkpt>
      <trkpt lat="49.93432" lon="1.52771">
        <ele>184.1</ele>
        <time>2013-06-22T18:45:44Z</time>
      </trkpt>
      <trkpt lat="49.93436" lon="1.52768">
        <ele>183.8</ele>
        <time>2013-06-22T18:45:50Z</time>
      </trkpt>
      <trkpt lat="49.93441" lon="1.52761">
        <ele>183.5</ele>
        <time>2013-06-22T18:45:55Z</time>
      </trkpt>
      <trkpt lat="49.93446" lon="1.5276">
        <ele>183.4</ele>
        <time>2013-06-22T18:45:57Z</time>
      </trkpt>
      <trkpt lat="49.93451" lon="1.52757">
        <ele>183.3</ele>
        <time>2013-06-22T18:46:00Z</time>
      </trkpt>
      <trkpt lat="49.93456" lon="1.52753">
        <ele>183.1</ele>
        <time>2013-06-22T18:46:04Z</time>
      </trkpt>
      <trkpt lat="49.93461" lon="1.5275">
        <ele>183</ele>
        <time>2013-06-22T18:46:07Z</time>
      </trkpt>
      <trkpt lat="49.93469" lon="1.52745">
        <ele>182.7</ele>
        <time>2013-06-22T18:46:15Z</time>
      </trkpt>
      <trkpt lat="49.93474" lon="1.52743">
        <ele>182.4</ele>
        <time>2013-06-22T18:46:20Z</time>
      </trkpt>
      <trkpt lat="49.93479" lon="1.5274">
        <ele>182</ele>
        <time>2013-06-22T18:46:24Z</time>
      </trkpt>
      <trkpt lat="49.93484" lon="1.52738">
        <ele>181.7</ele>
        <time>2013-06-22T18:46:27Z</time>
      </trkpt>
      <trkpt lat="49.93493" lon="1.52733">
        <ele>181</ele>
        <time>2013-06-22T18:46:36Z</time>
      </trkpt>
      <trkpt lat="49.93496" lon="1.52729">
        <ele>180.6</ele>
        <time>2013-06-22T18:46:41Z</time>
      </trkpt>
      <trkpt lat="49.93502" lon="1.52727">
        <ele>180.3</ele>
        <time>2013-06-22T18:46:47Z</time>
      </trkpt>
      <trkpt lat="49.93506" lon="1.52728">
        <ele>180.2</ele>
        <time>2013-06-22T18:46:50Z</time>
      </trkpt>
      <trkpt lat="49.93511" lon="1.52727">
        <ele>179.9</ele>
        <time>2013-06-22T18:46:55Z</time>
      </trkpt>
      <trkpt lat="49.93517" lon="1.52727">
        <ele>179.8</ele>
        <time>2013-06-22T18:46:59Z</time>
      </trkpt>
      <trkpt lat="49.93522" lon="1.52725">
        <ele>179.4</ele>
        <time>2013-06-22T18:47:04Z</time>
      </trkpt>
      <trkpt lat="49.93527" lon="1.52724">
        <ele>179.2</ele>
        <time>2013-06-22T18:47:08Z</time>
      </trkpt>
      <trkpt lat="49.93531" lon="1.52722">
        <ele>178.9</ele>
        <time>2013-06-22T18:47:11Z</time>
      </trkpt>
      <trkpt lat="49.93536" lon="1.5272">
        <ele>178.6</ele>
        <time>2013-06-22T18:47:16Z</time>
      </trkpt>
      <trkpt lat="49.93541" lon="1.5272">
        <ele>178.4</ele>
        <time>2013-06-22T18:47:20Z</time>
      </trkpt>
      <trkpt lat="49.93546" lon="1.52717">
        <ele>178.2</ele>
        <time>2013-06-22T18:47:26Z</time>
      </trkpt>
      <trkpt lat="49.93551" lon="1.52715">
        <ele>177.9</ele>
        <time>2013-06-22T18:47:29Z</time>
      </trkpt>
      <trkpt lat="49.93559" lon="1.52708">
        <ele>177.3</ele>
        <time>2013-06-22T18:47:37Z</time>
      </trkpt>
      <trkpt lat="49.93563" lon="1.52707">
        <ele>177</ele>
        <time>2013-06-22T18:47:40Z</time>
      </trkpt>
      <trkpt lat="49.93568" lon="1.52707">
        <ele>176.7</ele>
        <time>2013-06-22T18:47:43Z</time>
      </trkpt>
      <trkpt lat="49.93573" lon="1.52706">
        <ele>176.4</ele>
        <time>2013-06-22T18:47:47Z</time>
      </trkpt>
      <trkpt lat="49.93578" lon="1.52704">
        <ele>176</ele>
        <time>2013-06-22T18:47:51Z</time>
      </trkpt>
      <trkpt lat="49.93585" lon="1.52695">
        <ele>175</ele>
        <time>2013-06-22T18:47:59Z</time>
      </trkpt>
      <trkpt lat="49.93594" lon="1.52694">
        <ele>175</ele>
        <time>2013-06-22T18:48:07Z</time>
      </trkpt>
      <trkpt lat="49.93599" lon="1.52694">
        <ele>174.9</ele>
        <time>2013-06-22T18:48:11Z</time>
      </trkpt>
      <trkpt lat="49.93603" lon="1.52689">
        <ele>174.6</ele>
        <time>2013-06-22T18:48:19Z</time>
      </trkpt>
      <trkpt lat="49.93607" lon="1.52685">
        <ele>174.4</ele>
        <time>2013-06-22T18:48:24Z</time>
      </trkpt>
      <trkpt lat="49.93612" lon="1.52682">
        <ele>174.1</ele>
        <time>2013-06-22T18:48:30Z</time>
      </trkpt>
      <trkpt lat="49.93616" lon="1.52678">
        <ele>173.8</ele>
        <time>2013-06-22T18:48:36Z</time>
      </trkpt>
      <trkpt lat="49.93619" lon="1.52673">
        <ele>173.4</ele>
        <time>2013-06-22T18:48:43Z</time>
      </trkpt>
      <trkpt lat="49.93624" lon="1.52672">
        <ele>173.3</ele>
        <time>2013-06-22T18:48:49Z</time>
      </trkpt>
      <trkpt lat="49.9363" lon="1.5267">
        <ele>173.2</ele>
        <time>2013-06-22T18:48:53Z</time>
      </trkpt>
      <trkpt lat="49.93635" lon="1.52669">
        <ele>173.1</ele>
        <time>2013-06-22T18:48:56Z</time>
      </trkpt>
      <trkpt lat="49.9364" lon="1.52668">
        <ele>173</ele>
        <time>2013-06-22T18:48:59Z</time>
      </trkpt>
      <trkpt lat="49.93646" lon="1.52668">
        <ele>172.8</ele>
        <time>2013-06-22T18:49:02Z</time>
      </trkpt>
      <trkpt lat="49.93651" lon="1.52666">
        <ele>172.5</ele>
        <time>2013-06-22T18:49:06Z</time>
      </trkpt>
      <trkpt lat="49.93655" lon="1.52663">
        <ele>172.1</ele>
        <time>2013-06-22T18:49:10Z</time>
      </trkpt>
      <trkpt lat="49.9366" lon="1.52662">
        <ele>171.9</ele>
        <time>2013-06-22T18:49:15Z</time>
      </trkpt>
      <trkpt lat="49.93665" lon="1.5266">
        <ele>171.6</ele>
        <time>2013-06-22T18:49:21Z</time>
      </trkpt>
      <trkpt lat="49.9367" lon="1.52658">
        <ele>171.4</ele>
        <time>2013-06-22T18:49:25Z</time>
      </trkpt>
      <trkpt lat="49.93674" lon="1.52653">
        <ele>171</ele>
        <time>2013-06-22T18:49:28Z</time>
      </trkpt>
      <trkpt lat="49.93677" lon="1.52648">
        <ele>170.6</ele>
        <time>2013-06-22T18:49:32Z</time>
      </trkpt>
      <trkpt lat="49.93682" lon="1.52644">
        <ele>170.3</ele>
        <time>2013-06-22T18:49:36Z</time>
      </trkpt>
      <trkpt lat="49.93687" lon="1.5264">
        <ele>170.1</ele>
        <time>2013-06-22T18:49:41Z</time>
      </trkpt>
      <trkpt lat="49.93692" lon="1.52641">
        <ele>170.1</ele>
        <time>2013-06-22T18:49:45Z</time>
      </trkpt>
      <trkpt lat="49.93702" lon="1.52636">
        <ele>169.3</ele>
        <time>2013-06-22T18:49:55Z</time>
      </trkpt>
      <trkpt lat="49.93707" lon="1.52633">
        <ele>168.8</ele>
        <time>2013-06-22T18:49:59Z</time>
      </trkpt>
      <trkpt lat="49.93714" lon="1.52624">
        <ele>167.3</ele>
        <time>2013-06-22T18:50:07Z</time>
      </trkpt>
      <trkpt lat="49.93719" lon="1.5262">
        <ele>166.4</ele>
        <time>2013-06-22T18:50:11Z</time>
      </trkpt>
      <trkpt lat="49.93725" lon="1.5262">
        <ele>166.2</ele>
        <time>2013-06-22T18:50:17Z</time>
      </trkpt>
      <trkpt lat="49.9373" lon="1.5262">
        <ele>166</ele>
        <time>2013-06-22T18:50:20Z</time>
      </trkpt>
      <trkpt lat="49.93735" lon="1.52619">
        <ele>165.6</ele>
        <time>2013-06-22T18:50:22Z</time>
      </trkpt>
      <trkpt lat="49.93739" lon="1.52619">
        <ele>165.4</ele>
        <time>2013-06-22T18:50:24Z</time>
      </trkpt>
      <trkpt lat="49.93745" lon="1.5262">
        <ele>165.4</ele>
        <time>2013-06-22T18:50:28Z</time>
      </trkpt>
      <trkpt lat="49.93749" lon="1.52614">
        <ele>164.4</ele>
        <time>2013-06-22T18:50:32Z</time>
      </trkpt>
      <trkpt lat="49.93754" lon="1.52613">
        <ele>164.2</ele>
        <time>2013-06-22T18:50:38Z</time>
      </trkpt>
      <trkpt lat="49.93759" lon="1.52609">
        <ele>163.6</ele>
        <time>2013-06-22T18:50:42Z</time>
      </trkpt>
      <trkpt lat="49.93763" lon="1.52603">
        <ele>162.7</ele>
        <time>2013-06-22T18:50:47Z</time>
      </trkpt>
      <trkpt lat="49.93768" lon="1.526">
        <ele>162.2</ele>
        <time>2013-06-22T18:50:51Z</time>
      </trkpt>
      <trkpt lat="49.93773" lon="1.52599">
        <ele>162</ele>
        <time>2013-06-22T18:50:55Z</time>
      </trkpt>
      <trkpt lat="49.93778" lon="1.52597">
        <ele>161.4</ele>
        <time>2013-06-22T18:50:59Z</time>
      </trkpt>
      <trkpt lat="49.93782" lon="1.52594">
        <ele>160.9</ele>
        <time>2013-06-22T18:51:02Z</time>
      </trkpt>
      <trkpt lat="49.93787" lon="1.52594">
        <ele>160.8</ele>
        <time>2013-06-22T18:51:05Z</time>
      </trkpt>
      <trkpt lat="49.93792" lon="1.52592">
        <ele>160.4</ele>
        <time>2013-06-22T18:51:08Z</time>
      </trkpt>
      <trkpt lat="49.93797" lon="1.5259">
        <ele>160.1</ele>
        <time>2013-06-22T18:51:12Z</time>
      </trkpt>
      <trkpt lat="49.93801" lon="1.5259">
        <ele>160</ele>
        <time>2013-06-22T18:51:15Z</time>
      </trkpt>
      <trkpt lat="49.93806" lon="1.52589">
        <ele>159.7</ele>
        <time>2013-06-22T18:51:19Z</time>
      </trkpt>
      <trkpt lat="49.93811" lon="1.52587">
        <ele>159.5</ele>
        <time>2013-06-22T18:51:23Z</time>
      </trkpt>
      <trkpt lat="49.93816" lon="1.52583">
        <ele>159</ele>
        <time>2013-06-22T18:51:27Z</time>
      </trkpt>
      <trkpt lat="49.93824" lon="1.52579">
        <ele>158.2</ele>
        <time>2013-06-22T18:51:36Z</time>
      </trkpt>
      <trkpt lat="49.93828" lon="1.52574">
        <ele>157.3</ele>
        <time>2013-06-22T18:51:44Z</time>
      </trkpt>
      <trkpt lat="49.93837" lon="1.52566">
        <ele>155.8</ele>
        <time>2013-06-22T18:51:52Z</time>
      </trkpt>
      <trkpt lat="49.93843" lon="1.52563">
        <ele>155.4</ele>
        <time>2013-06-22T18:51:56Z</time>
      </trkpt>
      <trkpt lat="49.93848" lon="1.52562">
        <ele>155.1</ele>
        <time>2013-06-22T18:52:00Z</time>
      </trkpt>
      <trkpt lat="49.93852" lon="1.52557">
        <ele>154.3</ele>
        <time>2013-06-22T18:52:04Z</time>
      </trkpt>
      <trkpt lat="49.93858" lon="1.52556">
        <ele>154.1</ele>
        <time>2013-06-22T18:52:08Z</time>
      </trkpt>
      <trkpt lat="49.93863" lon="1.52557">
        <ele>154.2</ele>
        <time>2013-06-22T18:52:14Z</time>
      </trkpt>
      <trkpt lat="49.93868" lon="1.52554">
        <ele>153.8</ele>
        <time>2013-06-22T18:52:18Z</time>
      </trkpt>
      <trkpt lat="49.93872" lon="1.52552">
        <ele>153.3</ele>
        <time>2013-06-22T18:52:22Z</time>
      </trkpt>
      <trkpt lat="49.93877" lon="1.52549">
        <ele>152.9</ele>
        <time>2013-06-22T18:52:26Z</time>
      </trkpt>
      <trkpt lat="49.93882" lon="1.52547">
        <ele>152.4</ele>
        <time>2013-06-22T18:52:32Z</time>
      </trkpt>
      <trkpt lat="49.93891" lon="1.52543">
        <ele>151.7</ele>
        <time>2013-06-22T18:52:40Z</time>
      </trkpt>
      <trkpt lat="49.93895" lon="1.52539">
        <ele>151.2</ele>
        <time>2013-06-22T18:52:44Z</time>
      </trkpt>
      <trkpt lat="49.939" lon="1.52538">
        <ele>151.3</ele>
        <time>2013-06-22T18:52:49Z</time>
      </trkpt>
      <trkpt lat="49.93905" lon="1.52537">
        <ele>151.2</ele>
        <time>2013-06-22T18:52:53Z</time>
      </trkpt>
      <trkpt lat="49.9391" lon="1.52535">
        <ele>151.1</ele>
        <time>2013-06-22T18:52:57Z</time>
      </trkpt>
      <trkpt lat="49.93951" lon="1.52503">
        <ele>145.8</ele>
        <time>2013-06-22T18:57:23Z</time>
      </trkpt>
      <trkpt lat="49.9396" lon="1.52499">
        <ele>145.4</ele>
        <time>2013-06-22T18:57:31Z</time>
      </trkpt>
      <trkpt lat="49.93966" lon="1.525">
        <ele>145.8</ele>
        <time>2013-06-22T18:57:33Z</time>
      </trkpt>
      <trkpt lat="49.93971" lon="1.52498">
        <ele>145.6</ele>
        <time>2013-06-22T18:57:36Z</time>
      </trkpt>
      <trkpt lat="49.93976" lon="1.52497">
        <ele>145.6</ele>
        <time>2013-06-22T18:57:39Z</time>
      </trkpt>
      <trkpt lat="49.93982" lon="1.52495">
        <ele>145.3</ele>
        <time>2013-06-22T18:57:43Z</time>
      </trkpt>
      <trkpt lat="49.93986" lon="1.52492">
        <ele>144.8</ele>
        <time>2013-06-22T18:57:48Z</time>
      </trkpt>
      <trkpt lat="49.9399" lon="1.52486">
        <ele>143.9</ele>
        <time>2013-06-22T18:57:56Z</time>
      </trkpt>
      <trkpt lat="49.93995" lon="1.52485">
        <ele>143.8</ele>
        <time>2013-06-22T18:58:00Z</time>
      </trkpt>
      <trkpt lat="49.94" lon="1.52485">
        <ele>143.8</ele>
        <time>2013-06-22T18:58:04Z</time>
      </trkpt>
      <trkpt lat="49.94005" lon="1.52486">
        <ele>144.1</ele>
        <time>2013-06-22T18:58:08Z</time>
      </trkpt>
      <trkpt lat="49.9401" lon="1.52486">
        <ele>144.4</ele>
        <time>2013-06-22T18:58:13Z</time>
      </trkpt>
      <trkpt lat="49.94019" lon="1.5248">
        <ele>143.2</ele>
        <time>2013-06-22T18:58:21Z</time>
      </trkpt>
      <trkpt lat="49.94024" lon="1.52477">
        <ele>142.8</ele>
        <time>2013-06-22T18:58:28Z</time>
      </trkpt>
      <trkpt lat="49.94034" lon="1.52473">
        <ele>142.4</ele>
        <time>2013-06-22T18:58:34Z</time>
      </trkpt>
      <trkpt lat="49.94039" lon="1.5247">
        <ele>142</ele>
        <time>2013-06-22T18:58:38Z</time>
      </trkpt>
      <trkpt lat="49.94043" lon="1.52469">
        <ele>141.9</ele>
        <time>2013-06-22T18:58:41Z</time>
      </trkpt>
      <trkpt lat="49.94047" lon="1.52465">
        <ele>141.4</ele>
        <time>2013-06-22T18:58:49Z</time>
      </trkpt>
      <trkpt lat="49.94053" lon="1.52464">
        <ele>141.3</ele>
        <time>2013-06-22T18:58:57Z</time>
      </trkpt>
      <trkpt lat="49.94058" lon="1.52461">
        <ele>141.1</ele>
        <time>2013-06-22T18:59:02Z</time>
      </trkpt>
      <trkpt lat="49.94064" lon="1.52461">
        <ele>141.4</ele>
        <time>2013-06-22T18:59:05Z</time>
      </trkpt>
      <trkpt lat="49.94069" lon="1.52459">
        <ele>141.3</ele>
        <time>2013-06-22T18:59:08Z</time>
      </trkpt>
      <trkpt lat="49.94073" lon="1.52455">
        <ele>140.7</ele>
        <time>2013-06-22T18:59:13Z</time>
      </trkpt>
      <trkpt lat="49.94078" lon="1.52453">
        <ele>140.5</ele>
        <time>2013-06-22T18:59:20Z</time>
      </trkpt>
      <trkpt lat="49.94084" lon="1.5245">
        <ele>140.3</ele>
        <time>2013-06-22T18:59:24Z</time>
      </trkpt>
      <trkpt lat="49.94088" lon="1.52449">
        <ele>140.3</ele>
        <time>2013-06-22T18:59:29Z</time>
      </trkpt>
      <trkpt lat="49.94093" lon="1.52446">
        <ele>140</ele>
        <time>2013-06-22T18:59:33Z</time>
      </trkpt>
      <trkpt lat="49.94097" lon="1.52441">
        <ele>139.2</ele>
        <time>2013-06-22T18:59:37Z</time>
      </trkpt>
      <trkpt lat="49.94102" lon="1.52438">
        <ele>139.1</ele>
        <time>2013-06-22T18:59:42Z</time>
      </trkpt>
      <trkpt lat="49.94106" lon="1.52435">
        <ele>138.5</ele>
        <time>2013-06-22T18:59:46Z</time>
      </trkpt>
      <trkpt lat="49.94111" lon="1.52431">
        <ele>138.1</ele>
        <time>2013-06-22T18:59:50Z</time>
      </trkpt>
      <trkpt lat="49.94115" lon="1.52428">
        <ele>137.6</ele>
        <time>2013-06-22T18:59:55Z</time>
      </trkpt>
      <trkpt lat="49.9412" lon="1.52425">
        <ele>137.2</ele>
        <time>2013-06-22T19:00:01Z</time>
      </trkpt>
      <trkpt lat="49.94125" lon="1.52423">
        <ele>136.9</ele>
        <time>2013-06-22T19:00:06Z</time>
      </trkpt>
      <trkpt lat="49.94131" lon="1.52422">
        <ele>136.9</ele>
        <time>2013-06-22T19:00:10Z</time>
      </trkpt>
      <trkpt lat="49.94136" lon="1.5242">
        <ele>136.6</ele>
        <time>2013-06-22T19:00:14Z</time>
      </trkpt>
      <trkpt lat="49.94141" lon="1.52418">
        <ele>136.3</ele>
        <time>2013-06-22T19:00:18Z</time>
      </trkpt>
      <trkpt lat="49.94149" lon="1.52416">
        <ele>135.8</ele>
        <time>2013-06-22T19:00:24Z</time>
      </trkpt>
      <trkpt lat="49.94154" lon="1.52413">
        <ele>135.3</ele>
        <time>2013-06-22T19:00:29Z</time>
      </trkpt>
      <trkpt lat="49.94158" lon="1.5241">
        <ele>134.7</ele>
        <time>2013-06-22T19:00:34Z</time>
      </trkpt>
      <trkpt lat="49.94163" lon="1.52405">
        <ele>133.8</ele>
        <time>2013-06-22T19:00:39Z</time>
      </trkpt>
      <trkpt lat="49.94167" lon="1.52402">
        <ele>133.3</ele>
        <time>2013-06-22T19:00:43Z</time>
      </trkpt>
      <trkpt lat="49.94175" lon="1.52395">
        <ele>132.1</ele>
        <time>2013-06-22T19:00:51Z</time>
      </trkpt>
      <trkpt lat="49.9418" lon="1.52394">
        <ele>132</ele>
        <time>2013-06-22T19:00:54Z</time>
      </trkpt>
      <trkpt lat="49.94184" lon="1.52393">
        <ele>131.8</ele>
        <time>2013-06-22T19:00:57Z</time>
      </trkpt>
      <trkpt lat="49.94189" lon="1.52392">
        <ele>131.6</ele>
        <time>2013-06-22T19:01:00Z</time>
      </trkpt>
      <trkpt lat="49.94194" lon="1.5239">
        <ele>131.2</ele>
        <time>2013-06-22T19:01:03Z</time>
      </trkpt>
      <trkpt lat="49.94199" lon="1.52389">
        <ele>131.1</ele>
        <time>2013-06-22T19:01:07Z</time>
      </trkpt>
      <trkpt lat="49.94203" lon="1.52388">
        <ele>131.2</ele>
        <time>2013-06-22T19:01:10Z</time>
      </trkpt>
      <trkpt lat="49.94209" lon="1.52385">
        <ele>130.9</ele>
        <time>2013-06-22T19:01:14Z</time>
      </trkpt>
      <trkpt lat="49.94215" lon="1.52384">
        <ele>130.8</ele>
        <time>2013-06-22T19:01:17Z</time>
      </trkpt>
      <trkpt lat="49.9422" lon="1.52385">
        <ele>131</ele>
        <time>2013-06-22T19:01:21Z</time>
      </trkpt>
      <trkpt lat="49.94225" lon="1.52382">
        <ele>130.5</ele>
        <time>2013-06-22T19:01:24Z</time>
      </trkpt>
      <trkpt lat="49.9423" lon="1.52382">
        <ele>130.4</ele>
        <time>2013-06-22T19:01:29Z</time>
      </trkpt>
      <trkpt lat="49.94234" lon="1.52378">
        <ele>129.6</ele>
        <time>2013-06-22T19:01:34Z</time>
      </trkpt>
      <trkpt lat="49.94238" lon="1.52376">
        <ele>129.1</ele>
        <time>2013-06-22T19:01:38Z</time>
      </trkpt>
      <trkpt lat="49.94243" lon="1.52372">
        <ele>128.4</ele>
        <time>2013-06-22T19:01:42Z</time>
      </trkpt>
      <trkpt lat="49.94248" lon="1.52369">
        <ele>127.7</ele>
        <time>2013-06-22T19:01:46Z</time>
      </trkpt>
      <trkpt lat="49.94253" lon="1.52366">
        <ele>127.1</ele>
        <time>2013-06-22T19:01:50Z</time>
      </trkpt>
      <trkpt lat="49.94261" lon="1.52359">
        <ele>125.7</ele>
        <time>2013-06-22T19:02:01Z</time>
      </trkpt>
      <trkpt lat="49.94265" lon="1.52357">
        <ele>125.3</ele>
        <time>2013-06-22T19:02:05Z</time>
      </trkpt>
      <trkpt lat="49.94276" lon="1.52356">
        <ele>125.1</ele>
        <time>2013-06-22T19:02:12Z</time>
      </trkpt>
      <trkpt lat="49.94285" lon="1.52352">
        <ele>124.3</ele>
        <time>2013-06-22T19:02:19Z</time>
      </trkpt>
      <trkpt lat="49.94289" lon="1.52347">
        <ele>123.4</ele>
        <time>2013-06-22T19:02:24Z</time>
      </trkpt>
      <trkpt lat="49.94292" lon="1.52342">
        <ele>122.5</ele>
        <time>2013-06-22T19:02:30Z</time>
      </trkpt>
      <trkpt lat="49.94296" lon="1.52337">
        <ele>121.6</ele>
        <time>2013-06-22T19:02:36Z</time>
      </trkpt>
      <trkpt lat="49.94302" lon="1.52334">
        <ele>121</ele>
        <time>2013-06-22T19:02:43Z</time>
      </trkpt>
      <trkpt lat="49.94312" lon="1.52335">
        <ele>121.5</ele>
        <time>2013-06-22T19:02:48Z</time>
      </trkpt>
      <trkpt lat="49.94318" lon="1.52335">
        <ele>121.6</ele>
        <time>2013-06-22T19:02:51Z</time>
      </trkpt>
      <trkpt lat="49.94324" lon="1.52336">
        <ele>122.1</ele>
        <time>2013-06-22T19:02:54Z</time>
      </trkpt>
      <trkpt lat="49.94329" lon="1.52334">
        <ele>122</ele>
        <time>2013-06-22T19:02:58Z</time>
      </trkpt>
      <trkpt lat="49.94333" lon="1.52331">
        <ele>121.7</ele>
        <time>2013-06-22T19:03:01Z</time>
      </trkpt>
      <trkpt lat="49.94337" lon="1.52326">
        <ele>121</ele>
        <time>2013-06-22T19:03:05Z</time>
      </trkpt>
      <trkpt lat="49.94341" lon="1.52323">
        <ele>120.4</ele>
        <time>2013-06-22T19:03:09Z</time>
      </trkpt>
      <trkpt lat="49.94346" lon="1.5232">
        <ele>120.1</ele>
        <time>2013-06-22T19:03:14Z</time>
      </trkpt>
      <trkpt lat="49.94351" lon="1.52316">
        <ele>119.5</ele>
        <time>2013-06-22T19:03:20Z</time>
      </trkpt>
      <trkpt lat="49.94361" lon="1.52316">
        <ele>119.5</ele>
        <time>2013-06-22T19:03:27Z</time>
      </trkpt>
      <trkpt lat="49.94365" lon="1.52315">
        <ele>119.3</ele>
        <time>2013-06-22T19:03:30Z</time>
      </trkpt>
      <trkpt lat="49.94371" lon="1.52313">
        <ele>119.1</ele>
        <time>2013-06-22T19:03:33Z</time>
      </trkpt>
      <trkpt lat="49.94379" lon="1.52306">
        <ele>118.1</ele>
        <time>2013-06-22T19:03:41Z</time>
      </trkpt>
      <trkpt lat="49.94385" lon="1.52304">
        <ele>117.8</ele>
        <time>2013-06-22T19:03:45Z</time>
      </trkpt>
      <trkpt lat="49.94389" lon="1.52303">
        <ele>117.6</ele>
        <time>2013-06-22T19:03:48Z</time>
      </trkpt>
      <trkpt lat="49.94394" lon="1.523">
        <ele>117.2</ele>
        <time>2013-06-22T19:03:52Z</time>
      </trkpt>
      <trkpt lat="49.94398" lon="1.52298">
        <ele>117</ele>
        <time>2013-06-22T19:03:57Z</time>
      </trkpt>
      <trkpt lat="49.94403" lon="1.52296">
        <ele>116.8</ele>
        <time>2013-06-22T19:04:01Z</time>
      </trkpt>
      <trkpt lat="49.94408" lon="1.52294">
        <ele>116.6</ele>
        <time>2013-06-22T19:04:05Z</time>
      </trkpt>
      <trkpt lat="49.94413" lon="1.52293">
        <ele>116.6</ele>
        <time>2013-06-22T19:04:10Z</time>
      </trkpt>
      <trkpt lat="49.94422" lon="1.52292">
        <ele>116.6</ele>
        <time>2013-06-22T19:04:17Z</time>
      </trkpt>
      <trkpt lat="49.94427" lon="1.52289">
        <ele>116.2</ele>
        <time>2013-06-22T19:04:24Z</time>
      </trkpt>
      <trkpt lat="49.94432" lon="1.52288">
        <ele>116.1</ele>
        <time>2013-06-22T19:04:28Z</time>
      </trkpt>
      <trkpt lat="49.94436" lon="1.52285">
        <ele>115.8</ele>
        <time>2013-06-22T19:04:31Z</time>
      </trkpt>
      <trkpt lat="49.9444" lon="1.5228">
        <ele>115.2</ele>
        <time>2013-06-22T19:04:36Z</time>
      </trkpt>
      <trkpt lat="49.94445" lon="1.52278">
        <ele>115</ele>
        <time>2013-06-22T19:04:41Z</time>
      </trkpt>
      <trkpt lat="49.94455" lon="1.52272">
        <ele>114.1</ele>
        <time>2013-06-22T19:04:50Z</time>
      </trkpt>
      <trkpt lat="49.9446" lon="1.5227">
        <ele>113.9</ele>
        <time>2013-06-22T19:04:55Z</time>
      </trkpt>
      <trkpt lat="49.94465" lon="1.5227">
        <ele>113.9</ele>
        <time>2013-06-22T19:04:59Z</time>
      </trkpt>
      <trkpt lat="49.9447" lon="1.52268">
        <ele>113.6</ele>
        <time>2013-06-22T19:05:04Z</time>
      </trkpt>
      <trkpt lat="49.94476" lon="1.52266">
        <ele>113.3</ele>
        <time>2013-06-22T19:05:08Z</time>
      </trkpt>
      <trkpt lat="49.94481" lon="1.52263">
        <ele>112.8</ele>
        <time>2013-06-22T19:05:13Z</time>
      </trkpt>
      <trkpt lat="49.94486" lon="1.52261">
        <ele>112.6</ele>
        <time>2013-06-22T19:05:17Z</time>
      </trkpt>
      <trkpt lat="49.94491" lon="1.52258">
        <ele>112.2</ele>
        <time>2013-06-22T19:05:23Z</time>
      </trkpt>
      <trkpt lat="49.94496" lon="1.52255">
        <ele>111.7</ele>
        <time>2013-06-22T19:05:28Z</time>
      </trkpt>
      <trkpt lat="49.94501" lon="1.52252">
        <ele>111.3</ele>
        <time>2013-06-22T19:05:31Z</time>
      </trkpt>
      <trkpt lat="49.94504" lon="1.52247">
        <ele>110.7</ele>
        <time>2013-06-22T19:05:35Z</time>
      </trkpt>
      <trkpt lat="49.94509" lon="1.52242">
        <ele>110.1</ele>
        <time>2013-06-22T19:05:39Z</time>
      </trkpt>
      <trkpt lat="49.94514" lon="1.52239">
        <ele>109.8</ele>
        <time>2013-06-22T19:05:44Z</time>
      </trkpt>
      <trkpt lat="49.94519" lon="1.52235">
        <ele>109.4</ele>
        <time>2013-06-22T19:05:50Z</time>
      </trkpt>
      <trkpt lat="49.94524" lon="1.52235">
        <ele>109.4</ele>
        <time>2013-06-22T19:05:54Z</time>
      </trkpt>
      <trkpt lat="49.9453" lon="1.52234">
        <ele>109.2</ele>
        <time>2013-06-22T19:05:57Z</time>
      </trkpt>
      <trkpt lat="49.94535" lon="1.52234">
        <ele>109.3</ele>
        <time>2013-06-22T19:06:01Z</time>
      </trkpt>
      <trkpt lat="49.94539" lon="1.52232">
        <ele>109.1</ele>
        <time>2013-06-22T19:06:04Z</time>
      </trkpt>
      <trkpt lat="49.94544" lon="1.52228">
        <ele>108.6</ele>
        <time>2013-06-22T19:06:10Z</time>
      </trkpt>
      <trkpt lat="49.94548" lon="1.52222">
        <ele>108</ele>
        <time>2013-06-22T19:06:15Z</time>
      </trkpt>
      <trkpt lat="49.94552" lon="1.5222">
        <ele>107.9</ele>
        <time>2013-06-22T19:06:20Z</time>
      </trkpt>
      <trkpt lat="49.94557" lon="1.52217">
        <ele>107.8</ele>
        <time>2013-06-22T19:06:25Z</time>
      </trkpt>
      <trkpt lat="49.94562" lon="1.52217">
        <ele>107.8</ele>
        <time>2013-06-22T19:06:28Z</time>
      </trkpt>
      <trkpt lat="49.94567" lon="1.52215">
        <ele>107.6</ele>
        <time>2013-06-22T19:06:31Z</time>
      </trkpt>
      <trkpt lat="49.94572" lon="1.52212">
        <ele>107.4</ele>
        <time>2013-06-22T19:06:34Z</time>
      </trkpt>
      <trkpt lat="49.94576" lon="1.52208">
        <ele>107.1</ele>
        <time>2013-06-22T19:06:38Z</time>
      </trkpt>
      <trkpt lat="49.94581" lon="1.52205">
        <ele>106.8</ele>
        <time>2013-06-22T19:06:41Z</time>
      </trkpt>
      <trkpt lat="49.94586" lon="1.52201">
        <ele>106.4</ele>
        <time>2013-06-22T19:06:45Z</time>
      </trkpt>
      <trkpt lat="49.94591" lon="1.52198">
        <ele>106.2</ele>
        <time>2013-06-22T19:06:50Z</time>
      </trkpt>
      <trkpt lat="49.94596" lon="1.52199">
        <ele>106.2</ele>
        <time>2013-06-22T19:06:54Z</time>
      </trkpt>
      <trkpt lat="49.94602" lon="1.522">
        <ele>106.2</ele>
        <time>2013-06-22T19:06:57Z</time>
      </trkpt>
      <trkpt lat="49.94606" lon="1.52197">
        <ele>106.1</ele>
        <time>2013-06-22T19:07:01Z</time>
      </trkpt>
      <trkpt lat="49.94613" lon="1.52187">
        <ele>106.2</ele>
        <time>2013-06-22T19:07:08Z</time>
      </trkpt>
      <trkpt lat="49.94618" lon="1.52185">
        <ele>106.2</ele>
        <time>2013-06-22T19:07:12Z</time>
      </trkpt>
      <trkpt lat="49.94624" lon="1.52182">
        <ele>106.2</ele>
        <time>2013-06-22T19:07:16Z</time>
      </trkpt>
      <trkpt lat="49.94629" lon="1.52179">
        <ele>106.3</ele>
        <time>2013-06-22T19:07:19Z</time>
      </trkpt>
      <trkpt lat="49.94635" lon="1.52179">
        <ele>106.2</ele>
        <time>2013-06-22T19:07:22Z</time>
      </trkpt>
      <trkpt lat="49.94641" lon="1.5218">
        <ele>106</ele>
        <time>2013-06-22T19:07:24Z</time>
      </trkpt>
      <trkpt lat="49.94647" lon="1.52183">
        <ele>105.8</ele>
        <time>2013-06-22T19:07:26Z</time>
      </trkpt>
      <trkpt lat="49.94653" lon="1.52185">
        <ele>105.7</ele>
        <time>2013-06-22T19:07:29Z</time>
      </trkpt>
      <trkpt lat="49.94658" lon="1.52189">
        <ele>105.4</ele>
        <time>2013-06-22T19:07:32Z</time>
      </trkpt>
      <trkpt lat="49.94662" lon="1.52194">
        <ele>105</ele>
        <time>2013-06-22T19:07:35Z</time>
      </trkpt>
      <trkpt lat="49.94664" lon="1.52209">
        <ele>104.6</ele>
        <time>2013-06-22T19:07:45Z</time>
      </trkpt>
      <trkpt lat="49.94665" lon="1.52218">
        <ele>104.3</ele>
        <time>2013-06-22T19:07:50Z</time>
      </trkpt>
      <trkpt lat="49.94667" lon="1.52232">
        <ele>104.3</ele>
        <time>2013-06-22T19:07:58Z</time>
      </trkpt>
      <trkpt lat="49.94669" lon="1.52239">
        <ele>104.5</ele>
        <time>2013-06-22T19:08:06Z</time>
      </trkpt>
      <trkpt lat="49.94674" lon="1.52243">
        <ele>104.5</ele>
        <time>2013-06-22T19:08:10Z</time>
      </trkpt>
      <trkpt lat="49.94684" lon="1.52247">
        <ele>104.3</ele>
        <time>2013-06-22T19:08:15Z</time>
      </trkpt>
      <trkpt lat="49.94688" lon="1.52252">
        <ele>104.3</ele>
        <time>2013-06-22T19:08:19Z</time>
      </trkpt>
      <trkpt lat="49.94694" lon="1.52255">
        <ele>104.2</ele>
        <time>2013-06-22T19:08:24Z</time>
      </trkpt>
      <trkpt lat="49.94699" lon="1.52258">
        <ele>104</ele>
        <time>2013-06-22T19:08:28Z</time>
      </trkpt>
      <trkpt lat="49.94702" lon="1.52263">
        <ele>103.9</ele>
        <time>2013-06-22T19:08:33Z</time>
      </trkpt>
      <trkpt lat="49.94707" lon="1.52268">
        <ele>103.8</ele>
        <time>2013-06-22T19:08:37Z</time>
      </trkpt>
      <trkpt lat="49.94711" lon="1.52269">
        <ele>103.5</ele>
        <time>2013-06-22T19:08:42Z</time>
      </trkpt>
      <trkpt lat="49.94717" lon="1.52271">
        <ele>103.2</ele>
        <time>2013-06-22T19:08:46Z</time>
      </trkpt>
      <trkpt lat="49.94721" lon="1.52275">
        <ele>103</ele>
        <time>2013-06-22T19:08:52Z</time>
      </trkpt>
      <trkpt lat="49.94726" lon="1.52276">
        <ele>102.7</ele>
        <time>2013-06-22T19:08:56Z</time>
      </trkpt>
      <trkpt lat="49.94731" lon="1.5228">
        <ele>102.5</ele>
        <time>2013-06-22T19:08:59Z</time>
      </trkpt>
      <trkpt lat="49.94736" lon="1.52284">
        <ele>102.3</ele>
        <time>2013-06-22T19:09:02Z</time>
      </trkpt>
      <trkpt lat="49.9474" lon="1.52289">
        <ele>102.2</ele>
        <time>2013-06-22T19:09:07Z</time>
      </trkpt>
      <trkpt lat="49.94744" lon="1.52294">
        <ele>102.2</ele>
        <time>2013-06-22T19:09:12Z</time>
      </trkpt>
      <trkpt lat="49.94748" lon="1.52298">
        <ele>101.9</ele>
        <time>2013-06-22T19:09:16Z</time>
      </trkpt>
      <trkpt lat="49.94752" lon="1.52303">
        <ele>101.8</ele>
        <time>2013-06-22T19:09:19Z</time>
      </trkpt>
      <trkpt lat="49.94761" lon="1.52309">
        <ele>101.4</ele>
        <time>2013-06-22T19:09:27Z</time>
      </trkpt>
      <trkpt lat="49.94764" lon="1.52315">
        <ele>101.5</ele>
        <time>2013-06-22T19:09:34Z</time>
      </trkpt>
      <trkpt lat="49.94766" lon="1.52321">
        <ele>101.6</ele>
        <time>2013-06-22T19:09:39Z</time>
      </trkpt>
      <trkpt lat="49.9477" lon="1.52327">
        <ele>101.5</ele>
        <time>2013-06-22T19:09:42Z</time>
      </trkpt>
      <trkpt lat="49.94775" lon="1.52332">
        <ele>101.3</ele>
        <time>2013-06-22T19:09:46Z</time>
      </trkpt>
      <trkpt lat="49.94779" lon="1.52337">
        <ele>101.2</ele>
        <time>2013-06-22T19:09:50Z</time>
      </trkpt>
      <trkpt lat="49.94783" lon="1.52341">
        <ele>101.1</ele>
        <time>2013-06-22T19:09:55Z</time>
      </trkpt>
      <trkpt lat="49.94788" lon="1.52343">
        <ele>100.8</ele>
        <time>2013-06-22T19:09:59Z</time>
      </trkpt>
      <trkpt lat="49.94792" lon="1.52348">
        <ele>100.7</ele>
        <time>2013-06-22T19:10:03Z</time>
      </trkpt>
      <trkpt lat="49.94795" lon="1.52354">
        <ele>100.8</ele>
        <time>2013-06-22T19:10:06Z</time>
      </trkpt>
      <trkpt lat="49.94798" lon="1.5236">
        <ele>100.7</ele>
        <time>2013-06-22T19:10:08Z</time>
      </trkpt>
      <trkpt lat="49.94802" lon="1.52365">
        <ele>100.7</ele>
        <time>2013-06-22T19:10:11Z</time>
      </trkpt>
      <trkpt lat="49.94803" lon="1.52373">
        <ele>101.3</ele>
        <time>2013-06-22T19:10:15Z</time>
      </trkpt>
      <trkpt lat="49.94805" lon="1.52379">
        <ele>101.3</ele>
        <time>2013-06-22T19:10:18Z</time>
      </trkpt>
      <trkpt lat="49.94809" lon="1.52384">
        <ele>101.3</ele>
        <time>2013-06-22T19:10:22Z</time>
      </trkpt>
      <trkpt lat="49.94812" lon="1.52391">
        <ele>101.4</ele>
        <time>2013-06-22T19:10:27Z</time>
      </trkpt>
      <trkpt lat="49.94817" lon="1.52396">
        <ele>101.4</ele>
        <time>2013-06-22T19:10:31Z</time>
      </trkpt>
      <trkpt lat="49.94822" lon="1.52401">
        <ele>101.3</ele>
        <time>2013-06-22T19:10:35Z</time>
      </trkpt>
      <trkpt lat="49.94826" lon="1.52406">
        <ele>101.2</ele>
        <time>2013-06-22T19:10:39Z</time>
      </trkpt>
      <trkpt lat="49.9483" lon="1.52412">
        <ele>101.1</ele>
        <time>2013-06-22T19:10:44Z</time>
      </trkpt>
      <trkpt lat="49.94834" lon="1.52419">
        <ele>101.1</ele>
        <time>2013-06-22T19:10:49Z</time>
      </trkpt>
      <trkpt lat="49.94837" lon="1.52427">
        <ele>101.3</ele>
        <time>2013-06-22T19:10:54Z</time>
      </trkpt>
      <trkpt lat="49.9484" lon="1.52433">
        <ele>101.4</ele>
        <time>2013-06-22T19:10:57Z</time>
      </trkpt>
      <trkpt lat="49.94843" lon="1.5244">
        <ele>101.3</ele>
        <time>2013-06-22T19:11:01Z</time>
      </trkpt>
      <trkpt lat="49.94847" lon="1.52446">
        <ele>101.2</ele>
        <time>2013-06-22T19:11:05Z</time>
      </trkpt>
      <trkpt lat="49.9485" lon="1.52451">
        <ele>101.2</ele>
        <time>2013-06-22T19:11:09Z</time>
      </trkpt>
      <trkpt lat="49.94853" lon="1.52457">
        <ele>101.1</ele>
        <time>2013-06-22T19:11:12Z</time>
      </trkpt>
      <trkpt lat="49.94856" lon="1.52462">
        <ele>101</ele>
        <time>2013-06-22T19:11:15Z</time>
      </trkpt>
      <trkpt lat="49.94863" lon="1.52473">
        <ele>100.9</ele>
        <time>2013-06-22T19:11:24Z</time>
      </trkpt>
      <trkpt lat="49.9487" lon="1.52483">
        <ele>101</ele>
        <time>2013-06-22T19:11:31Z</time>
      </trkpt>
      <trkpt lat="49.94872" lon="1.5249">
        <ele>101.3</ele>
        <time>2013-06-22T19:11:36Z</time>
      </trkpt>
      <trkpt lat="49.94873" lon="1.52497">
        <ele>101.6</ele>
        <time>2013-06-22T19:11:40Z</time>
      </trkpt>
      <trkpt lat="49.94877" lon="1.52501">
        <ele>101.2</ele>
        <time>2013-06-22T19:11:43Z</time>
      </trkpt>
      <trkpt lat="49.94881" lon="1.52506">
        <ele>101</ele>
        <time>2013-06-22T19:11:46Z</time>
      </trkpt>
      <trkpt lat="49.94884" lon="1.52512">
        <ele>100.9</ele>
        <time>2013-06-22T19:11:51Z</time>
      </trkpt>
      <trkpt lat="49.94888" lon="1.52518">
        <ele>100.5</ele>
        <time>2013-06-22T19:11:55Z</time>
      </trkpt>
      <trkpt lat="49.94892" lon="1.52522">
        <ele>100.1</ele>
        <time>2013-06-22T19:11:59Z</time>
      </trkpt>
      <trkpt lat="49.94895" lon="1.52527">
        <ele>100</ele>
        <time>2013-06-22T19:12:04Z</time>
      </trkpt>
      <trkpt lat="49.94899" lon="1.52533">
        <ele>100</ele>
        <time>2013-06-22T19:12:09Z</time>
      </trkpt>
      <trkpt lat="49.94903" lon="1.52539">
        <ele>100.1</ele>
        <time>2013-06-22T19:12:14Z</time>
      </trkpt>
      <trkpt lat="49.94906" lon="1.52545">
        <ele>100</ele>
        <time>2013-06-22T19:12:18Z</time>
      </trkpt>
      <trkpt lat="49.9491" lon="1.52552">
        <ele>99.9</ele>
        <time>2013-06-22T19:12:23Z</time>
      </trkpt>
      <trkpt lat="49.94914" lon="1.52558">
        <ele>99.7</ele>
        <time>2013-06-22T19:12:26Z</time>
      </trkpt>
      <trkpt lat="49.94916" lon="1.52565">
        <ele>100.1</ele>
        <time>2013-06-22T19:12:30Z</time>
      </trkpt>
      <trkpt lat="49.94919" lon="1.52572">
        <ele>100.4</ele>
        <time>2013-06-22T19:12:34Z</time>
      </trkpt>
      <trkpt lat="49.94922" lon="1.52578">
        <ele>100.6</ele>
        <time>2013-06-22T19:12:38Z</time>
      </trkpt>
      <trkpt lat="49.94928" lon="1.52582">
        <ele>100.3</ele>
        <time>2013-06-22T19:12:43Z</time>
      </trkpt>
      <trkpt lat="49.94932" lon="1.52588">
        <ele>100.2</ele>
        <time>2013-06-22T19:12:47Z</time>
      </trkpt>
      <trkpt lat="49.94936" lon="1.52595">
        <ele>100.1</ele>
        <time>2013-06-22T19:12:51Z</time>
      </trkpt>
      <trkpt lat="49.94938" lon="1.52601">
        <ele>100.1</ele>
        <time>2013-06-22T19:12:54Z</time>
      </trkpt>
      <trkpt lat="49.94942" lon="1.52607">
        <ele>100.1</ele>
        <time>2013-06-22T19:12:58Z</time>
      </trkpt>
      <trkpt lat="49.94944" lon="1.52614">
        <ele>100.3</ele>
        <time>2013-06-22T19:13:02Z</time>
      </trkpt>
      <trkpt lat="49.94944" lon="1.52622">
        <ele>101.3</ele>
        <time>2013-06-22T19:13:07Z</time>
      </trkpt>
      <trkpt lat="49.94946" lon="1.5263">
        <ele>101.8</ele>
        <time>2013-06-22T19:13:11Z</time>
      </trkpt>
      <trkpt lat="49.94949" lon="1.52637">
        <ele>102.1</ele>
        <time>2013-06-22T19:13:15Z</time>
      </trkpt>
      <trkpt lat="49.9495" lon="1.52645">
        <ele>102.7</ele>
        <time>2013-06-22T19:13:19Z</time>
      </trkpt>
      <trkpt lat="49.94951" lon="1.52652">
        <ele>103.2</ele>
        <time>2013-06-22T19:13:23Z</time>
      </trkpt>
      <trkpt lat="49.94952" lon="1.5266">
        <ele>103.6</ele>
        <time>2013-06-22T19:13:28Z</time>
      </trkpt>
      <trkpt lat="49.94954" lon="1.52675">
        <ele>104.3</ele>
        <time>2013-06-22T19:13:35Z</time>
      </trkpt>
      <trkpt lat="49.94954" lon="1.52682">
        <ele>104.6</ele>
        <time>2013-06-22T19:13:39Z</time>
      </trkpt>
      <trkpt lat="49.94955" lon="1.5269">
        <ele>104.7</ele>
        <time>2013-06-22T19:13:43Z</time>
      </trkpt>
      <trkpt lat="49.94954" lon="1.52698">
        <ele>105</ele>
        <time>2013-06-22T19:13:47Z</time>
      </trkpt>
      <trkpt lat="49.94955" lon="1.52707">
        <ele>105.1</ele>
        <time>2013-06-22T19:13:52Z</time>
      </trkpt>
      <trkpt lat="49.94956" lon="1.52715">
        <ele>105.1</ele>
        <time>2013-06-22T19:13:56Z</time>
      </trkpt>
      <trkpt lat="49.94956" lon="1.52723">
        <ele>105.2</ele>
        <time>2013-06-22T19:14:01Z</time>
      </trkpt>
      <trkpt lat="49.94955" lon="1.52737">
        <ele>105</ele>
        <time>2013-06-22T19:14:09Z</time>
      </trkpt>
      <trkpt lat="49.94955" lon="1.52752">
        <ele>104.8</ele>
        <time>2013-06-22T19:14:18Z</time>
      </trkpt>
      <trkpt lat="49.94956" lon="1.5276">
        <ele>104.6</ele>
        <time>2013-06-22T19:14:23Z</time>
      </trkpt>
      <trkpt lat="49.94958" lon="1.52774">
        <ele>104.1</ele>
        <time>2013-06-22T19:14:33Z</time>
      </trkpt>
      <trkpt lat="49.94963" lon="1.52776">
        <ele>103.7</ele>
        <time>2013-06-22T19:14:54Z</time>
      </trkpt>
      <trkpt lat="49.94967" lon="1.52775">
        <ele>103.4</ele>
        <time>2013-06-22T19:14:59Z</time>
      </trkpt>
      <trkpt lat="49.94973" lon="1.52776">
        <ele>103</ele>
        <time>2013-06-22T19:15:03Z</time>
      </trkpt>
      <trkpt lat="49.94977" lon="1.52775">
        <ele>102.8</ele>
        <time>2013-06-22T19:15:09Z</time>
      </trkpt>
      <trkpt lat="49.94982" lon="1.52773">
        <ele>102.7</ele>
        <time>2013-06-22T19:15:15Z</time>
      </trkpt>
      <trkpt lat="49.94986" lon="1.52771">
        <ele>102.6</ele>
        <time>2013-06-22T19:15:23Z</time>
      </trkpt>
      <trkpt lat="49.9499" lon="1.52763">
        <ele>102.7</ele>
        <time>2013-06-22T19:16:01Z</time>
      </trkpt>
      <trkpt lat="49.94995" lon="1.52765">
        <ele>102.6</ele>
        <time>2013-06-22T19:16:07Z</time>
      </trkpt>
      <trkpt lat="49.94958" lon="1.52784">
        <ele>103.9</ele>
        <time>2013-06-22T19:27:58Z</time>
      </trkpt>
      <trkpt lat="49.94958" lon="1.52792">
        <ele>103.8</ele>
        <time>2013-06-22T19:28:06Z</time>
      </trkpt>
      <trkpt lat="49.9496" lon="1.52801">
        <ele>103.5</ele>
        <time>2013-06-22T19:28:10Z</time>
      </trkpt>
      <trkpt lat="49.94963" lon="1.52808">
        <ele>103</ele>
        <time>2013-06-22T19:28:15Z</time>
      </trkpt>
      <trkpt lat="49.94966" lon="1.52814">
        <ele>102.5</ele>
        <time>2013-06-22T19:28:19Z</time>
      </trkpt>
      <trkpt lat="49.94969" lon="1.52822">
        <ele>101.9</ele>
        <time>2013-06-22T19:28:22Z</time>
      </trkpt>
      <trkpt lat="49.94971" lon="1.52829">
        <ele>101.3</ele>
        <time>2013-06-22T19:28:27Z</time>
      </trkpt>
      <trkpt lat="49.94972" lon="1.52837">
        <ele>101.2</ele>
        <time>2013-06-22T19:28:31Z</time>
      </trkpt>
      <trkpt lat="49.94974" lon="1.52844">
        <ele>101.3</ele>
        <time>2013-06-22T19:28:36Z</time>
      </trkpt>
      <trkpt lat="49.94976" lon="1.52852">
        <ele>101.4</ele>
        <time>2013-06-22T19:28:41Z</time>
      </trkpt>
      <trkpt lat="49.94978" lon="1.52859">
        <ele>101.3</ele>
        <time>2013-06-22T19:28:46Z</time>
      </trkpt>
      <trkpt lat="49.94979" lon="1.52866">
        <ele>101.4</ele>
        <time>2013-06-22T19:28:51Z</time>
      </trkpt>
      <trkpt lat="49.94982" lon="1.52874">
        <ele>101.3</ele>
        <time>2013-06-22T19:28:55Z</time>
      </trkpt>
      <trkpt lat="49.94984" lon="1.52881">
        <ele>101.1</ele>
        <time>2013-06-22T19:28:59Z</time>
      </trkpt>
      <trkpt lat="49.94987" lon="1.52887">
        <ele>100.9</ele>
        <time>2013-06-22T19:29:03Z</time>
      </trkpt>
      <trkpt lat="49.94991" lon="1.529">
        <ele>100.7</ele>
        <time>2013-06-22T19:29:11Z</time>
      </trkpt>
      <trkpt lat="49.94993" lon="1.52907">
        <ele>100.6</ele>
        <time>2013-06-22T19:29:15Z</time>
      </trkpt>
      <trkpt lat="49.94993" lon="1.52916">
        <ele>100.9</ele>
        <time>2013-06-22T19:29:21Z</time>
      </trkpt>
      <trkpt lat="49.94994" lon="1.52923">
        <ele>100.8</ele>
        <time>2013-06-22T19:29:25Z</time>
      </trkpt>
      <trkpt lat="49.94996" lon="1.52931">
        <ele>100.6</ele>
        <time>2013-06-22T19:29:29Z</time>
      </trkpt>
      <trkpt lat="49.94997" lon="1.5294">
        <ele>100.4</ele>
        <time>2013-06-22T19:29:33Z</time>
      </trkpt>
      <trkpt lat="49.94998" lon="1.52947">
        <ele>100.3</ele>
        <time>2013-06-22T19:29:37Z</time>
      </trkpt>
      <trkpt lat="49.94999" lon="1.52954">
        <ele>100.2</ele>
        <time>2013-06-22T19:29:42Z</time>
      </trkpt>
      <trkpt lat="49.95" lon="1.52962">
        <ele>100</ele>
        <time>2013-06-22T19:29:46Z</time>
      </trkpt>
      <trkpt lat="49.95002" lon="1.5297">
        <ele>99.8</ele>
        <time>2013-06-22T19:29:50Z</time>
      </trkpt>
      <trkpt lat="49.95002" lon="1.52978">
        <ele>100</ele>
        <time>2013-06-22T19:29:54Z</time>
      </trkpt>
      <trkpt lat="49.95003" lon="1.52986">
        <ele>100.2</ele>
        <time>2013-06-22T19:29:58Z</time>
      </trkpt>
      <trkpt lat="49.95004" lon="1.52994">
        <ele>100.3</ele>
        <time>2013-06-22T19:30:03Z</time>
      </trkpt>
      <trkpt lat="49.95004" lon="1.53002">
        <ele>100.6</ele>
        <time>2013-06-22T19:30:07Z</time>
      </trkpt>
      <trkpt lat="49.95007" lon="1.53009">
        <ele>100.7</ele>
        <time>2013-06-22T19:30:12Z</time>
      </trkpt>
      <trkpt lat="49.95009" lon="1.53017">
        <ele>100.9</ele>
        <time>2013-06-22T19:30:17Z</time>
      </trkpt>
      <trkpt lat="49.95012" lon="1.5303">
        <ele>101.3</ele>
        <time>2013-06-22T19:30:25Z</time>
      </trkpt>
      <trkpt lat="49.95014" lon="1.53038">
        <ele>101.5</ele>
        <time>2013-06-22T19:30:30Z</time>
      </trkpt>
      <trkpt lat="49.95016" lon="1.53045">
        <ele>101.7</ele>
        <time>2013-06-22T19:30:34Z</time>
      </trkpt>
      <trkpt lat="49.95018" lon="1.53052">
        <ele>101.8</ele>
        <time>2013-06-22T19:30:39Z</time>
      </trkpt>
      <trkpt lat="49.95021" lon="1.53058">
        <ele>101.8</ele>
        <time>2013-06-22T19:30:43Z</time>
      </trkpt>
      <trkpt lat="49.95024" lon="1.53065">
        <ele>101.4</ele>
        <time>2013-06-22T19:30:47Z</time>
      </trkpt>
      <trkpt lat="49.95026" lon="1.53072">
        <ele>101.2</ele>
        <time>2013-06-22T19:30:51Z</time>
      </trkpt>
      <trkpt lat="49.95027" lon="1.53079">
        <ele>101</ele>
        <time>2013-06-22T19:30:56Z</time>
      </trkpt>
      <trkpt lat="49.95028" lon="1.53087">
        <ele>101.1</ele>
        <time>2013-06-22T19:31:00Z</time>
      </trkpt>
      <trkpt lat="49.95031" lon="1.53094">
        <ele>101.3</ele>
        <time>2013-06-22T19:31:04Z</time>
      </trkpt>
      <trkpt lat="49.95033" lon="1.53102">
        <ele>101.5</ele>
        <time>2013-06-22T19:31:08Z</time>
      </trkpt>
      <trkpt lat="49.95034" lon="1.5311">
        <ele>101.7</ele>
        <time>2013-06-22T19:31:13Z</time>
      </trkpt>
      <trkpt lat="49.95035" lon="1.53117">
        <ele>101.7</ele>
        <time>2013-06-22T19:31:17Z</time>
      </trkpt>
      <trkpt lat="49.95037" lon="1.53124">
        <ele>101.5</ele>
        <time>2013-06-22T19:31:21Z</time>
      </trkpt>
      <trkpt lat="49.95038" lon="1.53133">
        <ele>101.4</ele>
        <time>2013-06-22T19:31:26Z</time>
      </trkpt>
      <trkpt lat="49.95039" lon="1.53142">
        <ele>101.1</ele>
        <time>2013-06-22T19:31:31Z</time>
      </trkpt>
      <trkpt lat="49.95041" lon="1.53149">
        <ele>100.7</ele>
        <time>2013-06-22T19:31:35Z</time>
      </trkpt>
      <trkpt lat="49.95043" lon="1.53156">
        <ele>100.3</ele>
        <time>2013-06-22T19:31:39Z</time>
      </trkpt>
      <trkpt lat="49.95044" lon="1.53165">
        <ele>99.9</ele>
        <time>2013-06-22T19:31:44Z</time>
      </trkpt>
      <trkpt lat="49.95045" lon="1.53172">
        <ele>99.8</ele>
        <time>2013-06-22T19:31:48Z</time>
      </trkpt>
      <trkpt lat="49.95045" lon="1.53179">
        <ele>99.9</ele>
        <time>2013-06-22T19:31:53Z</time>
      </trkpt>
      <trkpt lat="49.95046" lon="1.53187">
        <ele>99.9</ele>
        <time>2013-06-22T19:31:57Z</time>
      </trkpt>
      <trkpt lat="49.95046" lon="1.53201">
        <ele>100</ele>
        <time>2013-06-22T19:32:06Z</time>
      </trkpt>
      <trkpt lat="49.95047" lon="1.53208">
        <ele>99.9</ele>
        <time>2013-06-22T19:32:10Z</time>
      </trkpt>
      <trkpt lat="49.95049" lon="1.53216">
        <ele>99.7</ele>
        <time>2013-06-22T19:32:14Z</time>
      </trkpt>
      <trkpt lat="49.95051" lon="1.53223">
        <ele>99.6</ele>
        <time>2013-06-22T19:32:18Z</time>
      </trkpt>
      <trkpt lat="49.95051" lon="1.53231">
        <ele>99.5</ele>
        <time>2013-06-22T19:32:22Z</time>
      </trkpt>
      <trkpt lat="49.95052" lon="1.5324">
        <ele>99.5</ele>
        <time>2013-06-22T19:32:27Z</time>
      </trkpt>
      <trkpt lat="49.95053" lon="1.53248">
        <ele>99.3</ele>
        <time>2013-06-22T19:32:30Z</time>
      </trkpt>
      <trkpt lat="49.95053" lon="1.53256">
        <ele>99.3</ele>
        <time>2013-06-22T19:32:34Z</time>
      </trkpt>
      <trkpt lat="49.95055" lon="1.53264">
        <ele>99.1</ele>
        <time>2013-06-22T19:32:38Z</time>
      </trkpt>
      <trkpt lat="49.95055" lon="1.53272">
        <ele>99</ele>
        <time>2013-06-22T19:32:42Z</time>
      </trkpt>
      <trkpt lat="49.95057" lon="1.53287">
        <ele>99.5</ele>
        <time>2013-06-22T19:32:51Z</time>
      </trkpt>
      <trkpt lat="49.95058" lon="1.53294">
        <ele>99.8</ele>
        <time>2013-06-22T19:32:55Z</time>
      </trkpt>
      <trkpt lat="49.9506" lon="1.53302">
        <ele>100.2</ele>
        <time>2013-06-22T19:32:59Z</time>
      </trkpt>
      <trkpt lat="49.9506" lon="1.5331">
        <ele>100.6</ele>
        <time>2013-06-22T19:33:04Z</time>
      </trkpt>
      <trkpt lat="49.95061" lon="1.53324">
        <ele>101.1</ele>
        <time>2013-06-22T19:33:13Z</time>
      </trkpt>
      <trkpt lat="49.95062" lon="1.53332">
        <ele>101.2</ele>
        <time>2013-06-22T19:33:17Z</time>
      </trkpt>
      <trkpt lat="49.95064" lon="1.53339">
        <ele>101.5</ele>
        <time>2013-06-22T19:33:21Z</time>
      </trkpt>
      <trkpt lat="49.95066" lon="1.53347">
        <ele>101.8</ele>
        <time>2013-06-22T19:33:25Z</time>
      </trkpt>
      <trkpt lat="49.95067" lon="1.53354">
        <ele>102.3</ele>
        <time>2013-06-22T19:33:29Z</time>
      </trkpt>
      <trkpt lat="49.95069" lon="1.53361">
        <ele>102.5</ele>
        <time>2013-06-22T19:33:34Z</time>
      </trkpt>
      <trkpt lat="49.95072" lon="1.53368">
        <ele>102.5</ele>
        <time>2013-06-22T19:33:38Z</time>
      </trkpt>
      <trkpt lat="49.95079" lon="1.53378">
        <ele>102.1</ele>
        <time>2013-06-22T19:33:45Z</time>
      </trkpt>
      <trkpt lat="49.95082" lon="1.53383">
        <ele>101.9</ele>
        <time>2013-06-22T19:33:47Z</time>
      </trkpt>
      <trkpt lat="49.95085" lon="1.5339">
        <ele>101.9</ele>
        <time>2013-06-22T19:33:52Z</time>
      </trkpt>
      <trkpt lat="49.95089" lon="1.53396">
        <ele>101.8</ele>
        <time>2013-06-22T19:33:57Z</time>
      </trkpt>
      <trkpt lat="49.95093" lon="1.53401">
        <ele>101.7</ele>
        <time>2013-06-22T19:34:01Z</time>
      </trkpt>
      <trkpt lat="49.95096" lon="1.53406">
        <ele>101.7</ele>
        <time>2013-06-22T19:34:05Z</time>
      </trkpt>
      <trkpt lat="49.951" lon="1.53412">
        <ele>101.6</ele>
        <time>2013-06-22T19:34:10Z</time>
      </trkpt>
      <trkpt lat="49.95104" lon="1.53419">
        <ele>101.6</ele>
        <time>2013-06-22T19:34:15Z</time>
      </trkpt>
      <trkpt lat="49.95108" lon="1.53423">
        <ele>101.5</ele>
        <time>2013-06-22T19:34:19Z</time>
      </trkpt>
      <trkpt lat="49.95115" lon="1.53434">
        <ele>101.2</ele>
        <time>2013-06-22T19:34:27Z</time>
      </trkpt>
      <trkpt lat="49.95119" lon="1.53438">
        <ele>101</ele>
        <time>2013-06-22T19:34:31Z</time>
      </trkpt>
      <trkpt lat="49.95123" lon="1.53443">
        <ele>100.7</ele>
        <time>2013-06-22T19:34:34Z</time>
      </trkpt>
      <trkpt lat="49.95126" lon="1.53451">
        <ele>100.4</ele>
        <time>2013-06-22T19:34:38Z</time>
      </trkpt>
      <trkpt lat="49.95129" lon="1.53457">
        <ele>100</ele>
        <time>2013-06-22T19:34:42Z</time>
      </trkpt>
      <trkpt lat="49.95129" lon="1.53466">
        <ele>100</ele>
        <time>2013-06-22T19:34:46Z</time>
      </trkpt>
      <trkpt lat="49.9513" lon="1.53474">
        <ele>100</ele>
        <time>2013-06-22T19:34:50Z</time>
      </trkpt>
      <trkpt lat="49.95129" lon="1.53481">
        <ele>100.1</ele>
        <time>2013-06-22T19:34:54Z</time>
      </trkpt>
      <trkpt lat="49.95129" lon="1.5349">
        <ele>100</ele>
        <time>2013-06-22T19:34:58Z</time>
      </trkpt>
      <trkpt lat="49.95127" lon="1.53498">
        <ele>100.2</ele>
        <time>2013-06-22T19:35:02Z</time>
      </trkpt>
      <trkpt lat="49.95124" lon="1.53506">
        <ele>100.5</ele>
        <time>2013-06-22T19:35:06Z</time>
      </trkpt>
      <trkpt lat="49.95121" lon="1.53514">
        <ele>100.6</ele>
        <time>2013-06-22T19:35:11Z</time>
      </trkpt>
      <trkpt lat="49.95118" lon="1.53521">
        <ele>100.7</ele>
        <time>2013-06-22T19:35:15Z</time>
      </trkpt>
      <trkpt lat="49.95115" lon="1.53528">
        <ele>100.7</ele>
        <time>2013-06-22T19:35:19Z</time>
      </trkpt>
      <trkpt lat="49.95112" lon="1.53534">
        <ele>100.7</ele>
        <time>2013-06-22T19:35:22Z</time>
      </trkpt>
      <trkpt lat="49.9511" lon="1.53541">
        <ele>100.7</ele>
        <time>2013-06-22T19:35:26Z</time>
      </trkpt>
      <trkpt lat="49.95106" lon="1.53546">
        <ele>101</ele>
        <time>2013-06-22T19:35:32Z</time>
      </trkpt>
      <trkpt lat="49.951" lon="1.53557">
        <ele>101.5</ele>
        <time>2013-06-22T19:35:38Z</time>
      </trkpt>
      <trkpt lat="49.95097" lon="1.53563">
        <ele>102</ele>
        <time>2013-06-22T19:35:41Z</time>
      </trkpt>
      <trkpt lat="49.95092" lon="1.53568">
        <ele>102.4</ele>
        <time>2013-06-22T19:35:46Z</time>
      </trkpt>
      <trkpt lat="49.95091" lon="1.53575">
        <ele>102.4</ele>
        <time>2013-06-22T19:35:49Z</time>
      </trkpt>
      <trkpt lat="49.9509" lon="1.53584">
        <ele>102.3</ele>
        <time>2013-06-22T19:35:53Z</time>
      </trkpt>
      <trkpt lat="49.95089" lon="1.53592">
        <ele>102.4</ele>
        <time>2013-06-22T19:35:56Z</time>
      </trkpt>
      <trkpt lat="49.95087" lon="1.53599">
        <ele>102.5</ele>
        <time>2013-06-22T19:35:59Z</time>
      </trkpt>
      <trkpt lat="49.95085" lon="1.53612">
        <ele>102.7</ele>
        <time>2013-06-22T19:36:06Z</time>
      </trkpt>
      <trkpt lat="49.95085" lon="1.5362">
        <ele>102.8</ele>
        <time>2013-06-22T19:36:12Z</time>
      </trkpt>
      <trkpt lat="49.95086" lon="1.53628">
        <ele>102.7</ele>
        <time>2013-06-22T19:36:16Z</time>
      </trkpt>
      <trkpt lat="49.95086" lon="1.53637">
        <ele>102.6</ele>
        <time>2013-06-22T19:36:20Z</time>
      </trkpt>
      <trkpt lat="49.95086" lon="1.53644">
        <ele>102.7</ele>
        <time>2013-06-22T19:36:23Z</time>
      </trkpt>
      <trkpt lat="49.95089" lon="1.5365">
        <ele>102.5</ele>
        <time>2013-06-22T19:36:26Z</time>
      </trkpt>
      <trkpt lat="49.95091" lon="1.53658">
        <ele>102.5</ele>
        <time>2013-06-22T19:36:30Z</time>
      </trkpt>
      <trkpt lat="49.95096" lon="1.53663">
        <ele>102.1</ele>
        <time>2013-06-22T19:36:35Z</time>
      </trkpt>
      <trkpt lat="49.95099" lon="1.53668">
        <ele>101.9</ele>
        <time>2013-06-22T19:36:37Z</time>
      </trkpt>
      <trkpt lat="49.95103" lon="1.53673">
        <ele>101.7</ele>
        <time>2013-06-22T19:36:40Z</time>
      </trkpt>
      <trkpt lat="49.95106" lon="1.53678">
        <ele>101.5</ele>
        <time>2013-06-22T19:36:43Z</time>
      </trkpt>
      <trkpt lat="49.9511" lon="1.53685">
        <ele>101.5</ele>
        <time>2013-06-22T19:36:47Z</time>
      </trkpt>
      <trkpt lat="49.95114" lon="1.53688">
        <ele>101.1</ele>
        <time>2013-06-22T19:36:50Z</time>
      </trkpt>
      <trkpt lat="49.95117" lon="1.53695">
        <ele>101.2</ele>
        <time>2013-06-22T19:36:54Z</time>
      </trkpt>
      <trkpt lat="49.95122" lon="1.53706">
        <ele>101.2</ele>
        <time>2013-06-22T19:37:03Z</time>
      </trkpt>
      <trkpt lat="49.95127" lon="1.53711">
        <ele>100.8</ele>
        <time>2013-06-22T19:37:07Z</time>
      </trkpt>
      <trkpt lat="49.9513" lon="1.53716">
        <ele>100.8</ele>
        <time>2013-06-22T19:37:10Z</time>
      </trkpt>
      <trkpt lat="49.95134" lon="1.53722">
        <ele>100.7</ele>
        <time>2013-06-22T19:37:15Z</time>
      </trkpt>
      <trkpt lat="49.95138" lon="1.53727">
        <ele>100.6</ele>
        <time>2013-06-22T19:37:19Z</time>
      </trkpt>
      <trkpt lat="49.95142" lon="1.53733">
        <ele>100.3</ele>
        <time>2013-06-22T19:37:23Z</time>
      </trkpt>
      <trkpt lat="49.95144" lon="1.5374">
        <ele>100.6</ele>
        <time>2013-06-22T19:37:30Z</time>
      </trkpt>
      <trkpt lat="49.95147" lon="1.53746">
        <ele>100.6</ele>
        <time>2013-06-22T19:37:36Z</time>
      </trkpt>
      <trkpt lat="49.95149" lon="1.53754">
        <ele>100.9</ele>
        <time>2013-06-22T19:37:42Z</time>
      </trkpt>
      <trkpt lat="49.95151" lon="1.53762">
        <ele>101.6</ele>
        <time>2013-06-22T19:37:49Z</time>
      </trkpt>
      <trkpt lat="49.95153" lon="1.53768">
        <ele>101.9</ele>
        <time>2013-06-22T19:37:53Z</time>
      </trkpt>
      <trkpt lat="49.95157" lon="1.53774">
        <ele>102</ele>
        <time>2013-06-22T19:37:58Z</time>
      </trkpt>
      <trkpt lat="49.95159" lon="1.53782">
        <ele>102.4</ele>
        <time>2013-06-22T19:38:04Z</time>
      </trkpt>
      <trkpt lat="49.95161" lon="1.53788">
        <ele>102.6</ele>
        <time>2013-06-22T19:38:08Z</time>
      </trkpt>
      <trkpt lat="49.95164" lon="1.53796">
        <ele>102.7</ele>
        <time>2013-06-22T19:38:13Z</time>
      </trkpt>
      <trkpt lat="49.95168" lon="1.53801">
        <ele>102.6</ele>
        <time>2013-06-22T19:38:16Z</time>
      </trkpt>
      <trkpt lat="49.9517" lon="1.53808">
        <ele>102.7</ele>
        <time>2013-06-22T19:38:20Z</time>
      </trkpt>
      <trkpt lat="49.95172" lon="1.53816">
        <ele>103.1</ele>
        <time>2013-06-22T19:38:24Z</time>
      </trkpt>
      <trkpt lat="49.95173" lon="1.53824">
        <ele>103.6</ele>
        <time>2013-06-22T19:38:30Z</time>
      </trkpt>
      <trkpt lat="49.95174" lon="1.53832">
        <ele>104.1</ele>
        <time>2013-06-22T19:38:33Z</time>
      </trkpt>
      <trkpt lat="49.95174" lon="1.5384">
        <ele>104.9</ele>
        <time>2013-06-22T19:38:37Z</time>
      </trkpt>
      <trkpt lat="49.95177" lon="1.53853">
        <ele>105.8</ele>
        <time>2013-06-22T19:38:46Z</time>
      </trkpt>
      <trkpt lat="49.9518" lon="1.53861">
        <ele>106.1</ele>
        <time>2013-06-22T19:38:50Z</time>
      </trkpt>
      <trkpt lat="49.95179" lon="1.53869">
        <ele>106.8</ele>
        <time>2013-06-22T19:38:55Z</time>
      </trkpt>
      <trkpt lat="49.95179" lon="1.53877">
        <ele>107.6</ele>
        <time>2013-06-22T19:39:00Z</time>
      </trkpt>
      <trkpt lat="49.95177" lon="1.53885">
        <ele>108.5</ele>
        <time>2013-06-22T19:39:05Z</time>
      </trkpt>
      <trkpt lat="49.95176" lon="1.53893">
        <ele>109.1</ele>
        <time>2013-06-22T19:39:10Z</time>
      </trkpt>
      <trkpt lat="49.95173" lon="1.53899">
        <ele>109.7</ele>
        <time>2013-06-22T19:39:15Z</time>
      </trkpt>
      <trkpt lat="49.9517" lon="1.53906">
        <ele>110.2</ele>
        <time>2013-06-22T19:39:21Z</time>
      </trkpt>
      <trkpt lat="49.95167" lon="1.53913">
        <ele>110.8</ele>
        <time>2013-06-22T19:39:26Z</time>
      </trkpt>
      <trkpt lat="49.95162" lon="1.53918">
        <ele>111.5</ele>
        <time>2013-06-22T19:39:31Z</time>
      </trkpt>
      <trkpt lat="49.95159" lon="1.53924">
        <ele>111.8</ele>
        <time>2013-06-22T19:39:36Z</time>
      </trkpt>
      <trkpt lat="49.95156" lon="1.53929">
        <ele>112</ele>
        <time>2013-06-22T19:39:40Z</time>
      </trkpt>
      <trkpt lat="49.95152" lon="1.53936">
        <ele>112.2</ele>
        <time>2013-06-22T19:39:44Z</time>
      </trkpt>
      <trkpt lat="49.95148" lon="1.53949">
        <ele>112.4</ele>
        <time>2013-06-22T19:39:52Z</time>
      </trkpt>
      <trkpt lat="49.95147" lon="1.53956">
        <ele>112.4</ele>
        <time>2013-06-22T19:39:56Z</time>
      </trkpt>
      <trkpt lat="49.95147" lon="1.53964">
        <ele>112.4</ele>
        <time>2013-06-22T19:40:01Z</time>
      </trkpt>
      <trkpt lat="49.95148" lon="1.53971">
        <ele>112.4</ele>
        <time>2013-06-22T19:40:11Z</time>
      </trkpt>
      <trkpt lat="49.9515" lon="1.53984">
        <ele>111.7</ele>
        <time>2013-06-22T19:40:20Z</time>
      </trkpt>
      <trkpt lat="49.95152" lon="1.53991">
        <ele>111.4</ele>
        <time>2013-06-22T19:40:24Z</time>
      </trkpt>
      <trkpt lat="49.95155" lon="1.53998">
        <ele>110.9</ele>
        <time>2013-06-22T19:40:30Z</time>
      </trkpt>
      <trkpt lat="49.95157" lon="1.54005">
        <ele>110.6</ele>
        <time>2013-06-22T19:40:35Z</time>
      </trkpt>
      <trkpt lat="49.95159" lon="1.54012">
        <ele>110.3</ele>
        <time>2013-06-22T19:40:39Z</time>
      </trkpt>
      <trkpt lat="49.95161" lon="1.5402">
        <ele>109.9</ele>
        <time>2013-06-22T19:40:44Z</time>
      </trkpt>
      <trkpt lat="49.95162" lon="1.54027">
        <ele>109.6</ele>
        <time>2013-06-22T19:40:48Z</time>
      </trkpt>
      <trkpt lat="49.95163" lon="1.54035">
        <ele>109.2</ele>
        <time>2013-06-22T19:40:52Z</time>
      </trkpt>
      <trkpt lat="49.95163" lon="1.54043">
        <ele>108.8</ele>
        <time>2013-06-22T19:40:56Z</time>
      </trkpt>
      <trkpt lat="49.95165" lon="1.54051">
        <ele>108.4</ele>
        <time>2013-06-22T19:41:01Z</time>
      </trkpt>
      <trkpt lat="49.95167" lon="1.54058">
        <ele>107.9</ele>
        <time>2013-06-22T19:41:04Z</time>
      </trkpt>
      <trkpt lat="49.95168" lon="1.54066">
        <ele>107.5</ele>
        <time>2013-06-22T19:41:09Z</time>
      </trkpt>
      <trkpt lat="49.9517" lon="1.54073">
        <ele>107.2</ele>
        <time>2013-06-22T19:41:14Z</time>
      </trkpt>
      <trkpt lat="49.95171" lon="1.5408">
        <ele>106.8</ele>
        <time>2013-06-22T19:41:17Z</time>
      </trkpt>
      <trkpt lat="49.95172" lon="1.5409">
        <ele>106.4</ele>
        <time>2013-06-22T19:41:22Z</time>
      </trkpt>
      <trkpt lat="49.95175" lon="1.54104">
        <ele>105.4</ele>
        <time>2013-06-22T19:41:30Z</time>
      </trkpt>
      <trkpt lat="49.95177" lon="1.54112">
        <ele>104.8</ele>
        <time>2013-06-22T19:41:35Z</time>
      </trkpt>
      <trkpt lat="49.9518" lon="1.54119">
        <ele>104.4</ele>
        <time>2013-06-22T19:41:39Z</time>
      </trkpt>
      <trkpt lat="49.95183" lon="1.54127">
        <ele>104</ele>
        <time>2013-06-22T19:41:43Z</time>
      </trkpt>
      <trkpt lat="49.95185" lon="1.54133">
        <ele>103.7</ele>
        <time>2013-06-22T19:41:47Z</time>
      </trkpt>
      <trkpt lat="49.95188" lon="1.54139">
        <ele>103.5</ele>
        <time>2013-06-22T19:41:51Z</time>
      </trkpt>
      <trkpt lat="49.95192" lon="1.54146">
        <ele>103</ele>
        <time>2013-06-22T19:41:55Z</time>
      </trkpt>
      <trkpt lat="49.95197" lon="1.54151">
        <ele>102.4</ele>
        <time>2013-06-22T19:41:59Z</time>
      </trkpt>
      <trkpt lat="49.952" lon="1.54156">
        <ele>101.9</ele>
        <time>2013-06-22T19:42:03Z</time>
      </trkpt>
      <trkpt lat="49.95204" lon="1.54162">
        <ele>101.5</ele>
        <time>2013-06-22T19:42:08Z</time>
      </trkpt>
      <trkpt lat="49.95207" lon="1.54167">
        <ele>101.1</ele>
        <time>2013-06-22T19:42:12Z</time>
      </trkpt>
      <trkpt lat="49.95211" lon="1.54173">
        <ele>100.9</ele>
        <time>2013-06-22T19:42:16Z</time>
      </trkpt>
      <trkpt lat="49.95214" lon="1.5418">
        <ele>100.7</ele>
        <time>2013-06-22T19:42:21Z</time>
      </trkpt>
      <trkpt lat="49.95218" lon="1.54187">
        <ele>100.4</ele>
        <time>2013-06-22T19:42:26Z</time>
      </trkpt>
      <trkpt lat="49.95221" lon="1.54193">
        <ele>100.2</ele>
        <time>2013-06-22T19:42:30Z</time>
      </trkpt>
      <trkpt lat="49.95225" lon="1.54198">
        <ele>99.8</ele>
        <time>2013-06-22T19:42:35Z</time>
      </trkpt>
      <trkpt lat="49.95228" lon="1.54205">
        <ele>99.6</ele>
        <time>2013-06-22T19:42:39Z</time>
      </trkpt>
      <trkpt lat="49.95234" lon="1.54217">
        <ele>99.2</ele>
        <time>2013-06-22T19:42:47Z</time>
      </trkpt>
      <trkpt lat="49.95238" lon="1.54221">
        <ele>98.9</ele>
        <time>2013-06-22T19:42:51Z</time>
      </trkpt>
      <trkpt lat="49.95241" lon="1.54227">
        <ele>98.6</ele>
        <time>2013-06-22T19:42:56Z</time>
      </trkpt>
      <trkpt lat="49.95244" lon="1.54233">
        <ele>98.1</ele>
        <time>2013-06-22T19:43:01Z</time>
      </trkpt>
      <trkpt lat="49.95247" lon="1.54239">
        <ele>97.7</ele>
        <time>2013-06-22T19:43:04Z</time>
      </trkpt>
      <trkpt lat="49.95251" lon="1.54245">
        <ele>97.2</ele>
        <time>2013-06-22T19:43:09Z</time>
      </trkpt>
      <trkpt lat="49.95254" lon="1.54251">
        <ele>96.8</ele>
        <time>2013-06-22T19:43:14Z</time>
      </trkpt>
      <trkpt lat="49.95258" lon="1.54257">
        <ele>96.6</ele>
        <time>2013-06-22T19:43:19Z</time>
      </trkpt>
      <trkpt lat="49.95261" lon="1.54264">
        <ele>96.4</ele>
        <time>2013-06-22T19:43:22Z</time>
      </trkpt>
      <trkpt lat="49.95265" lon="1.5427">
        <ele>96.1</ele>
        <time>2013-06-22T19:43:28Z</time>
      </trkpt>
      <trkpt lat="49.95268" lon="1.54276">
        <ele>95.7</ele>
        <time>2013-06-22T19:43:32Z</time>
      </trkpt>
      <trkpt lat="49.95272" lon="1.54282">
        <ele>95.5</ele>
        <time>2013-06-22T19:43:37Z</time>
      </trkpt>
      <trkpt lat="49.95279" lon="1.54294">
        <ele>94.9</ele>
        <time>2013-06-22T19:43:45Z</time>
      </trkpt>
      <trkpt lat="49.95282" lon="1.54299">
        <ele>94.7</ele>
        <time>2013-06-22T19:43:49Z</time>
      </trkpt>
      <trkpt lat="49.95286" lon="1.54305">
        <ele>94.4</ele>
        <time>2013-06-22T19:43:54Z</time>
      </trkpt>
      <trkpt lat="49.95289" lon="1.54312">
        <ele>94.3</ele>
        <time>2013-06-22T19:43:58Z</time>
      </trkpt>
      <trkpt lat="49.95293" lon="1.54318">
        <ele>94.1</ele>
        <time>2013-06-22T19:44:02Z</time>
      </trkpt>
      <trkpt lat="49.95297" lon="1.54325">
        <ele>93.9</ele>
        <time>2013-06-22T19:44:07Z</time>
      </trkpt>
      <trkpt lat="49.953" lon="1.54331">
        <ele>93.6</ele>
        <time>2013-06-22T19:44:11Z</time>
      </trkpt>
      <trkpt lat="49.95304" lon="1.54337">
        <ele>93.2</ele>
        <time>2013-06-22T19:44:15Z</time>
      </trkpt>
      <trkpt lat="49.95308" lon="1.54342">
        <ele>92.8</ele>
        <time>2013-06-22T19:44:19Z</time>
      </trkpt>
      <trkpt lat="49.95311" lon="1.54347">
        <ele>92.4</ele>
        <time>2013-06-22T19:44:23Z</time>
      </trkpt>
      <trkpt lat="49.95315" lon="1.54353">
        <ele>92</ele>
        <time>2013-06-22T19:44:27Z</time>
      </trkpt>
      <trkpt lat="49.95318" lon="1.54359">
        <ele>91.7</ele>
        <time>2013-06-22T19:44:31Z</time>
      </trkpt>
      <trkpt lat="49.95321" lon="1.54365">
        <ele>91.4</ele>
        <time>2013-06-22T19:44:36Z</time>
      </trkpt>
      <trkpt lat="49.95324" lon="1.54371">
        <ele>91.1</ele>
        <time>2013-06-22T19:44:39Z</time>
      </trkpt>
      <trkpt lat="49.95327" lon="1.54378">
        <ele>90.8</ele>
        <time>2013-06-22T19:44:43Z</time>
      </trkpt>
      <trkpt lat="49.95334" lon="1.5439">
        <ele>90</ele>
        <time>2013-06-22T19:44:51Z</time>
      </trkpt>
      <trkpt lat="49.95338" lon="1.54395">
        <ele>89.9</ele>
        <time>2013-06-22T19:44:56Z</time>
      </trkpt>
      <trkpt lat="49.95341" lon="1.54402">
        <ele>89.8</ele>
        <time>2013-06-22T19:45:01Z</time>
      </trkpt>
      <trkpt lat="49.95344" lon="1.54408">
        <ele>89.6</ele>
        <time>2013-06-22T19:45:06Z</time>
      </trkpt>
      <trkpt lat="49.95348" lon="1.54412">
        <ele>89.4</ele>
        <time>2013-06-22T19:45:10Z</time>
      </trkpt>
      <trkpt lat="49.9535" lon="1.54419">
        <ele>89.2</ele>
        <time>2013-06-22T19:45:14Z</time>
      </trkpt>
      <trkpt lat="49.95355" lon="1.54425">
        <ele>88.7</ele>
        <time>2013-06-22T19:45:19Z</time>
      </trkpt>
      <trkpt lat="49.95358" lon="1.5443">
        <ele>88.4</ele>
        <time>2013-06-22T19:45:23Z</time>
      </trkpt>
      <trkpt lat="49.95361" lon="1.54437">
        <ele>88</ele>
        <time>2013-06-22T19:45:28Z</time>
      </trkpt>
      <trkpt lat="49.95365" lon="1.54441">
        <ele>87.9</ele>
        <time>2013-06-22T19:45:31Z</time>
      </trkpt>
      <trkpt lat="49.95369" lon="1.54446">
        <ele>87.8</ele>
        <time>2013-06-22T19:45:35Z</time>
      </trkpt>
      <trkpt lat="49.95376" lon="1.54458">
        <ele>87.7</ele>
        <time>2013-06-22T19:45:43Z</time>
      </trkpt>
      <trkpt lat="49.95379" lon="1.54465">
        <ele>87.4</ele>
        <time>2013-06-22T19:45:48Z</time>
      </trkpt>
      <trkpt lat="49.95382" lon="1.54472">
        <ele>87</ele>
        <time>2013-06-22T19:45:53Z</time>
      </trkpt>
      <trkpt lat="49.95385" lon="1.54478">
        <ele>86.6</ele>
        <time>2013-06-22T19:45:57Z</time>
      </trkpt>
      <trkpt lat="49.9539" lon="1.54489">
        <ele>85.9</ele>
        <time>2013-06-22T19:46:04Z</time>
      </trkpt>
      <trkpt lat="49.95393" lon="1.54496">
        <ele>85.9</ele>
        <time>2013-06-22T19:46:09Z</time>
      </trkpt>
      <trkpt lat="49.95399" lon="1.5451">
        <ele>85.5</ele>
        <time>2013-06-22T19:46:17Z</time>
      </trkpt>
      <trkpt lat="49.954" lon="1.54518">
        <ele>85.3</ele>
        <time>2013-06-22T19:46:22Z</time>
      </trkpt>
      <trkpt lat="49.95403" lon="1.54525">
        <ele>85</ele>
        <time>2013-06-22T19:46:27Z</time>
      </trkpt>
      <trkpt lat="49.95407" lon="1.54532">
        <ele>84.7</ele>
        <time>2013-06-22T19:46:30Z</time>
      </trkpt>
      <trkpt lat="49.95409" lon="1.5454">
        <ele>84.6</ele>
        <time>2013-06-22T19:46:35Z</time>
      </trkpt>
      <trkpt lat="49.95412" lon="1.54547">
        <ele>84.3</ele>
        <time>2013-06-22T19:46:40Z</time>
      </trkpt>
      <trkpt lat="49.95414" lon="1.54554">
        <ele>84.2</ele>
        <time>2013-06-22T19:46:44Z</time>
      </trkpt>
      <trkpt lat="49.95417" lon="1.54561">
        <ele>83.8</ele>
        <time>2013-06-22T19:46:48Z</time>
      </trkpt>
      <trkpt lat="49.9542" lon="1.54569">
        <ele>83.6</ele>
        <time>2013-06-22T19:46:53Z</time>
      </trkpt>
      <trkpt lat="49.95422" lon="1.54576">
        <ele>83.4</ele>
        <time>2013-06-22T19:46:57Z</time>
      </trkpt>
      <trkpt lat="49.95428" lon="1.54588">
        <ele>83.4</ele>
        <time>2013-06-22T19:47:04Z</time>
      </trkpt>
      <trkpt lat="49.95431" lon="1.54595">
        <ele>83.5</ele>
        <time>2013-06-22T19:47:09Z</time>
      </trkpt>
      <trkpt lat="49.95433" lon="1.54603">
        <ele>83.5</ele>
        <time>2013-06-22T19:47:13Z</time>
      </trkpt>
      <trkpt lat="49.95436" lon="1.5461">
        <ele>83.3</ele>
        <time>2013-06-22T19:47:17Z</time>
      </trkpt>
      <trkpt lat="49.95438" lon="1.54616">
        <ele>83.2</ele>
        <time>2013-06-22T19:47:21Z</time>
      </trkpt>
      <trkpt lat="49.95441" lon="1.54622">
        <ele>82.9</ele>
        <time>2013-06-22T19:47:24Z</time>
      </trkpt>
      <trkpt lat="49.95443" lon="1.5463">
        <ele>82.4</ele>
        <time>2013-06-22T19:47:29Z</time>
      </trkpt>
      <trkpt lat="49.95447" lon="1.54637">
        <ele>82</ele>
        <time>2013-06-22T19:47:34Z</time>
      </trkpt>
      <trkpt lat="49.9545" lon="1.54643">
        <ele>81.9</ele>
        <time>2013-06-22T19:47:38Z</time>
      </trkpt>
      <trkpt lat="49.95453" lon="1.54649">
        <ele>81.8</ele>
        <time>2013-06-22T19:47:42Z</time>
      </trkpt>
      <trkpt lat="49.95457" lon="1.54655">
        <ele>81.6</ele>
        <time>2013-06-22T19:47:47Z</time>
      </trkpt>
      <trkpt lat="49.95461" lon="1.54661">
        <ele>81.3</ele>
        <time>2013-06-22T19:47:52Z</time>
      </trkpt>
      <trkpt lat="49.95464" lon="1.54667">
        <ele>80.9</ele>
        <time>2013-06-22T19:47:56Z</time>
      </trkpt>
      <trkpt lat="49.95467" lon="1.54672">
        <ele>80.7</ele>
        <time>2013-06-22T19:48:00Z</time>
      </trkpt>
      <trkpt lat="49.95471" lon="1.54678">
        <ele>80.5</ele>
        <time>2013-06-22T19:48:04Z</time>
      </trkpt>
      <trkpt lat="49.95476" lon="1.54689">
        <ele>80.6</ele>
        <time>2013-06-22T19:48:12Z</time>
      </trkpt>
      <trkpt lat="49.95481" lon="1.54694">
        <ele>80.4</ele>
        <time>2013-06-22T19:48:16Z</time>
      </trkpt>
      <trkpt lat="49.95485" lon="1.54698">
        <ele>80</ele>
        <time>2013-06-22T19:48:19Z</time>
      </trkpt>
      <trkpt lat="49.95489" lon="1.54702">
        <ele>79.6</ele>
        <time>2013-06-22T19:48:23Z</time>
      </trkpt>
      <trkpt lat="49.95493" lon="1.54707">
        <ele>79.2</ele>
        <time>2013-06-22T19:48:28Z</time>
      </trkpt>
      <trkpt lat="49.95497" lon="1.54713">
        <ele>78.7</ele>
        <time>2013-06-22T19:48:31Z</time>
      </trkpt>
      <trkpt lat="49.95501" lon="1.54717">
        <ele>78.1</ele>
        <time>2013-06-22T19:48:35Z</time>
      </trkpt>
      <trkpt lat="49.95504" lon="1.54723">
        <ele>77.9</ele>
        <time>2013-06-22T19:48:38Z</time>
      </trkpt>
      <trkpt lat="49.95509" lon="1.54729">
        <ele>77.7</ele>
        <time>2013-06-22T19:48:43Z</time>
      </trkpt>
      <trkpt lat="49.95513" lon="1.54735">
        <ele>77.5</ele>
        <time>2013-06-22T19:48:48Z</time>
      </trkpt>
      <trkpt lat="49.95517" lon="1.5474">
        <ele>77.3</ele>
        <time>2013-06-22T19:48:52Z</time>
      </trkpt>
      <trkpt lat="49.9552" lon="1.54746">
        <ele>76.9</ele>
        <time>2013-06-22T19:48:56Z</time>
      </trkpt>
      <trkpt lat="49.95524" lon="1.54753">
        <ele>76.5</ele>
        <time>2013-06-22T19:49:01Z</time>
      </trkpt>
      <trkpt lat="49.95527" lon="1.5476">
        <ele>76.4</ele>
        <time>2013-06-22T19:49:06Z</time>
      </trkpt>
      <trkpt lat="49.95531" lon="1.54765">
        <ele>76.4</ele>
        <time>2013-06-22T19:49:10Z</time>
      </trkpt>
      <trkpt lat="49.95536" lon="1.5477">
        <ele>76.2</ele>
        <time>2013-06-22T19:49:14Z</time>
      </trkpt>
      <trkpt lat="49.9554" lon="1.54776">
        <ele>76.1</ele>
        <time>2013-06-22T19:49:18Z</time>
      </trkpt>
      <trkpt lat="49.95542" lon="1.54782">
        <ele>76</ele>
        <time>2013-06-22T19:49:22Z</time>
      </trkpt>
      <trkpt lat="49.95544" lon="1.54789">
        <ele>75.8</ele>
        <time>2013-06-22T19:49:27Z</time>
      </trkpt>
      <trkpt lat="49.95546" lon="1.54802">
        <ele>75.7</ele>
        <time>2013-06-22T19:49:35Z</time>
      </trkpt>
      <trkpt lat="49.95548" lon="1.54811">
        <ele>75.5</ele>
        <time>2013-06-22T19:49:39Z</time>
      </trkpt>
      <trkpt lat="49.95554" lon="1.54822">
        <ele>75.1</ele>
        <time>2013-06-22T19:49:47Z</time>
      </trkpt>
      <trkpt lat="49.95555" lon="1.5483">
        <ele>75</ele>
        <time>2013-06-22T19:49:51Z</time>
      </trkpt>
      <trkpt lat="49.95556" lon="1.54838">
        <ele>74.7</ele>
        <time>2013-06-22T19:49:55Z</time>
      </trkpt>
      <trkpt lat="49.95558" lon="1.54845">
        <ele>74</ele>
        <time>2013-06-22T19:49:59Z</time>
      </trkpt>
      <trkpt lat="49.95562" lon="1.54851">
        <ele>73.2</ele>
        <time>2013-06-22T19:50:03Z</time>
      </trkpt>
      <trkpt lat="49.95564" lon="1.54858">
        <ele>72.3</ele>
        <time>2013-06-22T19:50:07Z</time>
      </trkpt>
      <trkpt lat="49.95566" lon="1.54865">
        <ele>71.6</ele>
        <time>2013-06-22T19:50:11Z</time>
      </trkpt>
      <trkpt lat="49.95568" lon="1.54873">
        <ele>71</ele>
        <time>2013-06-22T19:50:15Z</time>
      </trkpt>
      <trkpt lat="49.9557" lon="1.54879">
        <ele>70.5</ele>
        <time>2013-06-22T19:50:19Z</time>
      </trkpt>
      <trkpt lat="49.95572" lon="1.54887">
        <ele>69.9</ele>
        <time>2013-06-22T19:50:23Z</time>
      </trkpt>
      <trkpt lat="49.95572" lon="1.54895">
        <ele>69.7</ele>
        <time>2013-06-22T19:50:27Z</time>
      </trkpt>
      <trkpt lat="49.95568" lon="1.54902">
        <ele>69.9</ele>
        <time>2013-06-22T19:50:31Z</time>
      </trkpt>
      <trkpt lat="49.95564" lon="1.54909">
        <ele>70.1</ele>
        <time>2013-06-22T19:50:36Z</time>
      </trkpt>
      <trkpt lat="49.95561" lon="1.54913">
        <ele>70.5</ele>
        <time>2013-06-22T19:50:40Z</time>
      </trkpt>
      <trkpt lat="49.95558" lon="1.5492">
        <ele>71</ele>
        <time>2013-06-22T19:50:45Z</time>
      </trkpt>
      <trkpt lat="49.95553" lon="1.54924">
        <ele>71.9</ele>
        <time>2013-06-22T19:50:50Z</time>
      </trkpt>
      <trkpt lat="49.95548" lon="1.54927">
        <ele>72.6</ele>
        <time>2013-06-22T19:50:54Z</time>
      </trkpt>
      <trkpt lat="49.95543" lon="1.54931">
        <ele>73.1</ele>
        <time>2013-06-22T19:50:59Z</time>
      </trkpt>
      <trkpt lat="49.95538" lon="1.54934">
        <ele>73.4</ele>
        <time>2013-06-22T19:51:03Z</time>
      </trkpt>
      <trkpt lat="49.95535" lon="1.54939">
        <ele>73.3</ele>
        <time>2013-06-22T19:51:08Z</time>
      </trkpt>
      <trkpt lat="49.95531" lon="1.54945">
        <ele>73</ele>
        <time>2013-06-22T19:51:11Z</time>
      </trkpt>
      <trkpt lat="49.95526" lon="1.54951">
        <ele>72.7</ele>
        <time>2013-06-22T19:51:15Z</time>
      </trkpt>
      <trkpt lat="49.95523" lon="1.54957">
        <ele>72.5</ele>
        <time>2013-06-22T19:51:19Z</time>
      </trkpt>
      <trkpt lat="49.9552" lon="1.54962">
        <ele>72.5</ele>
        <time>2013-06-22T19:51:23Z</time>
      </trkpt>
      <trkpt lat="49.95516" lon="1.54967">
        <ele>72.3</ele>
        <time>2013-06-22T19:51:27Z</time>
      </trkpt>
      <trkpt lat="49.95512" lon="1.54972">
        <ele>72.1</ele>
        <time>2013-06-22T19:51:32Z</time>
      </trkpt>
      <trkpt lat="49.95508" lon="1.54976">
        <ele>72.1</ele>
        <time>2013-06-22T19:51:36Z</time>
      </trkpt>
      <trkpt lat="49.95503" lon="1.5498">
        <ele>72</ele>
        <time>2013-06-22T19:51:40Z</time>
      </trkpt>
      <trkpt lat="49.95499" lon="1.54984">
        <ele>71.8</ele>
        <time>2013-06-22T19:51:45Z</time>
      </trkpt>
      <trkpt lat="49.95494" lon="1.54988">
        <ele>71.6</ele>
        <time>2013-06-22T19:51:49Z</time>
      </trkpt>
      <trkpt lat="49.95489" lon="1.54992">
        <ele>71.5</ele>
        <time>2013-06-22T19:51:54Z</time>
      </trkpt>
      <trkpt lat="49.95488" lon="1.55">
        <ele>70.9</ele>
        <time>2013-06-22T19:51:59Z</time>
      </trkpt>
      <trkpt lat="49.9549" lon="1.55015">
        <ele>69.8</ele>
        <time>2013-06-22T19:52:07Z</time>
      </trkpt>
      <trkpt lat="49.95491" lon="1.55023">
        <ele>69.3</ele>
        <time>2013-06-22T19:52:12Z</time>
      </trkpt>
      <trkpt lat="49.95492" lon="1.5503">
        <ele>68.8</ele>
        <time>2013-06-22T19:52:17Z</time>
      </trkpt>
      <trkpt lat="49.95494" lon="1.55045">
        <ele>67.7</ele>
        <time>2013-06-22T19:52:25Z</time>
      </trkpt>
      <trkpt lat="49.95496" lon="1.55052">
        <ele>67.2</ele>
        <time>2013-06-22T19:52:30Z</time>
      </trkpt>
      <trkpt lat="49.95499" lon="1.55059">
        <ele>66.9</ele>
        <time>2013-06-22T19:52:34Z</time>
      </trkpt>
      <trkpt lat="49.955" lon="1.55067">
        <ele>66.6</ele>
        <time>2013-06-22T19:52:39Z</time>
      </trkpt>
      <trkpt lat="49.95502" lon="1.55074">
        <ele>66.3</ele>
        <time>2013-06-22T19:52:44Z</time>
      </trkpt>
      <trkpt lat="49.95504" lon="1.55082">
        <ele>65.9</ele>
        <time>2013-06-22T19:52:49Z</time>
      </trkpt>
      <trkpt lat="49.95507" lon="1.55089">
        <ele>65.5</ele>
        <time>2013-06-22T19:52:54Z</time>
      </trkpt>
      <trkpt lat="49.95505" lon="1.55096">
        <ele>65.4</ele>
        <time>2013-06-22T19:52:58Z</time>
      </trkpt>
      <trkpt lat="49.95501" lon="1.55102">
        <ele>65.3</ele>
        <time>2013-06-22T19:53:03Z</time>
      </trkpt>
      <trkpt lat="49.95496" lon="1.55103">
        <ele>65.3</ele>
        <time>2013-06-22T19:53:06Z</time>
      </trkpt>
      <trkpt lat="49.95491" lon="1.55101">
        <ele>65.4</ele>
        <time>2013-06-22T19:53:09Z</time>
      </trkpt>
      <trkpt lat="49.95487" lon="1.551">
        <ele>65.4</ele>
        <time>2013-06-22T19:53:13Z</time>
      </trkpt>
      <trkpt lat="49.95482" lon="1.55095">
        <ele>65.6</ele>
        <time>2013-06-22T19:53:18Z</time>
      </trkpt>
      <trkpt lat="49.95477" lon="1.55094">
        <ele>65.6</ele>
        <time>2013-06-22T19:53:23Z</time>
      </trkpt>
      <trkpt lat="49.95472" lon="1.55093">
        <ele>65.7</ele>
        <time>2013-06-22T19:53:43Z</time>
      </trkpt>
      <trkpt lat="49.95439" lon="1.55115">
        <ele>65.2</ele>
        <time>2013-06-22T19:58:09Z</time>
      </trkpt>
      <trkpt lat="49.95451" lon="1.55155">
        <ele>65.2</ele>
        <time>2013-06-22T20:00:53Z</time>
      </trkpt>
      <trkpt lat="49.95454" lon="1.55161">
        <ele>65.2</ele>
        <time>2013-06-22T20:00:57Z</time>
      </trkpt>
      <trkpt lat="49.95458" lon="1.55166">
        <ele>65</ele>
        <time>2013-06-22T20:01:01Z</time>
      </trkpt>
      <trkpt lat="49.95461" lon="1.55173">
        <ele>65.2</ele>
        <time>2013-06-22T20:01:08Z</time>
      </trkpt>
      <trkpt lat="49.95464" lon="1.55178">
        <ele>65.3</ele>
        <time>2013-06-22T20:01:15Z</time>
      </trkpt>
      <trkpt lat="49.95468" lon="1.55182">
        <ele>65</ele>
        <time>2013-06-22T20:01:19Z</time>
      </trkpt>
      <trkpt lat="49.95472" lon="1.55186">
        <ele>64.7</ele>
        <time>2013-06-22T20:01:23Z</time>
      </trkpt>
      <trkpt lat="49.95476" lon="1.55191">
        <ele>64.7</ele>
        <time>2013-06-22T20:01:27Z</time>
      </trkpt>
      <trkpt lat="49.95481" lon="1.55195">
        <ele>64.7</ele>
        <time>2013-06-22T20:01:32Z</time>
      </trkpt>
      <trkpt lat="49.95486" lon="1.552">
        <ele>65.1</ele>
        <time>2013-06-22T20:01:37Z</time>
      </trkpt>
      <trkpt lat="49.95491" lon="1.55202">
        <ele>65.2</ele>
        <time>2013-06-22T20:01:41Z</time>
      </trkpt>
      <trkpt lat="49.95495" lon="1.55206">
        <ele>65.5</ele>
        <time>2013-06-22T20:01:45Z</time>
      </trkpt>
      <trkpt lat="49.955" lon="1.55207">
        <ele>65.4</ele>
        <time>2013-06-22T20:01:49Z</time>
      </trkpt>
      <trkpt lat="49.95508" lon="1.55215">
        <ele>65.7</ele>
        <time>2013-06-22T20:01:58Z</time>
      </trkpt>
      <trkpt lat="49.95512" lon="1.55218">
        <ele>65.7</ele>
        <time>2013-06-22T20:02:02Z</time>
      </trkpt>
      <trkpt lat="49.95516" lon="1.55222">
        <ele>65.8</ele>
        <time>2013-06-22T20:02:06Z</time>
      </trkpt>
      <trkpt lat="49.95521" lon="1.55226">
        <ele>65.8</ele>
        <time>2013-06-22T20:02:11Z</time>
      </trkpt>
      <trkpt lat="49.95525" lon="1.5523">
        <ele>66</ele>
        <time>2013-06-22T20:02:15Z</time>
      </trkpt>
      <trkpt lat="49.9553" lon="1.55235">
        <ele>66.2</ele>
        <time>2013-06-22T20:02:20Z</time>
      </trkpt>
      <trkpt lat="49.95534" lon="1.55239">
        <ele>66.2</ele>
        <time>2013-06-22T20:02:24Z</time>
      </trkpt>
      <trkpt lat="49.95538" lon="1.55245">
        <ele>66.4</ele>
        <time>2013-06-22T20:02:29Z</time>
      </trkpt>
      <trkpt lat="49.95545" lon="1.55256">
        <ele>66.5</ele>
        <time>2013-06-22T20:02:37Z</time>
      </trkpt>
      <trkpt lat="49.95548" lon="1.55262">
        <ele>66.5</ele>
        <time>2013-06-22T20:02:41Z</time>
      </trkpt>
      <trkpt lat="49.95552" lon="1.55268">
        <ele>66.6</ele>
        <time>2013-06-22T20:02:45Z</time>
      </trkpt>
      <trkpt lat="49.95556" lon="1.55274">
        <ele>66.6</ele>
        <time>2013-06-22T20:02:49Z</time>
      </trkpt>
      <trkpt lat="49.9556" lon="1.55281">
        <ele>66.5</ele>
        <time>2013-06-22T20:02:54Z</time>
      </trkpt>
      <trkpt lat="49.95563" lon="1.55287">
        <ele>66.3</ele>
        <time>2013-06-22T20:02:58Z</time>
      </trkpt>
      <trkpt lat="49.95565" lon="1.55294">
        <ele>66.2</ele>
        <time>2013-06-22T20:03:03Z</time>
      </trkpt>
      <trkpt lat="49.9557" lon="1.55306">
        <ele>66</ele>
        <time>2013-06-22T20:03:12Z</time>
      </trkpt>
      <trkpt lat="49.95573" lon="1.55313">
        <ele>65.9</ele>
        <time>2013-06-22T20:03:19Z</time>
      </trkpt>
      <trkpt lat="49.95575" lon="1.55321">
        <ele>66</ele>
        <time>2013-06-22T20:03:25Z</time>
      </trkpt>
      <trkpt lat="49.95577" lon="1.55328">
        <ele>66.1</ele>
        <time>2013-06-22T20:03:29Z</time>
      </trkpt>
      <trkpt lat="49.9558" lon="1.55335">
        <ele>66.2</ele>
        <time>2013-06-22T20:03:33Z</time>
      </trkpt>
      <trkpt lat="49.95583" lon="1.55343">
        <ele>66.3</ele>
        <time>2013-06-22T20:03:38Z</time>
      </trkpt>
      <trkpt lat="49.95584" lon="1.5535">
        <ele>66.6</ele>
        <time>2013-06-22T20:03:42Z</time>
      </trkpt>
      <trkpt lat="49.95586" lon="1.55358">
        <ele>66.9</ele>
        <time>2013-06-22T20:03:47Z</time>
      </trkpt>
      <trkpt lat="49.95587" lon="1.55366">
        <ele>67</ele>
        <time>2013-06-22T20:03:52Z</time>
      </trkpt>
      <trkpt lat="49.95591" lon="1.5538">
        <ele>67.2</ele>
        <time>2013-06-22T20:04:00Z</time>
      </trkpt>
      <trkpt lat="49.95592" lon="1.55388">
        <ele>67.3</ele>
        <time>2013-06-22T20:04:04Z</time>
      </trkpt>
      <trkpt lat="49.95593" lon="1.55396">
        <ele>67.6</ele>
        <time>2013-06-22T20:04:09Z</time>
      </trkpt>
      <trkpt lat="49.95594" lon="1.55404">
        <ele>67.9</ele>
        <time>2013-06-22T20:04:14Z</time>
      </trkpt>
      <trkpt lat="49.95596" lon="1.55411">
        <ele>68.2</ele>
        <time>2013-06-22T20:04:19Z</time>
      </trkpt>
      <trkpt lat="49.95596" lon="1.55419">
        <ele>68.6</ele>
        <time>2013-06-22T20:04:23Z</time>
      </trkpt>
      <trkpt lat="49.95596" lon="1.55426">
        <ele>69</ele>
        <time>2013-06-22T20:04:28Z</time>
      </trkpt>
      <trkpt lat="49.95597" lon="1.55434">
        <ele>69.4</ele>
        <time>2013-06-22T20:04:32Z</time>
      </trkpt>
      <trkpt lat="49.95598" lon="1.55442">
        <ele>69.9</ele>
        <time>2013-06-22T20:04:37Z</time>
      </trkpt>
      <trkpt lat="49.95597" lon="1.55456">
        <ele>70.6</ele>
        <time>2013-06-22T20:04:47Z</time>
      </trkpt>
      <trkpt lat="49.95592" lon="1.55459">
        <ele>70.5</ele>
        <time>2013-06-22T20:04:53Z</time>
      </trkpt>
      <trkpt lat="49.95587" lon="1.55458">
        <ele>70.2</ele>
        <time>2013-06-22T20:04:58Z</time>
      </trkpt>
      <trkpt lat="49.95578" lon="1.55458">
        <ele>69.9</ele>
        <time>2013-06-22T20:05:19Z</time>
      </trkpt>
      <trkpt lat="49.95573" lon="1.55457">
        <ele>69.8</ele>
        <time>2013-06-22T20:05:23Z</time>
      </trkpt>
      <trkpt lat="49.95568" lon="1.55457">
        <ele>69.7</ele>
        <time>2013-06-22T20:05:28Z</time>
      </trkpt>
      <trkpt lat="49.95563" lon="1.55457">
        <ele>69.6</ele>
        <time>2013-06-22T20:05:33Z</time>
      </trkpt>
      <trkpt lat="49.95558" lon="1.55456">
        <ele>69.5</ele>
        <time>2013-06-22T20:05:38Z</time>
      </trkpt>
      <trkpt lat="49.95554" lon="1.55453">
        <ele>69.4</ele>
        <time>2013-06-22T20:05:44Z</time>
      </trkpt>
      <trkpt lat="49.95552" lon="1.55451">
        <ele>69.4</ele>
        <time>2013-06-22T20:05:47Z</time>
      </trkpt>
    </trkseg>
  </trk>
</gpx>